[[{"header":{"parameterUnit":"m.s-1","parameterCategory":1,"la1":30.6,"la2":29.2853,"lo1":-89.7004,"lo2":-87.6739,"dy":0.0162,"dx":0.0183,"nx":112,"ny":82,"refTime":"2024-06-18T06:00:00:Z","depth":0,"parameterNumber":2,"parameterNumberName":"U-component_of_WINDS"},"data":[0.0,0.0,0.0,0.0,0.0,0.0,0.0,0.0,0.0,0.0,0.0,0.0,0.0,0.0,0.0,0.0,0.0,0.0,0.0,0.0,0.0,0.0,0.0,0.0,0.0,0.0,0.0,0.0,0.0,0.0,0.0,0.0,0.0,0.0,0.0,0.0,0.0,0.0,0.0,0.0,0.0,0.0,0.0,0.0,0.0,0.0,0.0,0.0,0.0,0.0,0.0,0.0,0.0,0.0,0.0,0.0,0.0,0.0,0.0,0.0,0.0,0.0,0.0,0.0,0.0,0.0,0.0,0.0,0.0,0.0,0.0,0.0,0.0,0.0,0.0,0.0,0.0,0.0,0.0,0.0,0.0,0.0,0.0,0.0,0.0,0.0,0.0,0.0,0.0,0.0,-5.6269,-5.8262,-6.041,-6.1699,-6.1699,-6.0781,-5.918,-5.6758,0.0,0.0,0.0,0.0,0.0,0.0,0.0,0.0,0.0,0.0,0.0,0.0,0.0,0.0,0.0,0.0,0.0,0.0,0.0,0.0,0.0,0.0,0.0,0.0,0.0,0.0,0.0,0.0,0.0,0.0,0.0,0.0,0.0,0.0,0.0,0.0,0.0,0.0,0.0,0.0,0.0,0.0,0.0,0.0,0.0,0.0,0.0,0.0,0.0,0.0,0.0,0.0,0.0,0.0,0.0,0.0,0.0,0.0,0.0,0.0,0.0,0.0,0.0,0.0,0.0,0.0,0.0,0.0,0.0,0.0,0.0,0.0,0.0,0.0,0.0,0.0,0.0,0.0,0.0,0.0,0.0,0.0,0.0,0.0,0.0,0.0,0.0,0.0,0.0,0.0,0.0,0.0,0.0,0.0,0.0,0.0,0.0,0.0,0.0,0.0,0.0,0.0,0.0,0.0,-5.7617,-6.0781,-6.1465,-6.1699,-6.1699,-6.0273,-5.8594,-5.6719,0.0,0.0,0.0,0.0,0.0,0.0,0.0,0.0,0.0,0.0,0.0,0.0,0.0,0.0,0.0,0.0,0.0,0.0,0.0,0.0,0.0,0.0,0.0,0.0,0.0,0.0,0.0,0.0,0.0,0.0,0.0,0.0,0.0,0.0,0.0,0.0,0.0,0.0,0.0,0.0,0.0,0.0,0.0,0.0,0.0,0.0,0.0,0.0,0.0,0.0,0.0,0.0,0.0,0.0,0.0,0.0,0.0,0.0,0.0,0.0,0.0,0.0,0.0,0.0,0.0,0.0,0.0,0.0,0.0,0.0,0.0,0.0,0.0,0.0,0.0,0.0,0.0,0.0,0.0,0.0,0.0,0.0,0.0,0.0,0.0,0.0,0.0,0.0,0.0,0.0,0.0,0.0,0.0,0.0,0.0,0.0,0.0,0.0,0.0,0.0,0.0,0.0,0.0,-5.6328,-5.8437,-6.1387,-6.1699,-6.1504,-6.1035,-5.9883,-5.8242,-5.6035,-5.3828,0.0,0.0,0.0,0.0,0.0,0.0,0.0,0.0,0.0,0.0,0.0,0.0,0.0,0.0,0.0,0.0,0.0,0.0,0.0,0.0,0.0,0.0,0.0,0.0,0.0,0.0,0.0,0.0,0.0,0.0,0.0,0.0,0.0,0.0,0.0,0.0,0.0,0.0,0.0,0.0,0.0,0.0,0.0,0.0,0.0,0.0,0.0,0.0,0.0,0.0,0.0,0.0,0.0,0.0,0.0,0.0,0.0,0.0,0.0,0.0,0.0,0.0,0.0,0.0,0.0,0.0,0.0,0.0,0.0,0.0,0.0,0.0,0.0,0.0,0.0,0.0,0.0,0.0,0.0,0.0,0.0,0.0,0.0,0.0,0.0,0.0,0.0,0.0,0.0,0.0,0.0,0.0,0.0,0.0,0.0,0.0,0.0,0.0,0.0,0.0,0.0,0.0,-5.7949,-5.9101,-6.1445,-6.1699,-6.1348,-6.0469,-5.9473,-5.7871,-5.5449,-5.2676,0.0,0.0,0.0,0.0,0.0,0.0,0.0,0.0,0.0,0.0,0.0,0.0,0.0,0.0,0.0,0.0,0.0,0.0,0.0,0.0,0.0,0.0,0.0,0.0,0.0,0.0,0.0,0.0,0.0,0.0,0.0,0.0,0.0,0.0,0.0,0.0,0.0,0.0,0.0,0.0,0.0,0.0,0.0,0.0,0.0,0.0,0.0,0.0,0.0,0.0,0.0,0.0,0.0,0.0,0.0,0.0,0.0,0.0,0.0,0.0,0.0,0.0,0.0,0.0,0.0,0.0,0.0,0.0,0.0,0.0,0.0,0.0,0.0,0.0,0.0,0.0,0.0,0.0,0.0,0.0,0.0,0.0,0.0,0.0,0.0,0.0,0.0,0.0,0.0,0.0,0.0,0.0,0.0,0.0,0.0,0.0,0.0,0.0,0.0,0.0,0.0,0.0,-5.8105,-5.9765,-6.1504,-6.1699,-6.1348,-6.0469,-5.8926,-5.7226,-5.541,-5.2148,0.0,0.0,0.0,0.0,0.0,0.0,0.0,0.0,0.0,0.0,0.0,0.0,0.0,0.0,0.0,0.0,0.0,0.0,0.0,0.0,0.0,0.0,0.0,0.0,0.0,0.0,0.0,0.0,0.0,0.0,0.0,0.0,0.0,0.0,0.0,0.0,0.0,0.0,0.0,0.0,0.0,0.0,0.0,0.0,0.0,0.0,0.0,0.0,0.0,0.0,0.0,0.0,0.0,0.0,0.0,0.0,0.0,0.0,0.0,0.0,0.0,0.0,0.0,0.0,0.0,0.0,0.0,0.0,0.0,0.0,0.0,0.0,0.0,0.0,0.0,0.0,0.0,0.0,0.0,0.0,0.0,0.0,0.0,0.0,0.0,0.0,0.0,0.0,0.0,0.0,0.0,0.0,0.0,0.0,0.0,0.0,0.0,0.0,0.0,0.0,0.0,0.0,-5.6836,-5.8242,-5.9961,-6.0137,-5.9785,-5.8926,-5.7754,-5.6113,-5.3828,0.0,0.0,0.0,0.0,0.0,0.0,0.0,0.0,0.0,0.0,0.0,0.0,0.0,0.0,0.0,0.0,0.0,0.0,0.0,0.0,0.0,0.0,0.0,0.0,0.0,0.0,0.0,0.0,0.0,0.0,0.0,0.0,0.0,0.0,0.0,0.0,0.0,0.0,0.0,0.0,0.0,0.0,0.0,0.0,0.0,0.0,0.0,0.0,0.0,0.0,0.0,0.0,0.0,0.0,0.0,0.0,0.0,0.0,0.0,0.0,0.0,0.0,0.0,0.0,0.0,0.0,0.0,0.0,0.0,0.0,0.0,0.0,0.0,0.0,0.0,0.0,0.0,0.0,0.0,0.0,0.0,0.0,0.0,0.0,0.0,0.0,0.0,0.0,0.0,0.0,0.0,0.0,0.0,0.0,0.0,0.0,0.0,0.0,0.0,0.0,0.0,0.0,-5.4512,-5.6133,-5.7461,-5.8652,-5.8789,-5.832,-5.7168,-5.6015,-5.4473,-5.2422,0.0,0.0,0.0,0.0,0.0,0.0,0.0,0.0,0.0,0.0,0.0,0.0,0.0,0.0,0.0,0.0,0.0,0.0,0.0,0.0,0.0,0.0,0.0,0.0,0.0,0.0,0.0,0.0,0.0,0.0,0.0,0.0,0.0,0.0,0.0,0.0,0.0,0.0,0.0,0.0,0.0,0.0,0.0,0.0,0.0,0.0,0.0,0.0,0.0,0.0,0.0,0.0,0.0,0.0,0.0,0.0,0.0,0.0,0.0,0.0,0.0,0.0,0.0,0.0,0.0,0.0,0.0,0.0,0.0,0.0,0.0,0.0,0.0,0.0,0.0,0.0,0.0,0.0,0.0,0.0,0.0,0.0,0.0,0.0,0.0,0.0,0.0,0.0,0.0,0.0,0.0,0.0,0.0,0.0,0.0,0.0,0.0,0.0,0.0,0.0,0.0,0.0,-5.375,-5.623,-5.7851,-5.7851,-5.7851,-5.7148,-5.543,-5.3672,-5.2305,0.0,0.0,0.0,0.0,0.0,0.0,0.0,0.0,0.0,0.0,0.0,0.0,0.0,0.0,0.0,0.0,0.0,0.0,0.0,0.0,0.0,0.0,0.0,0.0,0.0,0.0,0.0,0.0,0.0,0.0,0.0,0.0,0.0,0.0,0.0,0.0,0.0,0.0,0.0,0.0,0.0,0.0,0.0,0.0,0.0,0.0,0.0,0.0,0.0,0.0,0.0,0.0,0.0,0.0,0.0,0.0,0.0,0.0,0.0,0.0,0.0,0.0,0.0,0.0,0.0,0.0,0.0,0.0,0.0,0.0,0.0,0.0,0.0,0.0,0.0,0.0,0.0,0.0,0.0,0.0,0.0,0.0,0.0,0.0,0.0,0.0,0.0,0.0,0.0,0.0,0.0,0.0,0.0,0.0,0.0,0.0,0.0,0.0,0.0,0.0,0.0,0.0,0.0,-5.1875,-5.3379,-5.4473,-5.5078,-5.5156,-5.4687,-5.3555,-5.2422,-5.1172,-4.9726,0.0,0.0,0.0,0.0,0.0,0.0,0.0,0.0,0.0,0.0,0.0,0.0,0.0,0.0,0.0,0.0,0.0,0.0,0.0,0.0,0.0,0.0,0.0,0.0,0.0,0.0,0.0,0.0,0.0,0.0,0.0,0.0,0.0,0.0,0.0,0.0,0.0,0.0,0.0,0.0,0.0,0.0,0.0,0.0,0.0,0.0,0.0,0.0,0.0,0.0,0.0,0.0,0.0,0.0,0.0,0.0,0.0,0.0,0.0,0.0,0.0,0.0,0.0,0.0,0.0,0.0,0.0,0.0,0.0,0.0,0.0,0.0,0.0,0.0,0.0,0.0,0.0,0.0,0.0,0.0,0.0,0.0,0.0,0.0,0.0,0.0,0.0,0.0,0.0,0.0,0.0,0.0,0.0,0.0,0.0,0.0,0.0,0.0,0.0,0.0,0.0,0.0,-5.0156,-5.1445,-5.2266,-5.2461,-5.248,-5.2129,-5.1269,-5.0391,-4.9316,-4.7949,0.0,0.0,0.0,0.0,0.0,0.0,0.0,0.0,0.0,0.0,0.0,0.0,0.0,0.0,0.0,0.0,0.0,0.0,0.0,0.0,0.0,0.0,0.0,0.0,0.0,0.0,0.0,0.0,0.0,0.0,0.0,0.0,0.0,0.0,0.0,0.0,0.0,0.0,0.0,0.0,0.0,0.0,0.0,0.0,0.0,0.0,0.0,0.0,0.0,0.0,0.0,0.0,0.0,0.0,0.0,0.0,0.0,0.0,0.0,0.0,0.0,0.0,0.0,0.0,0.0,0.0,0.0,0.0,0.0,0.0,0.0,0.0,0.0,0.0,0.0,0.0,0.0,0.0,0.0,0.0,0.0,0.0,0.0,0.0,0.0,0.0,0.0,0.0,0.0,0.0,0.0,0.0,0.0,0.0,0.0,0.0,0.0,0.0,0.0,0.0,0.0,0.0,-4.8652,-5.0097,-5.0781,-5.0156,-5.0078,-4.9726,-4.8848,-4.8047,-4.7226,-4.6367,0.0,0.0,0.0,0.0,0.0,0.0,0.0,0.0,0.0,0.0,0.0,0.0,0.0,0.0,0.0,0.0,0.0,0.0,0.0,0.0,0.0,0.0,0.0,0.0,0.0,0.0,0.0,0.0,0.0,0.0,0.0,0.0,0.0,0.0,0.0,0.0,0.0,0.0,0.0,0.0,0.0,0.0,0.0,0.0,0.0,0.0,0.0,0.0,0.0,0.0,0.0,0.0,0.0,0.0,0.0,0.0,0.0,0.0,0.0,0.0,-4.7114,-4.8394,0.0,0.0,0.0,0.0,0.0,0.0,0.0,0.0,0.0,0.0,0.0,0.0,0.0,0.0,0.0,0.0,0.0,0.0,0.0,0.0,0.0,0.0,0.0,0.0,0.0,0.0,0.0,0.0,0.0,0.0,0.0,0.0,0.0,0.0,0.0,0.0,0.0,0.0,0.0,0.0,-4.7656,-4.8096,-4.8482,-4.9101,-4.918,-4.8828,-4.7949,-4.7715,-4.7226,-4.6367,-4.4844,0.0,0.0,0.0,0.0,0.0,0.0,0.0,0.0,0.0,0.0,0.0,0.0,0.0,0.0,0.0,0.0,0.0,0.0,0.0,0.0,0.0,0.0,0.0,0.0,0.0,0.0,0.0,0.0,0.0,0.0,0.0,0.0,0.0,0.0,0.0,0.0,0.0,0.0,0.0,0.0,0.0,0.0,0.0,0.0,0.0,0.0,0.0,0.0,0.0,0.0,0.0,0.0,0.0,0.0,0.0,0.0,0.0,0.0,0.0,-4.7438,-4.8217,0.0,0.0,0.0,0.0,0.0,0.0,0.0,0.0,0.0,0.0,0.0,0.0,0.0,0.0,0.0,0.0,0.0,0.0,0.0,0.0,0.0,0.0,0.0,0.0,0.0,0.0,0.0,0.0,0.0,0.0,0.0,0.0,0.0,0.0,0.0,0.0,0.0,0.0,0.0,0.0,-4.6706,-4.6767,-4.6908,-4.7487,-4.7548,-4.7397,-4.7012,-4.6973,-4.6601,-4.5723,-4.4824,0.0,0.0,0.0,0.0,0.0,0.0,0.0,0.0,0.0,0.0,0.0,0.0,0.0,0.0,0.0,0.0,0.0,0.0,0.0,0.0,0.0,0.0,0.0,0.0,0.0,0.0,0.0,0.0,0.0,0.0,0.0,0.0,0.0,0.0,0.0,0.0,0.0,0.0,0.0,0.0,0.0,0.0,0.0,0.0,0.0,0.0,0.0,0.0,0.0,0.0,0.0,0.0,0.0,-4.9119,-4.9013,-4.8844,-4.8116,-4.8191,-4.8818,-4.7819,-4.7926,-4.8741,-4.8217,0.0,0.0,0.0,0.0,0.0,0.0,0.0,0.0,0.0,0.0,0.0,0.0,0.0,0.0,0.0,0.0,0.0,0.0,0.0,0.0,0.0,0.0,-4.649,-4.5768,-4.5594,-4.5229,-4.3835,0.0,0.0,0.0,0.0,0.0,0.0,0.0,0.0,0.0,0.0,0.0,-4.5975,-4.5959,-4.5935,-4.6045,-4.6082,-4.6145,-4.6267,-4.6289,-4.5976,-4.5233,-4.5057,-4.4314,0.0,0.0,0.0,0.0,0.0,0.0,0.0,0.0,0.0,0.0,0.0,0.0,0.0,0.0,0.0,0.0,0.0,0.0,0.0,0.0,0.0,0.0,0.0,0.0,0.0,0.0,0.0,0.0,0.0,0.0,0.0,0.0,-4.3938,-4.5553,0.0,0.0,0.0,0.0,0.0,0.0,0.0,0.0,0.0,0.0,0.0,0.0,0.0,-4.9451,-4.9334,-4.9099,-4.8642,-4.7932,-4.7567,-4.7039,-4.6375,-4.6265,-4.6283,-4.6375,-4.6501,0.0,-4.834,-4.7798,0.0,0.0,0.0,0.0,0.0,0.0,0.0,0.0,0.0,0.0,0.0,0.0,0.0,0.0,0.0,0.0,0.0,0.0,0.0,0.0,0.0,0.0,-4.5748,-4.5633,-4.5594,-4.5537,-4.5325,-4.5344,-4.5171,-4.4316,-4.4245,-4.4326,0.0,0.0,0.0,0.0,0.0,0.0,-4.5892,-4.585,-4.5836,-4.5912,-4.6033,-4.6113,-4.6119,-4.6226,-4.6208,-4.5966,-4.524,-4.4709,-4.4417,-4.2836,0.0,0.0,0.0,0.0,0.0,0.0,0.0,0.0,0.0,0.0,0.0,0.0,0.0,0.0,0.0,0.0,0.0,0.0,0.0,0.0,0.0,0.0,0.0,0.0,0.0,0.0,0.0,0.0,0.0,-4.4727,-4.5792,-4.6489,-4.625,-4.6177,0.0,0.0,0.0,0.0,0.0,0.0,0.0,0.0,0.0,-4.8272,-4.8644,-4.8813,-4.8813,-4.8639,-4.8384,-4.8033,-4.7849,-4.759,-4.726,-4.726,-4.726,-4.726,-4.7408,-4.7528,-4.763,-4.7522,-4.7316,-4.7078,0.0,0.0,0.0,0.0,-4.699,-4.624,-4.674,-4.6586,-4.5951,-4.4701,0.0,0.0,0.0,0.0,0.0,0.0,0.0,-4.7471,-4.7019,-4.6624,-4.6201,-4.5729,-4.5594,-4.5594,-4.5594,-4.5594,-4.5498,-4.5094,-4.5432,-4.562,-4.5198,-4.5174,0.0,0.0,0.0,-4.5809,-4.5836,-4.5743,-4.5733,-4.583,-4.5901,-4.5946,-4.5985,-4.6042,-4.6045,-4.5992,-4.5634,-4.5204,-4.4727,-4.3964,-4.3129,0.0,0.0,0.0,0.0,0.0,0.0,0.0,0.0,0.0,0.0,0.0,0.0,0.0,0.0,0.0,0.0,0.0,0.0,0.0,0.0,0.0,0.0,0.0,0.0,0.0,0.0,0.0,0.0,-4.603,-4.6856,-4.7076,-4.7278,-4.7333,0.0,0.0,0.0,0.0,0.0,0.0,-4.8269,-4.8306,-4.8398,-4.86,-4.882,-4.8838,-4.8636,-4.8636,-4.8526,-4.8306,-4.8306,-4.8306,-4.8306,-4.8306,-4.8306,-4.8306,-4.8306,-4.7737,-4.682,-4.7203,-4.7281,-4.7155,-4.7386,-4.7049,-4.6551,-4.7462,-4.6934,-4.5889,-4.6636,-4.649,-4.5778,-4.4913,-4.4624,-4.4509,-4.3912,0.0,0.0,0.0,0.0,-4.7663,-4.7058,-4.674,-4.6394,-4.5748,-4.5594,-4.5594,-4.5594,-4.5787,-4.5883,-4.5633,-4.6124,-4.6355,-4.571,-4.5669,0.0,-4.5747,-4.5747,-4.5747,-4.5747,-4.5657,-4.5635,-4.5733,-4.5769,-4.5814,-4.5862,-4.5881,-4.5885,-4.5877,-4.5872,-4.5585,-4.4955,-4.4722,-4.3903,-4.2417,0.0,0.0,0.0,0.0,0.0,0.0,0.0,0.0,0.0,0.0,0.0,0.0,0.0,0.0,0.0,0.0,0.0,0.0,0.0,0.0,0.0,0.0,0.0,0.0,0.0,0.0,0.0,0.0,0.0,-4.7003,-4.7755,0.0,0.0,0.0,0.0,-4.8306,-4.7516,-4.7443,-4.8269,-4.8306,-4.8655,-4.9407,-5.0233,-5.0306,-4.9537,-4.9537,-4.9114,-4.8306,-4.8306,-4.8306,-4.8306,-4.8306,-4.8306,-4.8306,-4.8306,-4.7407,-4.6011,-4.6739,-4.6585,-4.5872,-4.5773,-4.5506,-4.5322,-4.6513,-4.6666,-4.6337,-4.6753,-4.6865,-4.6701,-4.5817,-4.5537,-4.5537,-4.5498,-4.6105,0.0,0.0,-4.6962,-4.6942,-4.6904,-4.6297,-4.5652,-4.5614,-4.5594,-4.5594,-4.5594,-4.624,-4.6586,-4.5768,-4.5633,-4.5652,-4.5614,0.0,-4.5612,-4.5612,-4.5612,-4.5612,-4.5612,-4.5603,-4.5594,-4.5612,-4.5711,-4.5803,-4.579,-4.5852,-4.5872,-4.5803,-4.5816,-4.5735,-4.556,-4.4754,-4.3956,-4.3156,-4.1542,0.0,0.0,0.0,0.0,0.0,0.0,0.0,0.0,0.0,0.0,0.0,0.0,0.0,0.0,0.0,0.0,0.0,0.0,0.0,0.0,0.0,0.0,0.0,0.0,0.0,0.0,0.0,0.0,-4.7847,-4.8141,0.0,-4.7901,-4.7939,-4.8306,-4.9077,-4.8361,-4.8471,-4.9848,-4.9921,-5.0288,-5.1077,-5.0912,-5.0912,-5.1153,-5.0124,-4.9445,-4.9132,-4.8563,-4.8306,-4.8306,-4.8306,-4.8306,-4.8306,-4.8306,-4.7682,-4.6673,-4.6615,-4.584,-4.4688,-4.5114,-4.5211,-4.5186,-4.5822,-4.5974,-4.588,-4.6001,-4.6067,-4.6009,-4.571,-4.5594,-4.571,-4.6278,-4.6644,-4.6904,-4.6904,-4.6904,-4.6778,-4.6201,-4.5825,-4.5594,-4.5594,-4.5594,-4.5594,-4.5594,-4.5845,-4.597,-4.5671,-4.6047,-4.6259,-4.571,-4.5594,-4.5594,-4.5594,-4.5594,-4.5594,-4.5594,-4.5594,-4.5594,-4.5594,-4.5643,-4.5673,-4.5673,-4.5684,-4.546,-4.4862,-4.4824,-4.458,-4.4017,-4.3682,-4.3137,-4.2321,-4.1152,-4.0248,0.0,0.0,0.0,0.0,0.0,0.0,0.0,0.0,0.0,0.0,0.0,0.0,0.0,0.0,0.0,0.0,0.0,0.0,0.0,0.0,0.0,0.0,0.0,0.0,0.0,-4.7121,-4.7673,-4.7883,-4.8398,-4.8526,-4.7957,-4.8158,-4.871,-4.9537,-4.9315,-4.9756,-5.1132,-5.1206,-5.1573,-5.238,-5.1903,-5.1738,-5.1995,-5.0675,-4.9867,-4.9592,-4.8728,-4.8306,-4.8306,-4.8306,-4.8306,-4.8306,-4.8306,-4.77,-4.6673,-4.6351,-4.5284,-4.3912,-4.4638,-4.4842,-4.4762,-4.514,-4.5182,-4.5069,-4.5232,-4.5342,-4.5429,-4.5429,-4.5504,-4.571,-4.6297,-4.6471,-4.6471,-4.6471,-4.6471,-4.6336,-4.5748,-4.5594,-4.5594,-4.5594,-4.5594,-4.5594,-4.5594,-4.5594,-4.5594,-4.5594,-4.6067,-4.6278,-4.571,-4.5594,-4.571,-4.599,-4.5787,-4.571,-4.599,-4.5787,-4.5594,-4.5594,-4.5594,-4.5594,-4.5594,-4.5594,-4.5344,-4.4778,-4.4451,-4.4066,-4.3528,-4.3508,-4.3104,-4.2258,-4.1373,-4.0461,-3.9524,0.0,0.0,0.0,0.0,0.0,0.0,0.0,0.0,0.0,0.0,0.0,0.0,0.0,0.0,0.0,0.0,0.0,0.0,0.0,0.0,0.0,0.0,0.0,-4.5136,-4.5843,-4.6569,-4.7074,-4.8563,-4.8912,-4.7296,-4.9352,-5.0453,-4.9702,-5.038,-5.1187,-5.1977,-5.2032,-5.238,-5.3167,-5.3185,-5.2839,-5.205,-5.1206,-5.0398,-4.9629,-4.8728,-4.8306,-4.8306,-4.8306,-4.8306,-4.8306,-4.8306,-4.7388,-4.5902,-4.5902,-4.4947,-4.3563,-4.4294,-4.4332,-4.4061,-4.446,-4.4346,-4.4073,-4.4474,-4.4806,-4.5085,-4.5085,-4.5312,-4.5586,-4.5586,-4.5586,-4.5594,-4.5594,-4.5594,-4.5594,-4.5594,-4.5594,-4.5594,-4.5594,-4.5594,-4.5594,-4.5594,-4.5594,-4.5594,-4.5594,-4.5594,-4.5594,-4.5594,-4.5594,-4.5893,-4.674,-4.6144,0.0,-4.6759,-4.6124,-4.5614,-4.5633,-4.5633,-4.5633,-4.5633,-4.5633,-4.5614,-4.5537,-4.472,-4.4239,-4.422,-4.422,-4.3855,-4.3066,-4.22,-4.1003,-3.9435,0.0,0.0,0.0,0.0,0.0,0.0,0.0,0.0,0.0,0.0,0.0,0.0,0.0,0.0,0.0,0.0,0.0,0.0,0.0,0.0,0.0,-4.3617,-4.4297,-4.5773,-4.6999,-4.7803,-4.7957,-4.8379,-4.8489,-4.8012,-4.915,-5.0068,-5.0435,-5.1224,-5.2013,-5.2839,-5.2876,-5.2968,-5.3185,-5.3185,-5.3075,-5.2876,-5.1499,-5.0692,-5.0453,-4.9003,-4.8306,-4.8306,-4.8306,-4.8306,-4.8306,-4.8306,-4.7388,-4.5902,-4.5902,-4.4947,-4.3548,-4.3986,-4.4106,-4.4061,-4.446,-4.4527,-4.446,-4.4553,-4.4657,-4.4751,-4.4751,-4.4966,-4.5232,-4.5232,-4.541,-4.5594,-4.5594,-4.5594,-4.5594,-4.5594,-4.5594,-4.5594,-4.5594,-4.5594,-4.5594,-4.5594,-4.5594,-4.5594,-4.5594,-4.5594,-4.5594,-4.5594,-4.5594,-4.5691,-4.5913,-4.5748,-4.5691,-4.5932,-4.5748,-4.5845,-4.649,-4.6547,-4.6547,-4.6547,-4.6547,-4.5759,-4.3893,-4.3566,-4.3143,-4.2508,-4.2489,-4.2393,-4.2162,-4.1393,-4.0784,0.0,0.0,0.0,0.0,0.0,0.0,0.0,0.0,0.0,0.0,0.0,0.0,0.0,0.0,0.0,0.0,0.0,0.0,0.0,0.0,0.0,0.0,-4.3294,-4.4167,-4.5341,-4.6403,-4.7357,-4.8193,-4.8306,-4.8306,-4.8306,-4.9389,-5.0288,-5.0765,-5.1867,-5.2711,-5.3167,-5.3185,-5.3185,-5.3185,-5.3185,-5.3185,-5.3185,-5.161,-5.0802,-5.0784,-4.9114,-4.8306,-4.8306,-4.8306,-4.8306,-4.8306,-4.8306,-4.7388,-4.5902,-4.5902,-4.4947,0.0,0.0,0.0,0.0,0.0,-4.414,-4.414,-4.414,-4.4237,-4.4364,-4.4364,-4.4587,-4.4896,-4.4896,-4.5118,-4.54,-4.54,-4.5495,-4.5594,-4.5594,-4.5594,-4.5594,-4.5594,-4.5594,-4.5594,-4.5594,-4.5594,-4.5594,-4.5594,-4.5594,0.0,-4.5594,-4.5594,-4.5729,-4.6086,-4.5825,-4.5729,-4.6105,-4.5825,-4.5787,-4.6297,-4.6355,-4.6355,-4.6355,-4.6355,0.0,0.0,0.0,-4.322,-4.2374,-4.2335,0.0,0.0,0.0,0.0,0.0,0.0,0.0,0.0,-4.3048,-4.376,0.0,0.0,0.0,0.0,0.0,0.0,0.0,0.0,0.0,0.0,0.0,0.0,0.0,0.0,0.0,0.0,-4.3454,-4.4335,-4.4497,-4.5051,-4.6105,-4.7983,-4.8267,-4.8343,-4.8434,-4.9866,-5.0839,-5.093,-5.2344,-5.3185,-5.3185,-5.3185,0.0,0.0,0.0,-5.3185,-5.3185,-5.161,-5.0802,-5.0784,-4.9114,-4.8306,-4.8306,-4.8306,-4.8306,-4.8306,-4.8306,-4.7388,-4.5902,-4.5902,-4.4947,-4.3515,-4.3515,-4.3515,-4.3515,-4.3515,-4.3515,-4.3515,-4.3515,0.0,0.0,-4.394,-4.4204,-4.4527,-4.4527,-4.4769,-4.5052,-4.5052,-4.5253,-4.5495,-4.5495,-4.5495,-4.5504,-4.5522,-4.5531,-4.5559,-4.5586,-4.5594,-4.5594,-4.5594,-4.5594,-4.5594,-4.5594,-4.5594,-4.5855,-4.6644,-4.6105,-4.5883,-4.6644,-4.6086,-4.5633,-4.5748,0.0,0.0,-4.5748,-4.5748,-4.5671,-4.5479,-4.472,-4.397,-4.3258,-4.3239,-4.3566,-4.4297,-4.4201,-4.4162,-4.4162,-4.5037,-4.4682,-4.3247,-4.3528,-4.3948,0.0,0.0,0.0,0.0,0.0,0.0,0.0,0.0,0.0,0.0,0.0,0.0,0.0,0.0,0.0,-4.3943,-4.3824,-4.3978,-4.5122,-4.581,-4.6532,-4.7452,-4.7997,-4.8581,-4.928,-5.0233,-5.1077,-5.172,-5.2656,-5.3185,-5.3185,-5.3185,-5.3185,-5.3185,-5.3185,-5.3185,-5.3185,-5.161,-5.0802,-5.0784,-4.9114,0.0,-4.8306,-4.8306,-4.8306,-4.8306,-4.8306,-4.7388,-4.5902,-4.5902,-4.4947,-4.3515,-4.3515,-4.3515,-4.3515,-4.3515,-4.3515,-4.3515,-4.3515,-4.3548,-4.3597,-4.3597,-4.3836,-4.4117,-4.4117,-4.4387,0.0,-4.4714,-4.4732,-4.4781,-4.4781,-4.4781,-4.4872,-4.5129,-4.5201,-4.5263,-4.5531,-4.5594,-4.5594,-4.5594,-4.5594,-4.5594,-4.5594,-4.5594,-4.5671,-4.5825,-4.571,-4.5671,-4.5825,-4.571,-4.5883,-4.6567,-4.6644,-4.6644,-4.6644,-4.6644,-4.6047,-4.4643,-4.4393,-4.422,-4.4066,-4.4066,-4.4143,-4.4297,-4.3662,-4.3335,-4.3335,-4.4143,-4.4374,-4.4085,-4.4823,-4.4877,0.0,0.0,0.0,0.0,0.0,0.0,0.0,0.0,0.0,0.0,0.0,-4.1982,-4.2709,0.0,-4.3555,-4.3944,-4.3995,-4.4251,-4.4947,-4.5571,-4.6312,-4.7281,-4.7937,-4.8636,-4.9519,-5.0325,-5.1132,-5.194,-5.2747,-5.3185,-5.3185,-5.3185,-5.3185,-5.3185,-5.3185,-5.3023,-5.2601,-5.1408,-5.06,-5.0178,-4.8912,-4.8306,-4.8306,-4.8306,-4.8306,-4.8306,-4.8306,-4.7388,-4.5847,-4.5021,-4.4231,-4.3515,-4.3515,-4.3515,-4.3515,-4.3515,-4.3515,-4.3515,-4.3515,-4.3515,-4.3515,-4.3515,-4.3595,-4.3758,-4.3758,-4.402,-4.429,-4.429,-4.4447,-4.4593,-4.4593,-4.4593,-4.4631,-4.4812,-4.4849,-4.4896,-4.5055,-4.5232,-4.5342,-4.5342,-4.5485,-4.5594,-4.5594,-4.5594,-4.5594,-4.5594,-4.5594,-4.5594,-4.5594,-4.5594,-4.5768,-4.6201,-4.624,-4.624,-4.624,-4.624,-4.5874,-4.5017,-4.496,-4.4739,-4.4316,-4.4297,-4.4297,-4.4297,-4.3912,-4.3912,-4.4355,-4.4739,-4.496,-4.496,-4.5402,-4.5364,0.0,0.0,0.0,0.0,0.0,0.0,0.0,-4.0536,-4.0874,-4.2049,-4.2405,-4.2692,-4.3274,-4.4164,-4.4536,-4.3775,-4.4299,-4.4767,-4.4632,-4.5115,-4.5883,-4.691,-4.7677,-4.8574,-4.9719,-5.0417,-5.1206,-5.216,-5.2839,-5.3185,-5.3185,-5.3185,-5.3185,-5.3185,-5.3185,-5.2821,-5.1995,-5.1206,-5.0398,-4.9592,-4.8728,-4.8306,-4.8306,-4.8306,-4.8306,-4.8288,-4.7976,-4.7095,-4.5773,-4.4158,-4.3515,-4.3515,-4.3515,-4.3515,-4.3515,-4.3515,-4.3515,-4.3515,-4.3515,-4.3515,-4.3515,-4.3515,-4.3515,-4.3515,-4.3515,-4.3677,-4.3893,-4.3893,-4.4136,-4.4378,-4.4378,-4.4378,-4.4406,-4.4474,-4.4487,-4.4501,-4.458,-4.4806,-4.4988,-4.4988,-4.5222,-4.541,-4.541,-4.541,-4.5448,-4.5577,-4.5594,-4.5594,-4.5594,-4.5594,-4.5594,-4.5594,-4.5594,-4.5594,-4.5594,-4.5594,-4.5594,-4.5594,-4.5594,-4.5287,-4.4586,-4.4547,-4.4547,-4.4547,-4.4547,-4.4893,-4.5594,-4.5594,-4.5594,-4.5594,-4.5594,-4.5594,-3.6047,-3.7073,-3.7914,-3.9462,-4.0023,-4.0552,0.0,-4.2033,-4.2083,-4.2252,-4.2828,-4.3291,-4.3375,-4.4604,-4.5331,-4.4598,-4.5077,-4.5348,-4.4699,-4.5115,-4.5545,-4.5699,-4.6774,-4.8314,-5.0468,-5.0747,-5.1426,-5.2968,-5.3148,-5.3185,-5.3185,-5.3185,-5.3185,-5.3185,-5.3185,-5.2821,-5.1995,-5.1206,-5.0398,-4.9592,-4.8728,-4.8306,-4.8306,-4.8306,-4.8306,-4.8233,-4.6783,-4.6067,-4.5773,-4.4158,-4.3515,-4.3515,-4.3515,-4.3515,-4.3515,-4.3515,-4.3515,-4.3515,-4.3515,-4.3515,-4.3515,-4.3515,-4.3515,-4.3515,-4.3515,-4.3531,-4.3565,-4.3565,-4.358,-4.3631,-4.3631,-4.3631,-4.3695,-4.4001,-4.4076,-4.4161,-4.4527,-4.4618,-4.4663,-4.4663,-4.4701,-4.4707,-4.4707,-4.4707,-4.4919,-4.5513,-4.5594,-4.5594,-4.5594,-4.5594,-4.5594,-4.5594,-4.5594,-4.5594,-4.5594,-4.5594,-4.5594,-4.5594,-4.5594,-4.5556,-4.546,-4.546,-4.546,-4.546,-4.546,-4.5498,-4.5594,-4.5594,-4.5594,-4.5594,-4.5594,-4.5594,-3.5538,-3.6831,-3.7786,-3.8018,-3.8731,-3.9569,-4.0165,-4.0311,-4.0712,-4.202,-4.254,-4.3031,-4.3927,-4.4976,-4.5602,-4.528,-4.5855,-4.6075,-4.5331,-4.5478,-4.5586,-4.5511,-4.5982,-4.7328,-4.9967,-4.9777,-5.0545,-5.2999,-5.2766,-5.2711,-5.3167,-5.3185,-5.3185,-5.3185,-5.2747,-5.2123,-5.1316,-5.049,-4.9664,-4.8838,-4.8471,-4.8306,-4.8306,-4.8306,-4.8049,-4.7535,-4.6397,-4.5626,-4.5112,-4.3956,-4.3515,-4.3515,-4.3515,-4.3515,-4.3515,-4.3515,-4.3515,-4.3515,-4.3515,-4.3515,-4.3515,-4.3515,-4.3515,-4.3515,-4.3515,-4.3515,-4.3515,-4.3515,-4.3515,-4.3515,-4.3515,-4.3515,-4.3531,-4.3679,-4.371,-4.3758,-4.3931,-4.4106,-4.4247,-4.4247,-4.4447,-4.4593,-4.4593,-4.4593,-4.4714,-4.4977,-4.5171,-4.5312,-4.5312,-4.5485,-4.5594,-4.5594,-4.5594,-4.5594,-4.5594,-4.5594,-4.5594,-4.5594,-4.5594,-4.5594,-4.5594,-4.5594,-4.5594,-4.5594,-4.5594,-4.5594,-4.5594,-4.5594,-4.5594,-4.5594,-4.5594,-4.5594,-3.519,-3.6139,-3.6769,-3.6631,-3.7445,-3.8309,-3.8556,-3.8936,-3.9698,-4.1355,-4.2028,-4.2692,-4.4012,-4.5043,-4.5703,-4.5703,-4.6498,-4.6769,-4.5838,-4.5703,-4.5665,-4.5557,-4.5568,-4.6621,-4.9293,-4.8819,-4.9541,-5.2409,-5.2043,-5.2078,-5.286,-5.3082,-5.3093,-5.2894,-5.2307,-5.1499,-5.0472,-4.9904,-4.915,-4.8306,-4.8306,-4.8306,-4.8306,-4.8086,-4.7645,-4.7039,-4.6012,-4.5241,-4.4654,-4.3828,-4.3515,-4.3515,-4.3515,-4.3515,-4.3515,-4.3515,-4.3515,-4.3515,-4.3515,-4.3515,-4.3515,-4.3515,-4.3515,-4.3515,-4.3515,-4.3515,-4.3515,-4.3515,-4.3515,-4.3515,-4.3515,-4.3515,-4.3515,-4.3515,-4.3515,-4.3515,-4.3515,-4.3677,-4.3865,-4.3865,-4.4091,-4.4313,-4.4313,-4.4313,-4.4313,-4.4313,-4.4574,-4.4842,-4.4943,-4.5171,-4.5313,-4.5313,-4.5313,-4.5362,-4.5448,-4.5457,-4.5504,-4.5586,-4.5594,-4.5594,-4.5594,-4.5594,-4.5594,-4.5594,-4.5594,-4.5594,-4.5594,-4.5594,-4.5594,-4.5594,-4.5594,-4.5594,-3.531,-3.5058,-3.4919,-3.6276,-3.6661,-3.6874,-3.7677,-3.8983,-4.0095,-4.0144,-4.1291,-4.2523,-4.3318,-4.4688,-4.5703,-4.5703,-4.6938,-4.7348,-4.5906,-4.5703,-4.5703,-4.5698,-4.5698,-4.6539,-4.8726,-4.8194,-4.8682,-5.0986,-5.1096,-5.1357,-5.2082,-5.2809,-5.2839,-5.205,-5.1995,-5.1224,-4.9647,-4.961,-4.915,-4.8306,-4.8306,-4.8306,-4.8269,-4.748,-4.7113,-4.7003,-4.5406,-4.4709,-4.4654,-4.3828,-4.3515,-4.3515,-4.3515,-4.3515,-4.3515,-4.3515,-4.3515,-4.3515,-4.3515,-4.3515,-4.3515,-4.3515,-4.3515,-4.3515,-4.3515,-4.3515,-4.3515,-4.3515,-4.3515,-4.3515,-4.3515,-4.3515,-4.3515,-4.3515,-4.3515,-4.3515,-4.3515,-4.3515,-4.3513,-4.3513,-4.3513,-4.3531,-4.3531,-4.3531,-4.3531,-4.3531,-4.382,-4.4175,-4.4567,-4.4618,-4.4618,-4.4618,-4.4618,-4.4757,-4.5085,-4.5126,-4.5253,-4.5577,-4.5594,-4.5594,-4.5594,-4.5594,-4.5594,-4.5594,-4.5594,-4.5594,-4.5594,-4.5594,-4.5594,-4.5594,-4.5594,-4.5594,-3.4891,-3.4996,-3.5269,-3.5753,-3.5863,-3.607,-3.6828,-3.7407,-3.8224,-3.9773,-4.0873,-4.1944,-4.3158,-4.4671,-4.5872,-4.6346,-4.7276,-4.772,-4.7242,-4.7175,-4.6989,-4.6481,-4.643,-4.692,-4.8106,-4.7457,-4.8136,-5.0883,-5.0133,-5.0096,-5.1372,-5.122,-5.0946,-5.0677,-5.0077,-4.9477,-4.8932,-4.8789,-4.86,-4.8306,-4.8306,-4.8012,-4.748,-4.7223,-4.6526,-4.548,-4.4929,-4.4397,-4.3883,-4.3608,-4.3515,-4.3515,-4.3515,-4.3515,-4.3515,-4.3515,-4.3515,-4.3515,-4.3515,-4.3515,-4.3515,-4.3515,-4.3515,-4.3515,-4.3515,-4.3515,-4.3515,-4.3515,-4.3515,-4.3515,-4.3515,-4.3515,-4.3515,-4.3515,-4.3515,-4.3515,-4.3515,-4.3515,-4.3515,-4.3515,-4.3515,-4.3515,-4.3515,-4.3515,-4.3515,-4.3515,-4.3788,-4.415,-4.454,-4.4593,-4.4593,-4.4593,-4.4593,-4.465,-4.4763,-4.4776,-4.4825,-4.4931,-4.514,-4.5282,-4.5282,-4.5485,-4.5594,-4.5594,-4.5594,-4.5594,-4.5594,-4.5594,-4.5594,-4.5594,-4.5594,-4.5594,-3.4563,-3.4801,-3.519,-3.5444,-3.5504,-3.5619,-3.6117,-3.6415,-3.7029,-3.8541,-3.9883,-4.1165,-4.2378,-4.4299,-4.594,-4.6667,-4.7648,-4.8206,-4.7922,-4.7889,-4.7703,-4.7259,-4.7192,-4.7479,-4.824,-4.7534,-4.7976,-5.0175,-4.9424,-4.9381,-5.0646,-5.0257,-4.988,-4.9571,-4.874,-4.8142,-4.7815,-4.7702,-4.7738,-4.7977,-4.8191,-4.7865,-4.7094,-4.6801,-4.5938,-4.4673,-4.4397,-4.3975,-4.3515,-4.3515,-4.3515,-4.3515,-4.3515,-4.3515,-4.3515,-4.3515,-4.3515,-4.3515,-4.3515,-4.3515,-4.3515,-4.3515,-4.3515,-4.3515,-4.3515,-4.3515,-4.3515,-4.3515,-4.3515,-4.3515,-4.3515,-4.3515,-4.3515,-4.3515,-4.3515,-4.3515,-4.3515,-4.3515,-4.3515,-4.3515,-4.3515,-4.3515,-4.3515,-4.3515,-4.3515,-4.3515,-4.3677,-4.3912,-4.4165,-4.4213,-4.4213,-4.4213,-4.4213,-4.4252,-4.4378,-4.4392,-4.4447,-4.458,-4.4793,-4.4919,-4.4919,-4.5243,-4.5419,-4.5419,-4.555,-4.5594,-4.5594,-4.5594,-4.5594,-4.5594,-4.5594,-4.5594,-3.4307,-3.4533,-3.4713,-3.534,-3.5504,-3.5504,-3.5504,-3.6023,-3.6554,-3.6569,-3.8453,-4.032,-4.1007,-4.3628,-4.5889,-4.6616,-4.7953,-4.868,-4.8024,-4.7939,-4.7939,-4.7939,-4.7939,-4.824,-4.8934,-4.8376,-4.8257,-4.8951,-4.8918,-4.9145,-4.9861,-4.9863,-4.9452,-4.8675,-4.7964,-4.7185,-4.6359,-4.6365,-4.671,-4.7363,-4.7901,-4.7734,-4.6909,-4.614,-4.537,-4.4563,-4.3828,-4.3515,-4.3515,-4.3515,-4.3515,-4.3515,-4.3515,-4.3515,-4.3515,-4.3515,-4.3515,-4.3515,-4.3515,-4.3515,-4.3515,-4.3515,-4.3515,-4.3515,-4.3515,-4.3515,-4.3515,-4.3515,-4.3515,-4.3515,-4.3515,-4.3515,-4.3515,-4.3515,-4.3515,-4.3515,-4.3515,-4.3515,-4.3515,-4.3515,-4.3515,-4.3515,-4.3515,-4.3515,-4.3515,-4.3515,-4.3515,-4.3515,-4.3515,-4.3515,-4.3515,-4.3515,-4.3515,-4.3629,-4.394,-4.3971,-4.415,-4.4514,-4.4553,-4.4567,-4.4567,-4.4896,-4.5074,-4.5074,-4.541,-4.5577,-4.5577,-4.5586,-4.5594,-4.5594,-4.5594,-4.5594,-3.4286,-3.4846,-3.5295,-3.5459,-3.5504,-3.5504,-3.5504,-3.5651,-3.5958,-3.6508,-3.8451,-4.0096,-4.0346,-4.2842,-4.5111,-4.5855,-4.6752,-4.7682,-4.8595,-4.8731,-4.8731,-4.8731,-4.8731,-4.8798,-4.8984,-4.8832,-4.8798,-4.8984,-4.8472,-4.8252,-4.8439,-4.7911,-4.7255,-4.6518,-4.6204,-4.5941,-4.5732,-4.6167,-4.6501,-4.6664,-4.6239,-4.5648,-4.4857,-4.4556,-4.3972,-4.3211,-4.3431,-4.3515,-4.3515,-4.3515,-4.3515,-4.3515,-4.3515,-4.3515,-4.3515,-4.3515,-4.3515,-4.3515,-4.3515,-4.3515,-4.3515,-4.3515,-4.3515,-4.3515,-4.3515,-4.3515,-4.3515,-4.3515,-4.3515,-4.3515,-4.3515,-4.3515,-4.3515,-4.3515,-4.3515,-4.3515,-4.3515,-4.3515,-4.3515,-4.3515,-4.3515,-4.3515,-4.3515,-4.3515,-4.3515,-4.3515,-4.3515,-4.3515,-4.3515,-4.3515,-4.3515,-4.3515,-4.3515,-4.3531,-4.3612,-4.3631,-4.3679,-4.3775,-4.4001,-4.4146,-4.4146,-4.4508,-4.4739,-4.4739,-4.5063,-4.5222,-4.5222,-4.5485,-4.5594,-4.5594,-4.5594,-4.5594,-3.4267,-3.4981,-3.5504,-3.5504,-3.5504,-3.5579,-3.5863,-3.5938,-3.6129,-3.6814,-3.8495,-3.991,-3.9985,-4.218,-4.4338,-4.5503,-4.6283,-4.7267,-4.8771,-4.9001,-4.9001,-4.9001,-4.9001,-4.9001,-4.9001,-4.9001,-4.9001,-4.9001,-4.8629,-4.8227,-4.7906,-4.7192,-4.6464,-4.572,-4.5326,-4.5115,-4.5115,-4.5707,-4.5839,-4.5512,-4.5382,-4.4723,-4.3603,-4.3539,-4.3077,-4.2322,-4.262,-4.2753,-4.2753,-4.2753,-4.2753,-4.2753,-4.2753,-4.2903,-4.316,-4.316,-4.3286,-4.3515,-4.3515,-4.3515,-4.3515,-4.3515,-4.3515,-4.3515,-4.3515,-4.3515,-4.3515,-4.3515,-4.3515,-4.3515,-4.3515,-4.3515,-4.3515,-4.3515,-4.3515,-4.3515,-4.3515,-4.3515,-4.3515,-4.3515,-4.3515,-4.3515,-4.3515,-4.3515,-4.3515,-4.3515,-4.3515,-4.3515,-4.3515,-4.3515,-4.3368,-4.3002,-4.2965,-4.2965,-4.2965,-4.2965,-4.3112,-4.3478,-4.3679,-4.3772,-4.3772,-4.4136,-4.435,-4.435,-4.4695,-4.4943,-4.5096,-4.5292,-4.5467,-4.5594,-4.5594,-4.5594,-3.4164,-3.4944,-3.5504,-3.5504,-3.5504,-3.5684,-3.6342,-3.6492,-3.6656,-3.7285,-3.8635,-3.9715,-3.9749,-4.1421,-4.3378,-4.5077,-4.5896,-4.6888,-4.8584,-4.8923,-4.9001,-4.9001,-4.9001,-4.9001,-4.9001,-4.9001,-4.9001,-4.9001,-4.8917,-4.8545,-4.777,-4.7056,-4.6312,-4.5585,-4.4925,-4.4615,-4.4615,-4.5013,-4.4898,-4.4275,-4.4598,-4.4071,-4.2767,-4.2728,-4.2343,-4.1686,-4.1768,-4.181,-4.181,-4.181,-4.181,-4.181,-4.181,-4.2121,-4.2596,-4.2655,-4.2995,-4.341,-4.348,-4.3515,-4.3515,-4.3515,-4.3515,-4.3515,-4.3515,-4.3515,-4.3515,-4.3515,-4.3515,-4.3515,-4.3515,-4.3515,-4.3515,-4.3515,-4.3515,-4.3515,-4.3515,-4.3515,-4.3515,-4.3515,-4.3515,-4.3515,-4.3515,-4.3515,-4.3515,-4.3515,-4.3515,-4.3515,-4.3515,-4.3515,-4.3222,-4.2525,-4.2359,-4.2341,-4.2451,-4.2359,-4.2635,-4.346,-4.3515,-4.3515,-4.3515,-4.3772,-4.3924,-4.3924,-4.4304,-4.467,-4.4954,-4.5019,-4.5211,-4.5522,-4.5522,-4.5559,-3.3725,-3.4784,-3.5504,-3.5504,-3.5504,-3.5684,-3.6342,-3.6492,-3.6656,-3.7285,-3.8635,-3.9542,-3.9097,-4.0286,-4.1831,-4.3323,-4.4285,-4.5555,-4.7554,-4.8513,-4.9001,-4.9001,-4.9001,-4.9001,-4.9001,-4.9001,-4.9001,-4.9001,-4.8443,-4.7784,-4.7022,-4.6295,-4.5551,-4.479,-4.4682,-4.4615,-4.4615,-4.402,-4.3685,-4.3559,-4.2449,-4.1767,-4.1519,-4.1335,-4.1186,-4.1087,-4.1578,-4.181,-4.181,-4.181,-4.181,-4.181,-4.181,-4.1874,-4.2018,-4.2519,-4.2769,-4.2902,-4.3357,-4.3515,-4.3515,-4.3515,-4.3515,-4.3515,-4.3515,-4.3515,-4.3515,-4.3515,-4.3515,-4.3515,-4.3515,-4.3515,-4.3515,-4.3515,-4.3515,-4.3515,-4.3515,-4.3515,-4.3515,-4.3515,-4.3515,-4.3515,-4.3515,-4.3515,-4.3515,-4.3515,-4.3515,-4.3515,-4.3515,-4.3515,-4.346,-4.3296,-4.269,-4.2561,-4.3239,-4.2671,-4.2635,-4.346,-4.3515,-4.3515,-4.3515,-4.3565,-4.358,-4.358,-4.3927,-4.4132,-4.4204,-4.4521,-4.4861,-4.5191,-4.5191,-4.5332,-3.3702,-3.4725,-3.5504,-3.5504,-3.5504,-3.5759,-3.6746,-3.6971,-3.7255,-3.8257,-3.9028,-3.9458,-3.9248,-3.9741,-4.0946,-4.3379,-4.3378,-4.4334,-4.7844,-4.8004,-4.8077,-4.8889,-4.9001,-4.9001,-4.9001,-4.9001,-4.8849,-4.8477,-4.775,-4.7175,-4.6802,-4.5737,-4.4987,-4.4615,-4.4615,-4.4412,-4.3978,-4.3578,-4.3003,-4.2269,-4.1542,-4.1001,-4.062,-4.0539,-4.0473,-4.0497,-4.0791,-4.0932,-4.0932,-4.0932,-4.0932,-4.0932,-4.0932,-4.1082,-4.138,-4.1643,-4.1958,-4.2304,-4.2884,-4.3069,-4.3142,-4.341,-4.3515,-4.3515,-4.3515,-4.3515,-4.3515,-4.3515,-4.3515,-4.3515,-4.3515,-4.3515,-4.3515,-4.3515,-4.3515,-4.3515,-4.3515,-4.3515,-4.3515,-4.3515,-4.3515,-4.3515,-4.3515,-4.3515,-4.3515,-4.3515,-4.3515,-4.3515,-4.3515,-4.3515,-4.3332,-4.291,-4.2525,-4.2451,-4.2837,-4.2525,-4.2635,-4.346,-4.3515,-4.3515,-4.3515,-4.3515,-4.3515,-4.3515,-4.3662,-4.3836,-4.4001,-4.419,-4.4468,-4.4849,-4.503,-4.5191,-3.3768,-3.4725,-3.5504,-3.5504,-3.5504,-3.5833,-3.712,-3.7404,-3.7793,-3.9104,-3.9388,-3.945,-3.957,-3.9358,-4.015,-4.3089,-4.2744,-4.3456,-4.7355,-4.7272,-4.7271,-4.8541,-4.8688,-4.8798,-4.897,-4.8866,-4.8528,-4.7922,-4.7073,-4.6498,-4.6329,-4.5241,-4.4615,-4.4615,-4.4418,-4.4045,-4.3392,-4.3071,-4.2371,-4.1204,-4.1035,-4.0646,-4.0096,-4.0096,-4.0096,-4.0096,-4.0096,-4.0096,-4.0096,-4.0096,-4.0096,-4.0096,-4.0096,-4.0343,-4.0733,-4.0874,-4.1201,-4.1686,-4.2302,-4.25,-4.2578,-4.2995,-4.3303,-4.3515,-4.3515,-4.3515,-4.3515,-4.3515,-4.3515,-4.3515,-4.3515,-4.3515,-4.3515,-4.3515,-4.3515,-4.3515,-4.3515,-4.3515,-4.3515,-4.3515,-4.3515,-4.3515,-4.3515,-4.3515,-4.3515,-4.3515,-4.3515,-4.3515,-4.3515,-4.3515,-4.3259,-4.2616,-4.2396,-4.2378,-4.2543,-4.2396,-4.2635,-4.346,-4.3515,-4.3515,-4.3515,-4.3515,-4.3515,-4.3515,-4.3515,-4.3629,-4.3896,-4.3896,-4.4091,-4.4487,-4.4745,-4.4919,-3.3896,-3.4725,-3.5504,-3.5504,-3.5504,-3.5833,-3.712,-3.7404,-3.7793,-3.9104,-3.9388,-3.945,-3.957,-3.8998,-3.9028,-4.069,-4.2127,-4.3349,-4.4161,-4.614,-4.7556,-4.7721,-4.7737,-4.8047,-4.894,-4.8409,-4.7956,-4.7889,-4.6616,-4.55,-4.4852,-4.4682,-4.4615,-4.4615,-4.3893,-4.346,-4.3392,-4.2083,-4.1339,-4.1187,-4.051,-4.018,-4.0096,-4.0096,-4.0096,-4.0096,-4.0096,-4.0096,-4.0096,-4.0096,-4.0096,-4.0096,-4.0096,-4.0121,-4.0229,-4.0709,-4.0926,-4.1064,-4.1664,-4.1895,-4.1895,-4.1937,-4.2676,-4.3515,-4.3515,-4.3515,-4.3515,-4.3515,-4.3515,-4.3515,-4.3515,-4.3515,-4.3515,-4.3515,-4.3515,-4.3515,-4.3515,-4.3515,-4.3515,-4.3515,-4.3515,-4.3515,-4.3515,-4.3515,-4.3515,-4.3515,-4.3515,-4.3515,-4.3515,-4.3515,-4.3478,-4.3387,-4.2745,-4.2598,-4.3331,-4.2708,-4.2635,-4.346,-4.3515,-4.3515,-4.3515,-4.3515,-4.3515,-4.3515,-4.3515,-4.3513,-4.3548,-4.3548,-4.3726,-4.4061,-4.4087,-4.429,-3.2946,-3.3856,-3.4725,-3.5359,-3.5504,-3.5833,-3.712,-3.7404,-3.7793,-3.9104,-3.9388,-3.9406,-3.9461,-3.9204,-3.9521,-4.1079,-4.1453,-4.2283,-4.4518,-4.5223,-4.5846,-4.6832,-4.7448,-4.7718,-4.7511,-4.7749,-4.7517,-4.665,-4.5618,-4.4891,-4.4632,-4.4615,-4.4615,-4.4615,-4.3826,-4.32,-4.2743,-4.1728,-4.0984,-4.0527,-4.0248,-4.0096,-4.0096,-4.0096,-4.0096,-4.0096,-4.0096,-4.0096,-4.0096,-4.0096,-4.0096,-4.0096,-4.0096,-4.0096,-4.0121,-4.0343,-4.0417,-4.0497,-4.1064,-4.1268,-4.1335,-4.1686,-4.2124,-4.2542,-4.2902,-4.3014,-4.3105,-4.341,-4.3515,-4.3515,-4.3515,-4.3515,-4.3427,-4.3105,-4.3014,-4.2921,-4.2562,-4.2483,-4.2483,-4.2483,-4.2771,-4.3014,-4.3014,-4.3304,-4.3515,-4.3515,-4.3515,-4.3515,-4.3515,-4.3515,-4.3515,-4.3515,-4.3221,-4.3149,-4.3478,-4.3221,-4.3149,-4.3478,-4.3515,-4.3515,-4.3515,-4.3515,-4.3515,-4.3515,-4.3515,-4.3515,-4.3515,-4.3515,-4.3563,-4.3693,-4.3912,-4.4106,-3.272,-3.3484,-3.4245,-3.5246,-3.5654,-3.6088,-3.7165,-3.7554,-3.8018,-3.9149,-3.9388,-3.9388,-3.9388,-3.9388,-3.976,-4.0918,-4.0929,-4.1623,-4.3981,-4.4134,-4.4498,-4.5835,-4.6422,-4.6631,-4.6502,-4.6929,-4.6735,-4.5466,-4.4874,-4.4615,-4.4615,-4.435,-4.4231,-4.4231,-4.3487,-4.2726,-4.1982,-4.1238,-4.0595,-4.0096,-4.0096,-4.0096,-4.0096,-4.0096,-4.0096,-4.0096,-4.0096,-4.0096,-4.0096,-4.0096,-4.0096,-4.0096,-4.0096,-4.0096,-4.0096,-4.0096,-4.0096,-4.0146,-4.0528,-4.0655,-4.0726,-4.115,-4.1308,-4.1397,-4.1979,-4.2302,-4.2519,-4.2884,-4.2996,-4.2996,-4.2996,-4.2996,-4.2903,-4.2521,-4.2422,-4.2322,-4.1895,-4.181,-4.181,-4.181,-4.2142,-4.2422,-4.2422,-4.2902,-4.3268,-4.3268,-4.3392,-4.3515,-4.3515,-4.3515,-4.3515,-4.3515,-4.3515,-4.3515,-4.3515,-4.3515,-4.3515,-4.3515,-4.3515,-4.3515,-4.3515,-4.3515,-4.3515,-4.3515,-4.3515,-4.3515,-4.3515,-4.3515,-4.3515,-4.3515,-4.3742,-4.3912,-3.3619,-3.3993,-3.4245,-3.5246,-3.5998,-3.6641,-3.727,-3.7913,-3.8571,-3.9275,-3.9388,-3.9388,-3.9388,-3.9388,-3.9424,-3.9424,-4.0751,-4.1694,-4.1453,-4.2805,-4.408,-4.4756,-4.4251,-4.4539,-4.6323,-4.6026,-4.5415,-4.4682,-4.4615,-4.4615,-4.4615,-4.3859,-4.3409,-4.3409,-4.2692,-4.1948,-4.1221,-4.0485,-4.0113,-4.0096,-4.0096,-4.0096,-4.0096,-4.0096,-4.0096,-4.0096,-4.0096,-4.0096,-4.0096,-4.0096,-4.0096,-4.0096,-4.0096,-4.0096,-4.0096,-4.0096,-4.0096,-4.0096,-4.0113,-4.0096,-4.0096,-4.0138,-4.0121,-4.0229,-4.0774,-4.1335,-4.181,-4.1832,-4.1832,-4.1832,-4.1832,-4.1832,-4.1832,-4.181,-4.181,-4.181,-4.181,-4.181,-4.181,-4.181,-4.181,-4.181,-4.181,-4.2302,-4.2711,-4.2711,-4.316,-4.3515,-4.3515,-4.3515,-4.3515,-4.3515,-4.3515,-4.3515,-4.3515,-4.3515,-4.3515,-4.3515,-4.3515,-4.3515,-4.3515,-4.3515,-4.3515,-4.3515,-4.3515,-4.3515,-4.3515,-4.3515,-4.3515,-4.3515,-4.3496,-4.3677,-3.2785,-3.3725,-3.4494,-3.5528,-3.6463,-3.7285,-3.7928,-3.8242,-3.8586,-3.9239,-3.9388,-3.9388,-3.9388,-3.9388,-3.9388,-3.9388,-4.0188,-4.1013,-4.1536,-4.2844,-4.3969,-4.4598,-4.4072,-4.3807,-4.4154,-4.3554,-4.3307,-4.3667,-4.371,-4.3977,-4.457,-4.3842,-4.3392,-4.3392,-4.2202,-4.1441,-4.1204,-4.0485,-4.0096,-4.0096,-4.0096,-4.0096,-4.0096,-4.0096,-4.0096,-4.0096,-4.0096,-4.0096,-4.0096,-4.0096,-4.0096,-4.0096,-4.0096,-4.0096,-4.0096,-4.0096,-4.0096,-4.0096,-4.0096,-4.0096,-4.0096,-4.0096,-4.0096,-4.0121,-4.0311,-4.075,-4.1268,-4.1686,-4.181,-4.181,-4.181,-4.181,-4.1703,-4.1273,-4.1161,-4.1064,-4.072,-4.0642,-4.0642,-4.0642,-4.092,-4.1161,-4.1161,-4.1686,-4.2062,-4.2062,-4.2578,-4.2958,-4.2958,-4.3268,-4.3515,-4.3515,-4.3515,-4.3515,-4.3515,-4.3515,-4.3515,-4.3515,-4.3515,-4.3515,-4.3515,-4.3515,-4.3515,-4.3515,-4.3515,-4.3515,-4.3515,-4.3515,-4.3515,-4.3515,-4.3515,-4.3565,-3.3129,-3.4176,-3.5232,-3.6228,-3.7118,-3.7883,-3.8287,-3.8601,-3.8901,-3.9334,-3.9388,-3.9388,-3.9388,-3.9388,-3.9388,-3.9388,-3.9768,-4.0407,-4.1443,-4.2524,-4.3364,-4.3724,-4.3494,-4.2992,-4.227,-4.2075,-4.2237,-4.2785,-4.2816,-4.2947,-4.3223,-4.2505,-4.2104,-4.216,-4.1529,-4.1068,-4.0781,-4.0333,-4.0096,-4.0096,-4.0096,-4.0096,-4.0096,-4.0096,-4.0096,-4.0096,-4.0096,-4.0096,0.0,-4.0096,-4.0096,-4.0096,-4.0096,-4.0096,-4.0096,-4.0096,-4.0096,-4.0096,-4.0096,-4.0096,-4.0096,-4.0096,-4.0096,-4.0096,-4.0096,-4.0336,-4.0696,-4.1036,-4.1168,-4.1168,-4.1168,-4.1168,-4.1059,-4.0679,-4.0601,-4.0521,-4.0154,-4.0096,-4.0096,-4.0096,-4.0368,-4.0601,-4.0601,-4.1099,-4.1486,-4.1468,-4.1979,-4.2362,-4.2362,-4.2657,-4.294,-4.3178,-4.3196,-4.3268,-4.3479,-4.3515,-4.3515,-4.3515,-4.3515,-4.3515,-4.3515,-4.3515,-4.3515,-4.3515,-4.3515,-4.3515,-4.3515,-4.3515,-4.3515,-4.3515,-4.3515,-4.3515,0.0,-3.5359,-3.6344,-3.7213,-3.7933,-3.8467,-3.8467,-3.896,0.0,-3.9388,-3.9388,-3.9388,-3.9448,-3.9418,-3.9454,-3.9544,-3.9448,-3.9888,-4.1265,-4.2051,-4.2425,-4.2336,-4.2489,-4.2083,-4.0727,-4.1346,-4.1836,-4.1901,-4.1853,-4.1598,-4.1021,-4.0252,-3.9876,-4.0017,-4.0628,-4.0678,-4.0113,-4.0096,-4.0096,-4.0096,-4.0096,-4.0096,-4.0096,-4.0096,-4.0096,-4.0096,-4.0096,-4.0096,-4.0096,-4.0096,-4.0096,-4.0096,-4.0096,-4.0096,-4.0096,-4.0096,-4.0096,-4.0096,-4.0096,-4.0096,-4.0096,-4.0096,-4.0096,-4.0096,-4.0096,-4.0096,-4.0096,-4.0096,-4.0096,-4.0096,-4.0096,-4.0096,-4.0096,-4.0096,-4.0096,-4.0096,-4.0096,-4.0096,-4.0096,-4.0096,-4.0096,-4.0096,-4.0096,-4.0556,-4.0926,-4.085,-4.1358,-4.1746,-4.1746,-4.1771,-4.2,-4.2577,-4.2635,-4.2864,-4.3392,-4.3479,-4.3515,-4.3515,-4.3515,-4.3515,-4.3515,-4.3515,-4.3515,-4.3515,-4.3515,-4.3515,-4.3515,-4.3515,-4.3515,-4.3515,-4.3515,-4.3515,-3.6983,0.0,-3.742,-3.7657,-3.8428,-3.917,0.0,-3.9305,-3.9388,-3.9388,-3.9388,-3.9574,-4.0083,-3.9768,-3.9753,-4.0756,-4.0083,-4.0053,-4.1916,-4.2701,-4.2731,-4.1767,-4.1686,-4.1165,-3.9838,-3.99,-4.0289,-4.0946,-4.0528,-4.0447,-4.0958,-3.9818,-3.9154,-3.9169,-3.8796,-3.9095,-4.007,-4.0096,-4.0096,-4.0096,-4.0096,-4.0096,-4.0096,-4.0096,-4.0096,-4.0096,-4.0096,-4.0096,-4.0096,-4.0096,-4.0096,-4.0096,-4.0096,-4.0096,-4.0096,-4.0096,-4.0096,-4.0096,-4.0096,-4.0096,-4.0096,-4.0096,-4.0096,-4.0096,-4.0096,-4.0096,-4.0096,-4.0096,-4.0096,-4.0096,-4.0096,-4.0096,-4.0096,-4.0096,-4.0096,-4.0096,-4.0096,-4.0096,-4.0096,-4.0096,-4.0096,-4.0096,-4.0096,-4.0221,-4.0303,-4.0286,-4.075,-4.111,-4.111,-4.1512,-4.1853,-4.2018,-4.2,-4.2244,-4.2845,-4.3268,-4.3515,-4.3515,-4.3515,-4.3515,-4.3515,-4.3515,-4.3515,-4.3515,-4.3515,-4.3515,-4.3515,-4.3515,-4.3515,-4.3515,-4.3515,-4.3515,-3.7548,-3.8362,-3.8986,-3.8986,-3.9424,-3.9873,-3.9873,-3.9634,-3.9388,-3.9388,-3.9388,-3.9493,-3.9888,-3.9903,-4.0113,-4.0816,-4.0591,-4.0801,-4.2201,-4.2671,-4.2521,-4.1542,-4.1115,-4.0531,-3.9514,-3.9388,-3.9474,-3.9623,-3.9306,-3.9054,-3.8929,-3.8215,-3.781,-3.7845,-3.7468,-3.7819,-3.9022,-3.9385,-3.9542,-3.9542,-3.9927,-4.0096,-4.0096,-4.0096,-4.0096,-4.0096,-4.0096,-4.0096,-4.0096,-4.0096,-4.0096,-4.0096,-4.0096,-4.0096,-4.0096,-4.0096,-4.0096,-4.0096,-4.0096,-4.0096,-4.0096,-4.0096,-4.0096,-4.0096,-4.0096,-4.0096,-4.0096,-4.0096,-4.0096,-4.0096,-4.0096,-4.0096,-4.0096,-4.0096,-4.0096,-4.0096,-4.0096,-4.0096,-4.0096,-4.0096,-4.0096,-4.0096,-4.0096,-4.0096,-4.0096,-4.0096,-4.0343,-4.0528,-4.0528,-4.0838,-4.1105,-4.1358,-4.138,-4.1621,-4.2241,-4.2542,-4.294,-4.3462,-4.3515,-4.3515,-4.3515,-4.3515,-4.3515,-4.3515,-4.3515,-4.3515,-4.3515,-4.3515,-4.3515,-4.3515,-4.3515,-4.3515,-3.7074,-3.8757,-4.0009,-4.0018,-4.0085,-4.0167,-4.0225,-3.9689,-3.9177,-3.9373,-3.9388,-3.9412,-3.9445,-3.9972,-4.042,-4.0427,-4.0957,-4.1542,-4.1901,-4.2036,-4.1856,-4.116,-4.0591,-4.0023,-3.9469,-3.9334,-3.902,-3.8437,-3.8212,-3.7629,-3.6552,-3.6387,-3.6356,-3.643,-3.6446,-3.6768,-3.7442,-3.8302,-3.8745,-3.8745,-3.9558,-3.9927,-3.9927,-4.0045,-4.0096,-4.0096,-4.0096,0.0,-4.0096,-4.0096,-4.0096,-4.0096,-4.0096,-4.0096,-4.0096,-4.0096,-4.0096,-4.0096,-4.0096,-4.0096,-4.0096,-4.0096,-4.0096,-4.0096,-4.0096,-4.0096,-4.0096,-4.0096,-4.0096,-4.0096,-4.0096,-4.0096,-4.0096,-4.0096,-4.0096,-4.0096,-4.0096,-4.0096,-4.0096,-4.0096,-4.0096,-4.0096,-4.0096,-4.0096,-4.0096,-4.0096,-4.0096,-4.0096,-4.0096,-4.0096,-4.0262,-4.0733,-4.078,-4.1036,-4.1599,-4.1664,-4.2106,-4.316,-4.3321,-4.341,-4.3497,-4.3515,-4.3515,-4.3515,-4.3515,-4.3515,-4.3515,-4.3515,-4.3515,-4.3515,-4.3515,-4.3515,-3.6369,-3.7402,-3.8327,-3.8246,-3.862,-3.9124,-3.9496,-3.8767,-3.8308,-3.9228,-3.9388,-3.9431,-3.9552,-4.0012,-4.0441,-4.0564,-4.1047,-4.1025,-4.0008,-4.0352,-4.0457,-3.9798,-3.9634,-3.9493,-3.9388,-3.8901,-3.8497,-3.8407,-3.7389,-3.6686,-3.6492,-3.5953,-3.5659,-3.5683,-3.5668,-3.5733,-3.5861,-3.7265,-3.7978,-3.7978,-3.8718,-3.9086,-3.9113,-3.9782,-4.0096,-4.0096,0.0,-4.0096,-4.0096,-4.0096,-4.0096,-4.0096,-4.0096,-4.0096,-4.0096,-4.0096,-4.0096,-4.0096,-4.0096,-4.0096,-4.0096,-4.0096,-4.0096,-4.0096,-4.0096,-4.0096,-4.0096,-4.0096,-4.0096,-4.0096,-4.0096,-4.0096,-4.0096,-4.0096,-4.0096,-4.0096,-4.0096,-4.0096,-4.0096,-4.0096,-4.0096,-4.0096,-4.0096,-4.0096,-4.0096,-4.0096,-4.0096,-4.0096,-4.0096,-4.0096,-4.0121,-4.0204,-4.0229,-4.0424,-4.0995,-4.1041,-4.1335,-4.2021,-4.2541,-4.3032,-4.3479,-4.3515,-4.3515,-4.3515,-4.3515,-4.3515,-4.3515,-4.3515,-4.3515,-4.3515,-4.3515,-4.3515,-3.5238,-3.6034,-3.6617,-3.6234,-3.7515,-3.8883,-3.9096,-3.8221,-3.7582,-3.8063,-3.7892,-3.7782,-3.818,-3.8481,-3.8989,-3.9989,-4.0866,-4.1055,-4.0083,-4.0217,-4.0157,-3.9499,-3.9388,-3.9275,-3.8901,-3.8571,-3.8108,-3.7419,-3.6821,-3.6327,-3.5968,-3.5669,-3.5504,-3.5504,-3.5504,-3.5504,-3.5504,-3.6196,-3.6768,-3.7144,-3.7933,-3.8318,-3.833,-3.9102,-3.9463,-3.9489,0.0,-4.0096,-4.0096,-4.0096,-4.0096,-4.0096,-4.0096,-4.0096,-4.0096,-4.0096,-4.0096,-4.0096,-4.0096,-4.0096,-4.0096,-4.0096,-4.0096,-4.0096,-4.0096,-4.0096,-4.0096,-4.0096,-4.0096,-4.0096,-4.0096,-4.0096,-4.0096,-4.0096,-4.0096,-4.0096,-4.0096,-4.0096,-4.0096,-4.0096,-4.0096,-4.0096,-4.0096,-4.0096,-4.0096,-4.0096,-4.0096,-4.0096,-4.0096,-4.0096,-4.0096,-4.0096,-4.0096,-4.0204,-4.0449,-4.0473,-4.0844,-4.1729,-4.2059,-4.2462,-4.3032,-4.3087,-4.3214,-4.3479,-4.3515,-4.3515,-4.3515,-4.3515,-4.3515,-4.3515,-4.3515,-4.3515,-3.4108,-3.4763,-3.5064,-3.4447,-3.6159,-3.7975,-3.8227,-3.7277,-3.6428,-3.6821,-3.6503,-3.6312,-3.6661,-3.6784,-3.7505,-3.9623,-4.0283,-4.0464,-4.0195,-4.0172,-3.9933,-3.926,-3.9185,-3.8916,-3.8227,-3.8033,-3.7539,-3.6552,-3.6342,-3.6028,-3.5534,-3.5504,-3.5504,-3.5504,-3.5504,-3.5504,-3.5504,-3.5504,-3.5782,-3.6368,-3.713,-3.7515,-3.7544,-3.8302,-3.8635,-3.8663,-3.9305,-3.9558,-3.9558,-3.9558,-3.9679,-3.9808,-3.9808,-3.9927,-4.0096,-4.0096,-4.0096,-4.0096,-4.0096,-4.0096,-4.0096,-4.0096,-4.0096,-4.0096,-4.0096,-4.0096,-4.0096,-4.0096,-4.0096,-4.0096,-4.0096,-4.0096,-4.0096,-4.0096,-4.0096,-4.0096,-4.0096,-4.0096,-4.0096,-4.0096,-4.0096,-4.0096,-4.0096,-4.0096,-4.0096,-4.0096,-4.0096,-4.0096,-4.0096,-4.0096,-4.0096,-4.0096,-4.0096,-4.0096,-4.0096,-4.0096,-4.0466,-4.1353,-4.1643,-4.2018,-4.248,-4.248,-4.2751,-4.3303,-4.3303,-4.3375,-4.3515,-4.3515,-4.3515,-4.3515,-4.3515,-4.3515,-3.3197,-3.36,-3.389,-3.3336,-3.4157,-3.5316,-3.6206,-3.5156,-3.446,-3.5959,-3.6225,-3.6072,-3.5696,-3.5606,-3.6675,-3.9852,-3.9073,-3.8387,-3.9339,-3.9448,-3.923,-3.8542,-3.8467,-3.8197,-3.7539,-3.6971,-3.6582,-3.6492,-3.5923,-3.5549,-3.5504,-3.5504,-3.5504,-3.5504,-3.5504,-3.5504,-3.5504,-3.5504,-3.5537,-3.5587,-3.6337,-3.6691,-3.6691,-3.7499,-3.7863,-3.7892,-3.7921,-3.7966,-3.7966,-3.7966,-3.8374,-3.9005,-3.9005,-3.9437,-4.0096,-4.0096,-4.0096,-4.0096,-4.0096,-4.0096,-4.0096,-4.0096,-4.0096,-4.0096,-4.0096,-4.0096,-4.0096,-4.0096,-4.0096,-4.0096,-4.0096,-4.0096,-4.0096,-4.0096,-4.0096,-4.0096,-4.0096,-4.0096,-4.0096,-4.0096,-4.0096,-4.0096,-4.0096,-4.0096,-4.0096,-4.0096,-4.0096,-4.0096,-4.0096,-4.0096,-4.0096,-4.0096,-4.0096,-4.0096,-4.0096,-4.0096,-4.0121,-4.0204,-4.1218,-4.1832,-4.1874,-4.1874,-4.2142,-4.275,-4.2769,-4.2995,-4.3515,-4.3515,-4.3515,-4.3515,-4.3515,-4.3515,-3.2441,-3.2692,-3.2805,-3.2591,-3.2586,-3.3029,-3.4451,-3.4017,-3.3617,-3.4595,-3.4497,-3.4202,-3.4024,-3.4845,-3.5822,-3.6733,-3.7398,-3.7956,-3.8345,-3.8625,-3.8676,-3.8422,-3.8033,-3.7524,-3.6896,-3.6626,-3.6312,-3.5908,-3.5639,-3.5504,-3.5504,-3.5504,-3.5504,-3.5504,-3.5504,-3.5504,-3.5504,-3.5504,-3.5504,-3.5504,-3.5782,-3.5926,-3.5943,-3.6722,-3.7054,-3.7084,-3.7573,-3.7793,-3.7793,-3.7793,-3.795,-3.8246,-3.8718,-3.9394,-4.0096,-4.0096,-4.0096,-4.0096,-4.0096,-4.0096,-4.0096,-4.0096,-4.0096,-4.0096,-4.0096,-4.0096,-4.0096,-4.0096,-4.0096,-4.0096,-4.0096,-4.0096,-4.0096,-4.0096,-4.0096,-4.0096,-4.0096,-4.0096,-4.0096,-4.0096,-4.0096,-4.0096,-4.0096,-4.0096,-4.0096,-4.0096,-4.0096,-4.0096,-4.0096,-4.0096,-4.0096,-4.0096,-4.0096,-4.0096,-4.0096,-4.0096,-4.0096,-4.0096,-4.0514,-4.0891,-4.1223,-4.1246,-4.1534,-4.2142,-4.2142,-4.2244,-4.2426,-4.2827,-4.2995,-4.3014,-4.3339,-4.3515,-3.2114,-3.234,-3.2441,-3.2252,-3.1926,-3.1951,-3.3106,-3.2943,-3.2754,-3.3483,-3.3194,-3.2983,-3.353,-3.4078,-3.4622,-3.5087,-3.5955,-3.6777,-3.7399,-3.7579,-3.7658,-3.7774,-3.7389,-3.6866,-3.6237,-3.6178,-3.5983,-3.5534,-3.5504,-3.5504,-3.5504,-3.5504,-3.5504,-3.5504,-3.5504,-3.5504,-3.5504,-3.5504,-3.5504,-3.5504,-3.5504,-3.5504,-3.5537,-3.6023,-3.6244,-3.6275,-3.6814,-3.7055,-3.7055,-3.7055,-3.7205,-3.7515,-3.8274,-3.8897,-3.9358,-3.9358,-3.9532,-3.9731,-3.9731,-3.9901,-4.0096,-4.0096,-4.0096,-4.0096,-4.0096,-4.0096,-4.0096,-4.0096,-4.0096,-4.0096,-4.0096,-4.0096,-4.0096,-4.0096,-4.0096,-4.0096,-4.0096,-4.0096,-4.0096,-4.0096,-4.0096,-4.0096,-4.0096,-4.0096,-4.0096,-4.0096,-4.0096,-4.0096,-4.0096,-4.0096,-4.0096,-4.0096,-4.0096,-4.0096,-4.0096,-4.0096,-4.0096,-4.0096,-4.0096,-4.0262,-4.0631,-4.0655,-4.092,-4.1512,-4.1512,-4.1599,-4.181,-4.2203,-4.242,-4.244,-4.2995,-4.325,-3.2202,-3.2616,-3.2918,-3.234,-3.2202,-3.2202,-3.2202,-3.1788,-3.1712,-3.2885,-3.2616,-3.2701,-3.4352,-3.3309,-3.3036,-3.5731,-3.4834,-3.4482,-3.6488,-3.6324,-3.6087,-3.6451,-3.6477,-3.6222,-3.5564,-3.5504,-3.5504,-3.5504,-3.5504,-3.5504,-3.5504,-3.5504,-3.5504,-3.5504,-3.5504,-3.5504,-3.5504,-3.5504,-3.5504,-3.5504,-3.5504,-3.5504,-3.5504,-3.5504,-3.5504,-3.5504,-3.5504,-3.5504,-3.5504,-3.5504,-3.5911,-3.6661,-3.7485,-3.7777,-3.7793,-3.7793,-3.8246,-3.8881,-3.8881,-3.9411,-4.007,-4.007,-4.0096,-4.0096,-4.0096,-4.0096,-4.0096,-4.0096,-4.0096,-4.0096,-4.0096,-4.0096,-4.0096,-4.0096,-4.0096,-4.0096,-4.0096,-4.0096,-4.0096,-4.0096,-4.0096,-4.0096,-4.0096,-4.0096,-4.0096,-4.0096,-4.0096,-4.0096,-4.0096,-4.0096,-4.0096,-4.0096,-4.0096,-4.0096,-4.0096,-4.0096,-4.0096,-4.0096,-4.0096,-4.0096,-4.0096,-4.0096,-4.0343,-4.088,-4.088,-4.1201,-4.1771,-4.1789,-4.1789,-4.181,-4.242,-4.2692,-3.1537,-3.1486,-3.1386,-3.1587,-3.1637,-3.1637,-3.1637,-3.1813,-3.2177,-3.2918,-3.2616,-3.2336,-3.2864,-3.2237,-3.1921,-3.2688,-3.3053,-3.3461,-3.4057,-3.4228,-3.4583,-3.5369,-3.5015,-3.493,-3.5454,-3.5504,-3.5504,-3.5504,-3.5504,-3.5504,-3.5504,-3.5504,-3.5504,-3.5504,-3.5504,-3.5504,-3.5504,-3.5504,-3.5504,-3.5504,-3.5504,-3.5504,-3.5504,-3.5504,-3.5504,-3.5504,-3.5504,-3.5504,-3.5504,-3.5504,-3.5911,-3.66,-3.6843,-3.7293,-3.7793,-3.7793,-3.7921,-3.8121,-3.8121,-3.8608,-3.9262,-3.9262,-3.9636,-4.0096,-4.0096,-4.0096,-4.0096,-4.0096,-4.0096,-4.0096,-4.0096,-4.0096,-4.0096,-4.0096,-4.0096,-4.0096,-4.0096,-4.0096,-4.0096,-4.0096,-4.0096,-4.0096,-4.0096,-4.0096,-4.0096,-4.0096,-4.0096,-4.0096,-4.0096,-4.0096,-4.0096,-4.0096,-4.0096,-4.0096,-4.0096,-4.0096,-4.0096,-4.0096,-4.0096,-4.0096,-4.0096,-4.0096,-4.0154,-4.0319,-4.0336,-4.0417,-4.0594,-4.099,-4.1178,-4.1178,-4.1789,-4.208,-3.1248,-3.116,-3.1047,-3.1587,-3.1725,-3.1775,-3.2001,-3.2315,-3.2591,-3.2704,-3.2277,-3.1888,-3.1888,-3.1449,-3.1148,-3.1361,-3.1762,-3.2189,-3.2553,-3.2619,-3.3001,-3.3946,-3.3676,-3.3822,-3.4806,-3.4905,-3.5067,-3.5472,-3.5504,-3.5504,-3.5504,-3.5504,-3.5504,-3.5504,-3.5504,-3.5504,-3.5504,-3.5504,-3.5504,-3.5504,-3.5504,-3.5504,-3.5504,-3.5504,-3.5504,-3.5504,-3.5504,-3.5504,-3.5504,-3.5504,-3.575,-3.6165,-3.6165,-3.6477,-3.689,-3.689,-3.7086,-3.7338,-3.7338,-3.7819,-3.8469,-3.8469,-3.8978,-3.961,-3.961,-3.985,-4.0096,-4.0096,-4.0096,-4.0096,-4.0096,-4.0096,-4.0096,-4.0096,-4.0096,-4.0096,-4.0096,-4.0096,-4.0096,-4.0096,-4.0096,-4.0096,-4.0096,-4.0096,-4.0096,-4.0096,-4.0096,-4.0096,-4.0096,-4.0096,-4.0096,-4.0096,-4.0096,-4.0096,-4.0096,-4.0096,-4.0096,-4.0096,-4.0096,-4.0096,-4.0096,-4.0096,-4.0096,-4.0096,-4.0096,-4.0096,-4.0096,-4.0424,-4.0577,-4.0601,-4.1155,-4.1446,-3.1248,-3.1323,-3.1386,-3.1989,-3.2177,-3.2353,-3.288,-3.3006,-3.2855,-3.2328,-3.1738,-3.1323,-3.1323,-3.0896,-3.0696,-3.1173,-3.0846,-3.0823,-3.1679,-3.1373,-3.1426,-3.2357,-3.2464,-3.2855,-3.3774,-3.3959,-3.4394,-3.5279,-3.5439,-3.5504,-3.5504,-3.5504,-3.5504,-3.5504,-3.5504,-3.5504,-3.5504,-3.5504,-3.5504,-3.5504,-3.5504,-3.5504,-3.5504,-3.5504,-3.5504,-3.5504,-3.5504,-3.5504,-3.5504,-3.5504,-3.5504,-3.5504,-3.5504,-3.5504,-3.5504,-3.5504,-3.5911,-3.6492,-3.6492,-3.701,-3.769,-3.769,-3.8189,-3.8799,-3.8799,-3.9315,-3.9876,-3.9876,-3.9876,-3.9901,-3.9978,-3.9978,-4.002,-4.007,-4.0096,-4.0096,-4.0096,-4.0096,-4.0096,-4.0096,-4.0096,-4.0096,-4.0096,-4.0096,-4.0096,-4.0096,-4.0096,-4.0096,-4.0096,-4.0096,-4.0096,-4.0096,-4.0096,-4.0096,-4.0096,-4.0096,-4.0096,-4.0096,-4.0096,-4.0096,-4.0096,-4.0096,-4.0096,-4.0096,-4.0096,-4.0096,-4.0096,-4.0096,-4.0096,-4.0121,-4.0601,-4.0827,-3.1248,-3.0783,-3.0369,-3.1323,-3.1888,-3.224,-3.2365,-3.2403,-3.2365,-3.224,-3.1449,-3.0783,-3.0783,-3.0331,-3.0005,-3.0118,-3.0043,-3.0033,-3.0253,-3.0177,-3.0457,-3.1389,-3.1499,-3.1852,-3.282,-3.3567,-3.4095,-3.4312,-3.5052,-3.5504,-3.5504,-3.5504,-3.5504,-3.5504,-3.5504,-3.5504,-3.5504,-3.5504,-3.5504,-3.5504,-3.5504,-3.5504,-3.5504,-3.5504,-3.5504,-3.5504,-3.5504,-3.5504,-3.5504,-3.5504,-3.5504,-3.5504,-3.5504,-3.5504,-3.5504,-3.5504,-3.5619,-3.5718,-3.5718,-3.6228,-3.6859,-3.6859,-3.7381,-3.8035,-3.8035,-3.8149,-3.829,-3.829,-3.829,-3.843,-3.9005,-3.9166,-3.9315,-3.9952,-4.0096,-4.0096,-4.0096,-4.0096,-4.0096,-4.0096,-4.0096,-4.0096,-4.0096,-4.0096,-4.0096,-4.0096,-4.0096,-4.0096,-4.0096,-4.0096,-4.0096,-4.0096,-4.0096,-4.0096,-4.0096,-4.0096,-4.0096,-4.0096,-4.0096,-4.0096,-4.0096,-4.0096,-4.0096,-4.0096,-4.0096,-4.0096,-4.0096,-4.0096,-4.0096,-4.0096,-4.0229,-4.0262,-3.0947,-3.0608,-3.0319,-3.0884,-3.1424,-3.1813,-3.1813,-3.1625,-3.1449,-3.1449,-3.1009,-3.0532,-3.0269,-2.9993,-2.9792,-2.9792,-2.9792,-2.9792,-2.9792,-2.9792,-2.9972,-3.0482,-3.052,-3.0908,-3.1852,-3.2393,-3.3031,-3.391,-3.4476,-3.4986,-3.5472,-3.5504,-3.5504,-3.5504,-3.5504,-3.5504,-3.5504,-3.5504,-3.5504,-3.5504,-3.5504,-3.5504,-3.5504,-3.5504,-3.5504,-3.5504,-3.5504,-3.5504,-3.5504,-3.5504,-3.5504,-3.5504,-3.5504,-3.5504,-3.5504,-3.5504,-3.5504,-3.5504,-3.5504,-3.575,-3.6086,-3.6086,-3.6615,-3.7219,-3.7219,-3.7485,-3.7793,-3.7793,-3.7793,-3.7892,-3.8274,-3.8358,-3.8569,-3.9342,-3.9808,-4.0096,-4.0096,-4.0096,-4.0096,-4.0096,-4.0096,-4.0096,-4.0096,-4.0096,-4.0096,-4.0096,-4.0096,-4.0096,-4.0096,-4.0096,-4.0096,-4.0096,-4.0096,-4.0096,-4.0096,-4.0096,-4.0096,-4.0096,-4.0096,-4.0096,-4.0096,-4.0096,-4.0096,-4.0096,-4.0096,-4.0096,-4.0096,-4.0096,-4.0096,-4.0096,-4.0096,-4.0096,-3.047,-3.047,-3.0495,-3.0595,-3.0997,-3.1361,-3.1273,-3.0922,-3.0583,-3.0495,-3.047,-3.0331,-2.988,-2.9792,-2.9792,-2.9792,-2.9792,-2.9792,-2.9792,-2.9792,-2.9792,-2.9792,-2.9792,-3.0101,-3.0871,-3.1106,-3.1852,-3.338,-3.3808,-3.4361,-3.5213,-3.5407,-3.5504,-3.5504,-3.5504,-3.5504,-3.5504,-3.5504,-3.5504,-3.5504,-3.5504,-3.5504,-3.5504,-3.5504,-3.5504,-3.5504,-3.5504,-3.5504,-3.5504,-3.5504,-3.5504,-3.5504,-3.5504,-3.5504,-3.5504,-3.5504,-3.5504,-3.5504,-3.5504,-3.5504,-3.5504,-3.5504,-3.5911,-3.6415,-3.6415,-3.6874,-3.7413,-3.7413,-3.7413,-3.7442,-3.7544,-3.7602,-3.7761,-3.8525,-3.9209,-3.9773,-4.0045,-4.0096,-4.0096,-4.0096,-4.0096,-4.0096,-4.0096,-4.0096,-4.0096,-4.0096,-4.0096,-4.0096,-4.0096,-4.0096,-4.0096,-4.0096,-4.0096,-4.0096,-4.0096,-4.0096,-4.0096,-4.0096,-4.0096,-4.0096,-4.0096,-4.0096,-4.0096,-4.0096,-4.0096,-4.0096,-4.0096,-4.0096,-4.0096,-4.0096,-4.0096,-4.0096,-2.9905,-2.9905,-3.0018,-3.0495,-3.0997,-3.1273,-3.0821,-3.067,-3.0482,-2.9993,-2.9905,-2.988,-2.9804,-2.9792,-2.9792,-2.9792,-2.9792,-2.9792,-2.9792,-2.9792,-2.9792,-2.9792,-2.9792,-2.9869,-2.996,-3.0733,-3.1278,-3.1573,-3.3066,-3.4061,-3.4211,-3.5019,-3.5504,-3.5504,-3.5504,-3.5504,-3.5504,-3.5504,-3.5504,-3.5504,-3.5504,-3.5504,-3.5504,-3.5504,-3.5504,-3.5504,-3.5504,-3.5504,-3.5504,-3.5504,-3.5504,-3.5504,-3.5504,-3.5504,-3.5504,-3.5504,-3.5504,-3.5504,-3.5504,-3.5504,-3.5504,-3.5504,-3.5569,-3.5636,-3.5636,-3.5733,-3.5797,-3.5797,-3.5797,-3.5958,-3.6584,-3.6768,-3.6964,-3.7777,-3.8035,-3.8458,-3.9825,-4.0096,-4.0096,-4.0096,-4.0096,-4.0096,-4.0096,-4.0096,-4.0096,-4.0096,-4.0096,-4.0096,-4.0096,-4.0096,-4.0096,-4.0096,-4.0096,-4.0096,-4.0096,-4.0096,-4.0096,-4.0096,-4.0096,-4.0096,-4.0096,-4.0096,-4.0096,-4.0096,-4.0096,-4.0096,-4.0096,-4.0096,-4.0096,-4.0096,-4.0096,-4.0096,-3.0256,-2.9792,-2.944,-3.0018,-3.0331,-3.0432,-3.0206,-3.0156,-3.008,-2.9842,-2.9792,-2.9792,-2.9792,-2.9792,-2.9792,-2.9792,-2.9792,-2.9792,-2.9792,-2.9792,-2.9792,-2.9792,-2.9792,-2.9792,-2.9792,-3.0177,-3.062,-3.118,-3.196,-3.2664,-3.3206,-3.4143,-3.4658,-3.4658,-3.5213,-3.5504,-3.5504,-3.5504,-3.5504,-3.5504,-3.5504,-3.5504,-3.5504,-3.5504,-3.5504,-3.5504,-3.5504,-3.5504,-3.5504,-3.5504,-3.5504,-3.5504,-3.5504,-3.5504,-3.5504,-3.5504,-3.5504,-3.5504,-3.5504,-3.5504,-3.5504,-3.5504,-3.5504,-3.5504,-3.5504,-3.5504,-3.5504,-3.5504,-3.5504,-3.5587,-3.5894,-3.5975,-3.618,-3.695,-3.713,-3.744,-3.8569,-3.8805,-3.8941,-3.9358,-3.9782,-4.0096,-4.0096,-4.0096,-4.0096,-4.0096,-4.0096,-4.0096,-4.0096,-4.0096,-4.0096,-4.0096,-4.0096,-4.0096,-4.0096,-4.0096,-4.0096,-4.0096,-4.0096,-4.0096,-4.0096,-4.0096,-4.0096,-4.0096,-4.0096,-4.0096,-4.0096,-4.0096,-4.0096,-4.0096,-4.0096,-4.0096,-3.0369,-2.9792,-2.9289,-2.9867,-2.9993,-2.9993,-2.9993,-2.9892,-2.9792,-2.9792,-2.9792,-2.9792,-2.9792,-2.9792,-2.9792,-2.9792,-2.9792,-2.9792,-2.9792,-2.9792,-2.9792,-2.9792,-2.9792,-2.9792,-2.9792,-2.9792,-3.0113,-3.0796,-3.1068,-3.1499,-3.2213,-3.3136,-3.3636,-3.3636,-3.4591,-3.5133,-3.5133,-3.5359,-3.5504,-3.5504,-3.5504,-3.5504,-3.5504,-3.5504,-3.5504,-3.5504,-3.5504,-3.5504,-3.5504,-3.5504,-3.5504,-3.5504,-3.5504,-3.5504,-3.5504,-3.5504,-3.5504,-3.5504,-3.5504,-3.5504,-3.5504,-3.5504,-3.5504,-3.5504,-3.5504,-3.5504,-3.5504,-3.5504,-3.5504,-3.5504,-3.5504,-3.5504,-3.5651,-3.6196,-3.6337,-3.66,-3.7573,-3.7793,-3.795,-3.8497,-3.9102,-3.9558,-3.9756,-3.9808,-3.9859,-4.007,-4.0096,-4.0096,-4.0096,-4.0096,-4.0096,-4.0096,-4.0096,-4.0096,-4.0096,-4.0096,-4.0096,-4.0096,-4.0096,-4.0096,-4.0096,-4.0096,-4.0096,-4.0096,-4.0096,-4.0096,-4.0096,-4.0096,-4.0096,-4.0096,-4.0096,-4.0096,-2.9691,-2.9792,-2.988,-3.0432,-3.057,-3.057,-3.057,-3.0168,-2.9792,-2.9792,-2.9792,-2.9792,-2.9792,-2.9792,-2.9792,-2.9792,-2.9792,-2.9792,-2.9792,-2.9792,-2.9792,-2.9792,-2.9792,-2.9792,-2.9792,-2.9792,-2.983,-2.9869,-3.0696,-3.1217,-3.1278,-3.2177,-3.2664,-3.2664,-3.3602,-3.4061,-3.4061,-3.5019,-3.5504,-3.5504,-3.5504,-3.5504,-3.5504,-3.5504,-3.5504,-3.5504,-3.5504,-3.5504,-3.5504,-3.5504,-3.5504,-3.5504,-3.5504,-3.5504,-3.5504,-3.5504,-3.5504,-3.5504,-3.5504,-3.5504,-3.5504,-3.5504,-3.5504,-3.5504,-3.5504,-3.5504,-3.5504,-3.5504,-3.5504,-3.5504,-3.5504,-3.5504,-3.5504,-3.5569,-3.5554,-3.5973,-3.7472,-3.7793,-3.7806,-3.7835,-3.7892,-3.8149,-3.8827,-3.8962,-3.9219,-3.9995,-4.0096,-4.0096,-4.0096,-4.0096,-4.0096,-4.0096,-4.0096,-4.0096,-4.0096,-4.0096,-4.0096,-4.0096,-4.0096,-4.0096,-4.0096,-4.0096,-4.0096,-4.0096,-4.0096,-4.0096,-4.0096,-4.0096,-4.0096,-4.0096,-4.0096,-4.0096,-2.9541,-2.9528,-2.9377,-2.9942,-2.9751,-2.9363,-2.9052,-2.85,-2.7982,-2.7748,-2.7678,-2.7879,-2.8557,-2.9326,-2.9792,-2.9792,-2.9792,-2.9792,-2.9792,-2.9792,-2.9792,-2.9792,-2.9792,-2.9792,-2.9792,-2.9792,-2.9792,-2.9792,-3.0101,-3.0317,-3.0317,-3.118,-3.1997,-3.2558,-3.3518,-3.4312,-3.4953,-3.5326,-3.5504,-3.5504,-3.5504,-3.5504,-3.5504,-3.5504,-3.5504,-3.5504,-3.5504,-3.5504,-3.5504,-3.5504,-3.5504,-3.5504,-3.5504,-3.5504,-3.5504,-3.5504,-3.5504,-3.5504,-3.5504,-3.5504,-3.5504,-3.5504,-3.5504,-3.5504,-3.5504,-3.5504,-3.5504,-3.5504,-3.5504,-3.5504,-3.5504,-3.5504,-3.5504,-3.5504,-3.5504,-3.5651,-3.6196,-3.6707,-3.7024,-3.7024,-3.7456,-3.7892,-3.8149,-3.8189,-3.8436,-3.9161,-3.889,-3.8969,-3.9866,-3.9598,-3.9516,-4.0045,-4.0096,-4.0096,-4.0096,-4.0096,-4.0096,-4.0096,-4.0096,-4.0096,-4.0096,-4.0096,-4.0096,-4.0096,-4.0096,-4.0096,-4.0096,-4.0096,-4.0096,-4.0096,-4.0096,-4.0096,-2.9366,-2.9503,-2.959,-3.0193,-2.9875,-2.9359,-2.9246,-2.8578,-2.7912,-2.7667,-2.7597,-2.7839,-2.8518,-2.9275,-2.9792,-2.9792,-2.9792,-2.9792,-2.9792,-2.9792,-2.9792,-2.9792,-2.9792,-2.9792,-2.9792,-2.9792,-2.9792,-2.9792,-2.9792,-2.9792,-2.9792,-3.0381,-3.1291,-3.2558,-3.3206,-3.4143,-3.5504,-3.5504,-3.5504,-3.5504,-3.5504,-3.5504,-3.5504,-3.5504,-3.5504,-3.5504,-3.5504,-3.5504,-3.5504,-3.5504,-3.5504,-3.5504,-3.5504,-3.5504,-3.5504,-3.5504,-3.5504,-3.5504,-3.5504,-3.5504,-3.5504,-3.5504,-3.5504,-3.5504,-3.5504,-3.5504,-3.5504,-3.5504,-3.5504,-3.5504,-3.5504,-3.5504,-3.5504,-3.5504,-3.5504,-3.5504,-3.5504,-3.5894,-3.6228,-3.6228,-3.6646,-3.7131,-3.7368,-3.7397,-3.7644,-3.8357,-3.8097,-3.8155,-3.9076,-3.8818,-3.8734,-3.9279,-3.9332,-3.9428,-3.9662,-3.9705,-3.9808,-4.007,-4.0096,-4.0096,-4.0096,-4.0096,-4.0096,-4.0096,-4.0096,-4.0096,-4.0096,-4.0096,-4.0096,-4.0096,-4.0096,-4.0096,0.0,0.0,0.0,-3.1223,-3.0931,-3.0693,-3.1182,-3.0453,-2.9714,-2.9714,-2.9689,-2.9689,-2.974,-2.9753,-2.9753,-2.9792,-2.9792,-2.9792,-2.9792,-2.9792,-2.9792,-2.9792,-2.9792,-2.9792,-2.9792,-2.9792,-2.9792,-2.9792,-2.9792,-2.9792,-2.9792,-2.983,-3.0671,-3.25,-3.2593,-3.3547,-3.5439,-3.5504,-3.5504,-3.5504,-3.5504,-3.5504,-3.5504,-3.5504,-3.5504,-3.5504,-3.5504,-3.5504,-3.5504,-3.5504,-3.5504,-3.5504,-3.5504,-3.5504,-3.5504,-3.5504,-3.5504,-3.5504,-3.5504,-3.5504,-3.5504,-3.5504,-3.5504,-3.5504,-3.5504,-3.5504,-3.5504,-3.5504,-3.5504,-3.5504,-3.5504,-3.5504,-3.5504,-3.5504,-3.5504,-3.5504,-3.5504,-3.5504,-3.5504,-3.5504,-3.5504,-3.5733,-3.6446,-3.6584,-3.6828,-3.7634,-3.7751,-3.7767,-3.7796,-3.778,-3.7809,-3.7793,-3.7793,-3.8092,-3.8799,-3.8881,-3.9193,-4.002,-4.007,-4.0087,-4.0096,-4.0096,-4.0096,-4.0096,-4.0096,-4.0096,-4.0096,-4.0096,-4.0096,-4.0096,-4.0096,-4.0096,-2.9936,0.0,0.0,0.0,0.0,0.0,-2.908,-2.8108,-2.729,-2.7383,-2.7082,-2.713,-2.8366,-2.8557,-2.8858,-2.9663,-2.9792,-2.9792,-2.9792,-2.9792,-2.9792,-2.9792,-2.9792,-2.9792,-2.9792,-2.9792,-2.9792,-2.9792,-2.9792,-2.9792,-2.9792,-3.0457,-3.1044,-3.1573,-3.289,-3.3891,-3.4394,-3.5133,-3.5504,-3.5504,-3.5504,-3.5504,-3.5504,-3.5504,-3.5504,-3.5504,-3.5504,-3.5504,-3.5504,-3.5504,-3.5504,-3.5504,-3.5504,-3.5504,-3.5504,-3.5504,-3.5504,-3.5504,-3.5504,-3.5504,-3.5504,-3.5504,-3.5504,-3.5504,-3.5504,-3.5504,-3.5504,-3.5504,-3.5504,-3.5504,-3.5504,-3.5504,-3.5504,-3.5504,-3.5504,-3.5504,-3.5504,-3.5504,-3.5504,-3.5504,-3.5504,-3.5554,-3.5782,-3.5814,-3.6029,-3.6757,-3.6865,-3.7058,-3.7592,-3.7654,-3.771,-3.7783,-3.7793,-3.7892,-3.8092,-3.8121,-3.843,-3.9166,-3.9236,-3.9489,-4.007,-4.0096,-4.0096,-4.0096,-4.0096,-4.0096,-4.0096,-4.0096,-4.0096,-4.0096,-4.0096,-4.0096,-3.0516,-3.0342,-3.033,-3.0185,0.0,0.0,-2.9159,-2.8215,-2.7418,-2.7509,-2.7427,-2.7561,-2.8285,-2.8831,-2.9285,-2.9752,-2.9792,-2.9792,-2.9792,-2.9792,-2.988,-3.0105,-3.0131,-3.0131,-3.0131,-3.0131,-3.0043,-2.9817,-2.9792,-2.9792,-2.9792,-3.0317,-3.0796,-3.118,-3.2629,-3.3602,-3.3993,-3.4986,-3.5504,-3.5504,-3.5504,-3.5504,-3.5504,-3.5504,-3.5504,-3.5504,-3.5504,-3.5504,-3.5504,-3.5504,-3.5504,-3.5504,-3.5504,-3.5504,-3.5504,-3.5504,-3.5504,-3.5504,-3.5504,-3.5504,-3.5504,-3.5504,-3.5504,-3.5504,-3.5504,-3.5504,-3.5504,-3.5504,-3.5504,-3.5504,-3.5504,-3.5504,-3.5504,-3.5504,-3.5504,-3.5504,-3.5504,-3.5504,-3.5504,-3.5504,-3.5504,-3.5504,-3.5504,-3.5504,-3.5639,-3.6013,-3.6073,-3.6255,-3.6665,-3.6729,-3.6751,-3.6815,-3.6829,-3.6981,-3.7279,-3.7308,-3.7616,-3.8386,-3.8442,-3.8652,-3.9119,-3.9146,-3.9146,-3.9146,-3.9437,-3.9756,-4.0096,-4.0096,-4.0096,-4.0096,-4.0096,-4.0096,-3.1148,-3.1,-3.1237,-3.0788,-3.03,0.0,-3.0407,-2.9704,-2.8913,-2.8976,-2.939,-2.9566,-2.9076,-2.9866,-3.0432,-2.988,-2.9842,-2.9867,-2.9804,-2.9792,-2.9993,-3.0557,-3.062,-3.0633,-3.0696,-3.0645,-3.0407,-2.9917,-2.9829,-2.9792,-2.9792,-2.9792,-3.0177,-3.1007,-3.196,-3.2855,-3.3671,-3.4691,-3.5213,-3.5326,-3.5326,-3.5392,-3.5504,-3.5504,-3.5504,-3.5504,-3.5504,-3.5504,-3.5504,-3.5504,-3.5504,-3.5504,-3.5504,-3.5504,-3.5504,-3.5504,-3.5504,-3.5504,-3.5504,-3.5504,-3.5504,-3.5504,-3.5504,-3.5504,-3.5504,-3.5504,-3.5504,-3.5504,-3.5504,-3.5504,-3.5504,-3.5504,-3.5504,-3.5504,-3.5504,-3.5504,-3.5504,-3.5504,-3.5504,-3.5504,-3.5504,-3.5504,-3.5504,-3.5504,-3.5504,-3.5504,-3.5564,-3.5594,-3.5519,-3.5564,-3.5594,-3.5519,-3.5504,-3.575,-3.6415,-3.6477,-3.6828,-3.7602,-3.7661,-3.769,-3.7793,-3.7793,-3.7793,-3.7793,-3.8442,-3.9183,-3.9969,-4.0045,-4.0096,-4.0096,-4.0096,-4.0096,-3.2814,-3.2444,-3.2132,-3.1288,-3.1024,0.0,-3.0099,-2.9428,-2.9026,-2.9528,-2.934,-2.9202,-2.9566,-3.0168,-3.0432,-2.988,-3.0168,-3.0306,-2.9854,-2.9792,-2.9993,-3.0557,-3.062,-3.0783,-3.1198,-3.0859,-3.057,-3.0457,-3.0043,-2.9792,-2.9792,-2.9792,-2.9895,-3.0075,-3.097,-3.1573,-3.1742,-3.2678,-3.3533,-3.4279,-3.4279,-3.4725,-3.5504,-3.5504,-3.5504,-3.5504,-3.5504,-3.5504,-3.5504,-3.5504,-3.5504,-3.5504,-3.5504,-3.5504,-3.5504,-3.5504,-3.5504,-3.5504,-3.5504,-3.5504,-3.5504,-3.5504,-3.5504,-3.5504,-3.5504,-3.5504,-3.5504,-3.5504,-3.5504,-3.5504,-3.5504,-3.5504,-3.5504,-3.5504,-3.5504,-3.5504,-3.5504,-3.5504,-3.5504,-3.5504,-3.5504,-3.5504,-3.5504,-3.5504,-3.5504,-3.5504,-3.5953,-3.6103,-3.5579,-3.5968,-3.6088,-3.5564,-3.5504,-3.5554,-3.5701,-3.5701,-3.6038,-3.6798,-3.6813,-3.7114,-3.7764,-3.7793,-3.7793,-3.7793,-3.795,-3.8386,-3.9139,-3.9782,-4.0096,-4.0096,-4.0096,-4.0096,-3.3854,-3.3443,-3.3066,-3.2141,-3.1888,0.0,0.0,-3.0057,-2.9587,-2.9378,-2.9365,-2.9365,-2.9365,-3.0055,-3.052,-3.0244,-3.0206,-3.0105,-2.9829,-2.9792,-2.9993,-3.0557,-3.062,-3.0821,-3.1336,-3.0922,-3.0507,-3.0231,-2.9942,-2.9792,-2.9792,-2.9792,-2.9792,-2.9792,-3.0733,-3.1217,-3.1217,-3.2141,-3.2855,-3.331,-3.3774,-3.4027,-3.409,-3.4543,-3.4758,-3.4758,-3.4758,-3.5019,-3.5504,-3.5504,-3.5504,-3.5504,-3.5504,-3.5504,-3.5504,-3.5504,-3.5504,-3.5504,-3.5504,-3.5504,-3.5504,-3.5504,-3.5504,-3.5504,-3.5504,-3.5504,-3.5504,-3.5504,-3.5504,-3.5504,-3.5504,-3.5504,-3.5504,-3.5504,-3.5504,-3.5504,-3.5504,-3.5504,-3.5504,-3.5504,-3.5504,-3.5504,-3.5504,-3.5504,-3.5504,-3.5504,-3.5789,-3.5878,-3.5549,-3.5789,-3.5863,-3.5549,-3.5504,-3.5504,-3.5504,-3.5504,-3.5651,-3.6023,-3.6054,-3.6243,-3.6631,-3.6662,-3.6829,-3.7174,-3.7203,-3.7587,-3.8358,-3.8761,-3.9332,-4.0096,-4.0096,-4.0096,-3.4685,-3.4279,-3.4075,-3.3101,-3.289,-3.2629,0.0,0.0,0.0,-2.9514,-2.9606,-2.9641,-2.9176,-2.993,-3.0583,-3.047,-3.0168,-2.9942,-2.9942,-2.9942,-3.008,-3.0419,-3.0557,-3.0821,-3.1336,-3.0922,-3.0382,-2.9829,-2.9792,-2.9792,-2.9792,-2.9792,-2.9792,-2.9792,-3.052,-3.0932,-3.0932,-3.1683,-3.2141,-3.2357,-3.3101,-3.3171,-3.2629,-3.338,-3.3668,-3.3568,-3.3682,-3.4119,-3.4791,-3.4909,-3.5067,-3.5246,-3.5424,-3.5504,-3.5504,-3.5504,-3.5504,-3.5504,-3.5504,-3.5504,-3.5504,-3.5504,-3.5504,-3.5504,-3.5504,-3.5504,-3.5504,-3.5504,-3.5504,-3.5504,-3.5504,-3.5504,-3.5504,-3.5504,-3.5504,-3.5504,-3.5504,-3.5504,-3.5504,-3.5504,-3.5504,-3.5504,-3.5504,-3.5504,-3.5504,-3.5504,-3.5504,-3.5504,-3.5504,-3.5504,-3.5504,-3.5504,-3.5504,-3.5504,-3.5504,-3.5504,-3.5504,-3.5504,-3.5504,-3.5504,-3.5504,-3.5504,-3.5782,-3.6399,-3.6384,-3.6768,-3.7573,-3.7573,-3.829,-3.9653,-3.9808,-3.9876,-3.5538,-3.5326,-3.51,-3.4095,-3.3842,-3.3602,-3.2629,0.0,-3.1088,-3.0976,0.0,-2.9779,-2.9704,0.0,0.0,-2.9967,-3.0244,-3.052,-3.052,-3.052,-3.0369,-2.9942,-3.0319,-3.0821,-3.1336,-3.0922,-3.0382,-2.9829,-2.9792,-2.9792,-2.9792,-2.9792,-2.9792,-2.9792,-2.9895,-2.9972,-2.9972,-3.0075,-3.0533,-3.1352,-3.1462,-3.1888,-3.2593,-3.2713,-3.2493,-3.2076,-3.2548,-3.2535,-3.2261,-3.2737,-3.3429,-3.4245,-3.5166,-3.5504,-3.5504,-3.5504,-3.5504,-3.5504,-3.5504,-3.5504,-3.5504,-3.5504,-3.5504,-3.5504,-3.5504,-3.5504,-3.5504,-3.5504,-3.5504,-3.5504,-3.5504,-3.5504,-3.5504,-3.5504,-3.5504,-3.5504,-3.5504,-3.5504,-3.5504,-3.5504,-3.5504,-3.5504,-3.5504,-3.5504,-3.5504,-3.5504,-3.5504,-3.5504,-3.5504,-3.5504,-3.5504,-3.5504,-3.5504,-3.5504,-3.5504,-3.5504,-3.5504,-3.5504,-3.5504,-3.5504,-3.5504,-3.5504,-3.5537,-3.5619,-3.5619,-3.5975,-3.6737,-3.6737,-3.7203,-3.8064,-3.8718,-3.9032,-3.5684,-3.5504,-3.5392,-3.4986,-3.4872,-3.461,-3.3636,-3.3101,-3.2522,-3.1426,0.0,0.0,0.0,0.0,0.0,0.0,-3.0193,-3.0143,-3.0143,-3.0407,-3.0645,-3.0708,-3.0922,-3.1148,-3.1373,-3.1198,-3.0846,-3.0306,-2.998,-2.9792,-2.9792,-2.9792,-2.9792,-2.9792,-2.9792,-2.9792,-2.9792,-2.9792,-2.9998,-3.0381,-3.0932,-3.1119,-3.0983,-3.1536,-3.1505,-3.098,-3.1236,-3.1346,-3.1396,-3.1889,-3.2361,-3.2851,-3.4148,-3.4986,-3.5504,-3.5504,-3.5504,-3.5504,-3.5504,-3.5504,-3.5504,-3.5504,-3.5504,-3.5504,-3.5504,-3.5504,-3.5504,-3.5504,-3.5504,-3.5504,-3.5504,-3.5504,-3.5504,-3.5504,-3.5504,-3.5504,-3.5504,-3.5504,-3.5504,-3.5504,-3.5504,-3.5504,-3.5504,-3.5504,-3.5504,-3.5504,-3.5504,-3.5504,-3.5504,-3.5504,-3.5504,-3.5504,-3.5504,-3.5504,-3.5504,-3.5504,-3.5504,-3.5504,-3.5504,-3.5504,-3.5504,-3.5504,-3.5504,-3.5504,-3.5504,-3.5636,-3.5943,-3.5943,-3.6133,-3.6492,-3.7719,-3.8246,-3.513,-3.5085,-3.522,-3.522,-3.537,-3.5326,-3.4576,-3.4211,-3.3679,-3.249,-3.2021,0.0,0.0,0.0,-3.0659,-3.061,0.0,-3.0018,-3.0018,-3.0482,-3.0859,-3.0947,-3.121,-3.1386,-3.1386,-3.1386,-3.1173,-3.0658,-3.0244,-2.9955,-2.9804,-2.9792,-2.9792,-2.9792,-2.9792,-2.9792,-2.9792,-2.9792,-2.9792,-2.9792,-3.0482,-3.0367,-2.9591,-3.0237,-3.0207,-2.9542,-2.9699,-2.9932,-3.0241,-3.0767,-3.1246,-3.174,-3.2814,-3.3822,-3.4773,-3.5294,-3.5504,-3.5504,-3.5504,-3.5504,-3.5504,-3.5504,-3.5504,-3.5504,-3.5504,-3.5504,-3.5504,-3.5504,-3.5504,-3.5504,-3.5504,-3.5504,-3.5504,-3.5504,-3.5504,-3.5504,-3.5504,-3.5504,-3.5504,-3.5504,-3.5504,-3.5504,-3.5504,-3.5504,-3.5504,-3.5504,-3.5504,-3.5504,-3.5504,-3.5504,-3.5504,-3.5504,-3.5504,-3.5504,-3.5504,-3.5504,-3.5504,-3.5504,-3.5504,-3.5504,-3.5504,-3.5504,-3.5504,-3.5504,-3.5504,-3.5504,-3.5504,-3.5504,-3.5504,-3.5537,-3.686,-3.7485,-3.3739,-3.4054,-3.4533,-3.4533,-3.5011,-3.5504,-3.5472,-3.4691,-3.4166,-3.477,-3.4164,-3.3399,-3.2971,-3.2895,-3.2372,-3.0842,-3.0608,0.0,0.0,-3.1035,-3.0984,-2.9967,-3.0758,-3.1386,-3.1386,-3.1386,-3.1173,-3.0658,-3.0595,-3.0357,-2.9817,-2.9792,-2.9792,-2.9792,-2.9792,-2.9792,-2.9792,-2.9792,-2.9792,-2.9792,-2.983,-2.9529,-2.8913,-2.895,-2.8397,-2.744,-2.7932,-2.8195,-2.8208,-2.8761,-2.9879,-3.1214,-3.1278,-3.1852,-3.2925,-3.482,-3.5504,-3.5504,-3.5504,-3.5504,-3.5504,-3.5504,-3.5504,-3.5504,-3.5504,-3.5504,-3.5504,-3.5504,-3.5504,-3.5504,-3.5504,-3.5504,-3.5504,-3.5504,-3.5504,-3.5504,-3.5504,-3.5504,-3.5504,-3.5504,-3.5504,-3.5504,-3.5504,-3.5504,-3.5504,-3.5504,-3.5504,-3.5504,-3.5504,-3.5504,-3.5504,-3.5504,-3.5504,-3.5504,-3.5504,-3.5504,-3.5504,-3.5504,-3.5504,-3.5504,-3.5504,-3.5504,-3.5504,-3.5504,-3.5504,-3.5504,-3.5504,-3.5504,-3.5504,-3.5537,-3.6275,-3.6646,0.0,-3.3978,-3.4623,-3.504,-3.5325,-3.5624,-3.6058,-3.5558,-3.4865,-3.4418,-3.4452,-3.4082,-3.2595,-3.271,-3.2568,-3.1309,-3.1135,-3.1009,0.0,-3.0771,-3.1148,-3.1876,-3.2277,-3.2546,-3.2546,-3.2152,-3.1863,-3.1687,-3.1336,-3.0896,-3.0369,-3.0331,-3.0168,-2.9804,-2.9792,-2.9792,-2.9792,-2.9792,-2.9792,-2.9792,-2.9402,-2.9076,-2.8875,-2.8512,-2.7984,-2.7329,-2.7482,-2.7557,-2.7607,-2.816,-2.8886,-2.9767,-3.0813,-3.1389,-3.1815,-3.3115,-3.3581,-3.3685,-3.4293,-3.4509,-3.461,-3.5279,-3.5504,-3.5504,-3.5504,-3.5504,-3.5504,-3.5504,-3.5504,-3.5504,-3.5504,-3.5504,-3.5504,-3.5504,-3.5504,-3.5504,-3.5504,-3.5504,-3.5504,-3.5504,-3.5504,-3.5504,-3.5504,-3.5504,-3.5504,-3.5504,-3.5504,-3.5504,-3.5504,-3.5504,-3.5504,-3.5504,-3.5504,-3.5504,-3.5504,-3.5504,-3.5504,-3.5504,-3.5504,-3.5504,-3.5504,-3.5504,-3.5504,-3.5504,-3.5504,-3.5504,-3.5504,-3.5504,-3.5504,-3.5504,-3.575,-3.5863,-3.2796,-3.3275,0.0,-3.4337,-3.4622,-3.4966,-3.5657,-3.5444,-3.5088,-3.4926,-3.5409,-3.5224,-3.3227,-3.3572,-3.3555,-3.1681,-3.1549,-3.1499,0.0,-3.106,-3.1574,-3.2641,-3.2767,-3.2855,-3.3056,-3.2742,-3.2441,-3.2227,-3.1888,-3.1449,-3.0922,-3.0721,-3.0457,-3.0093,-2.9892,-2.9792,-2.9792,-2.9792,-2.9691,-2.9478,-2.9076,-2.8687,-2.8335,-2.7971,-2.7507,-2.7027,-2.7027,-2.7241,-2.7607,-2.7959,-2.8549,-2.9302,-3.0302,-3.0696,-3.0871,-3.2141,-3.2593,-3.2713,-3.3276,-3.3484,-3.3602,-3.4259,-3.4691,-3.4953,-3.4953,-3.5213,-3.5504,-3.5504,-3.5504,-3.5504,-3.5504,-3.5504,-3.5504,-3.5504,-3.5504,-3.5504,-3.5504,-3.5504,-3.5504,-3.5504,-3.5504,-3.5504,-3.5504,-3.5504,-3.5504,-3.5504,-3.5504,-3.5504,-3.5504,-3.5504,-3.5504,-3.5504,-3.5504,-3.5504,-3.5504,-3.5504,-3.5504,-3.5504,-3.5504,-3.5504,-3.5504,-3.5504,-3.5504,-3.5504,-3.5504,-3.5504,-3.5504,-3.5504,-3.5504,-3.5504,-3.5504,-3.5504]},{"header":{"parameterUnit":"m.s-1","parameterCategory":1,"la1":30.6,"la2":29.2853,"lo1":-89.7004,"lo2":-87.6739,"dy":0.0162,"dx":0.0183,"nx":112,"ny":82,"refTime":"2024-06-18T06:00:00:Z","depth":0,"parameterNumber":3,"parameterNumberName":"V-component_of_WINDS"},"data":[0.0,0.0,0.0,0.0,0.0,0.0,0.0,0.0,0.0,0.0,0.0,0.0,0.0,0.0,0.0,0.0,0.0,0.0,0.0,0.0,0.0,0.0,0.0,0.0,0.0,0.0,0.0,0.0,0.0,0.0,0.0,0.0,0.0,0.0,0.0,0.0,0.0,0.0,0.0,0.0,0.0,0.0,0.0,0.0,0.0,0.0,0.0,0.0,0.0,0.0,0.0,0.0,0.0,0.0,0.0,0.0,0.0,0.0,0.0,0.0,0.0,0.0,0.0,0.0,0.0,0.0,0.0,0.0,0.0,0.0,0.0,0.0,0.0,0.0,0.0,0.0,0.0,0.0,0.0,0.0,0.0,0.0,0.0,0.0,0.0,0.0,0.0,0.0,0.0,0.0,0.0,0.0,0.0,0.0,0.0,0.0,0.0,0.0,0.0,0.0,0.0,0.0,0.0,0.0,0.0,0.0,0.0,0.0,0.0,0.0,0.0,0.0,0.0,0.0,0.0,0.0,0.0,0.0,0.0,0.0,0.0,0.0,0.0,0.0,0.0,0.0,0.0,0.0,0.0,0.0,0.0,0.0,0.0,0.0,0.0,0.0,0.0,0.0,0.0,0.0,0.0,0.0,0.0,0.0,0.0,0.0,0.0,0.0,0.0,0.0,0.0,0.0,0.0,0.0,0.0,0.0,0.0,0.0,0.0,0.0,0.0,0.0,0.0,0.0,0.0,0.0,0.0,0.0,0.0,0.0,0.0,0.0,0.0,0.0,0.0,0.0,0.0,0.0,0.0,0.0,0.0,0.0,0.0,0.0,0.0,0.0,0.0,0.0,0.0,0.0,0.0,0.0,0.0,0.0,0.0,0.0,0.0,0.0,0.0,0.0,0.0,0.0,0.0,0.0,0.0,0.0,0.0,0.0,0.0,0.0,0.0,0.0,0.0,0.0,0.0,0.0,0.0,0.0,0.0,0.0,0.0,0.0,0.0,0.0,0.0,0.0,0.0,0.0,0.0,0.0,0.0,0.0,0.0,0.0,0.0,0.0,0.0,0.0,0.0,0.0,0.0,0.0,0.0,0.0,0.0,0.0,0.0,0.0,0.0,0.0,0.0,0.0,0.0,0.0,0.0,0.0,0.0,0.0,0.0,0.0,0.0,0.0,0.0,0.0,0.0,0.0,0.0,0.0,0.0,0.0,0.0,0.0,0.0,0.0,0.0,0.0,0.0,0.0,0.0,0.0,0.0,0.0,0.0,0.0,0.0,0.0,0.0,0.0,0.0,0.0,0.0,0.0,0.0,0.0,0.0,0.0,0.0,0.0,0.0,0.0,0.0,0.0,0.0,0.0,0.0,0.0,0.0,0.0,0.0,0.0,0.0,0.0,0.0,0.0,0.0,0.0,0.0,0.0,0.0,0.0,0.0,0.0,0.0,0.0,0.0,0.0,0.0,0.0,0.0,0.0,0.0,0.0,0.0,0.0,0.0,0.0,0.0,0.0,0.0,0.0,0.0,0.0,0.0,0.0,0.0,0.0,0.0,0.0,0.0,0.0,0.0,0.0,0.0,0.0,0.0,0.0,0.0,0.0,0.0,0.0,0.0,0.0,0.0,0.0,0.0,0.0,0.0,0.0,0.0,0.0,0.0,0.0,0.0,0.0,0.0,0.0,0.0,0.0,0.0,0.0,0.0,0.0,0.0,0.0,0.0,0.0,0.0,0.0,0.0,0.0,0.0,0.0,0.0,0.0,0.0,0.0,0.0,0.0,0.0,0.0,0.0,0.0,0.0,0.0,0.0,0.0,0.0,0.0,0.0,0.0,0.0,0.0,0.0,0.0,0.0,0.0,0.0,0.0,0.0,0.0,0.0,0.0,0.0,0.0,0.0,0.0,0.0,0.0,0.0,0.0,0.0,0.0,0.0,0.0,0.0,0.0,0.0,0.0,0.0,0.0,0.0,0.0,0.0,0.0,0.0,0.0,0.0,0.0,0.0,0.0,0.0,0.0,0.0,0.0,0.0,0.0,0.0,0.0,0.0,0.0,0.0,0.0,0.0,0.0,0.0,0.0,0.0,0.0,0.0,0.0,0.0,0.0,0.0,0.0,0.0,0.0,0.0,0.0,0.0,0.0,0.0,0.0,0.0,0.0,0.0,0.0,0.0,0.0,0.0,0.0,0.0,0.0,0.0,0.0,0.0,0.0,0.0,0.0,0.0,0.0,0.0,0.0,0.0,0.0,0.0,0.0,0.0,0.0,0.0,0.0,0.0,0.0,0.0,0.0,0.0,0.0,0.0,0.0,0.0,0.0,0.0,0.0,0.0,0.0,0.0,0.0,0.0,0.0,0.0,0.0,0.0,0.0,0.0,0.0,0.0,0.0,0.0,0.0,0.0,0.0,0.0,0.0,0.0,0.0,0.0,0.0,0.0,0.0,0.0,0.0,0.0,0.0,0.0,0.0,0.0,0.0,0.0,0.0,0.0,0.0,0.0,0.0,0.0,0.0,0.0,0.0,0.0,0.0,0.0,0.0,0.0,0.0,0.0,0.0,0.0,0.0,0.0,0.0,0.0,0.0,0.0,0.0,0.0,0.0,0.0,0.0,0.0,0.0,0.0,0.0,0.0,0.0,0.0,0.0,0.0,0.0,0.0,0.0,0.0,0.0,0.0,0.0,0.0,0.0,0.0,0.0,0.0,0.0,0.0,0.0,0.0,0.0,0.0,0.0,0.0,0.0,0.0,0.0,0.0,0.0,0.0,0.0,0.0,0.0,0.0,0.0,0.0,0.0,0.0,0.0,0.0,0.0,0.0,0.0,0.0,0.0,0.0,0.0,0.0,0.0,0.0,0.0,0.0,0.0,0.0,0.0,0.0,0.0,0.0,0.0,0.0,0.0,0.0,0.0,0.0,0.0,0.0,0.0,0.0,0.0,0.0,0.0,0.0,0.0,0.0,0.0,0.0,0.0,0.0,0.0,0.0,0.0,0.0,0.0,0.0,0.0,0.0,0.0,0.0,0.0,0.0,0.0,0.0,0.0,0.0,0.0,0.0,0.0,0.0,0.0,0.0,0.0,0.0,0.0,0.0,0.0,0.0,0.0,0.0,0.0,0.0,0.0,0.0,0.0,0.0,0.0,0.0,0.0,0.0,0.0,0.0,0.0,0.0,0.0,0.0,0.0,0.0,0.0,0.0,0.0,0.0,0.0,0.0,0.0,0.0,0.0,0.0,0.0,0.0,0.0,0.0,0.0,0.0,0.0,0.0,0.0,0.0,0.0,0.0,0.0,0.0,0.0,0.0,0.0,0.0,0.0,0.0,0.0,0.0,0.0,0.0,0.0,0.0,0.0,0.0,0.0,0.0,0.0,0.0,0.0,0.0,0.0,0.0,0.0,0.0,0.0,0.0,0.0,0.0,0.0,0.0,0.0,0.0,0.0,0.0,0.0,0.0,0.0,0.0,0.0,0.0,0.0,0.0,0.0,0.0,0.0,0.0,0.0,0.0,0.0,0.0,0.0,0.0,0.0,0.0,0.0,0.0,0.0,0.0,0.0,0.0,0.0,0.0,0.0,0.0,0.0,0.0,0.0,0.0,0.0,0.0,0.0,0.0,0.0,0.0,0.0,0.0,0.0,0.0,0.0,0.0,0.0,0.0,0.0,0.0,0.0,0.0,0.0,0.0,0.0,0.0,0.0,0.0,0.0,0.0,0.0,0.0,0.0,0.0,0.0,0.0,0.0,0.0,0.0,0.0,0.0,0.0,0.0,0.0,0.0,0.0,0.0,0.0,0.0,0.0,0.0,0.0,0.0,0.0,0.0,0.0,0.0,0.0,0.0,0.0,0.0,0.0,0.0,0.0,0.0,0.0,0.0,0.0,0.0,0.0,0.0,0.0,0.0,0.0,0.0,0.0,0.0,0.0,0.0,0.0,0.0,0.0,0.0,0.0,0.0,0.0,0.0,0.0,0.0,0.0,0.0,0.0,0.0,0.0,0.0,0.0,0.0,0.0,0.0,0.0,0.0,0.0,0.0,0.0,0.0,0.0,0.0,0.0,0.0,0.0,0.0,0.0,0.0,0.0,0.0,0.0,0.0,0.0,0.0,0.0,0.0,0.0,0.0,0.0,0.0,0.0,0.0,0.0,0.0,0.0,0.0,0.0,0.0,0.0,0.0,0.0,0.0,0.0,0.0,0.0,0.0,0.0,0.0,0.0,0.0,0.0,0.0,0.0,0.0,0.0,0.0,0.0,0.0,0.0,0.0,0.0,0.0,0.0,0.0,0.0,0.0,0.0,0.0,0.0,0.0,0.0,0.0,0.0,0.0,0.0,0.0,0.0,0.0,0.0,0.0,0.0,0.0,0.0,0.0,0.0,0.0,0.0,0.0,0.0,0.0,0.0,0.0,0.0,0.0,0.0,0.0,0.0,0.0,0.0,0.0,0.0,0.0,0.0,0.0,0.0,0.0,0.0,0.0,0.0,0.0,0.0,0.0,0.0,0.0,0.0,0.0,0.0,0.0,0.0,0.0,0.0,0.0,0.0,0.0,0.0,0.0,0.0,0.0,0.0,0.0,0.0,0.0,0.0,0.0,0.0,0.0,0.0,0.0,0.0,0.0,0.0,0.0,0.0,0.0,0.0,0.0,0.0,0.0,0.0,0.0,0.0,0.0,0.0,0.0,0.0,0.0,0.0,0.0,0.0,0.0,0.0,0.0,0.0,0.0,0.0,0.0,0.0,0.0,0.0,0.0,0.0,0.0,0.0,0.0,0.0,0.0,0.0,0.0,0.0,0.0,0.0,0.0,0.0,0.0,0.0,0.0,0.0,0.0,0.0,0.0,0.0,0.0,0.0,0.0,0.0,0.0,0.0,0.0,0.0,0.0,0.0,0.0,0.0,0.0,0.0,0.0,0.0,0.0,0.0,0.0,0.0,0.0,0.0,0.0,0.0,0.0,0.0,0.0,0.0,0.0,0.0,0.0,0.0,0.0,0.0,0.0,0.0,0.0,0.0,0.0,0.0,0.0,0.0,0.0,0.0,0.0,0.0,0.0,0.0,0.0,0.0,0.0,0.0,0.0,0.0,0.0,0.0,0.0,0.0,0.0,0.0,0.0,0.0,0.0,0.0,0.0,0.0,0.0,0.0,0.0,0.0,0.0,0.0,0.0,0.0,0.0,0.0,0.0,0.0,0.0,0.0,0.0,0.0,0.0,0.0,0.0,0.0,0.0,0.0,0.0,0.0,0.0,0.0,0.0,0.0,0.0,0.0,0.0,0.0,0.0,0.0,0.0,0.0,0.0,0.0,0.0,0.0,0.0,0.0,0.0,0.0,0.0,0.0,0.0,0.0,0.0,0.0,0.0,0.0,0.0109,0.0111,0.0,0.0,0.0,0.0,0.0,0.0,0.0,0.0,0.0,0.0,0.0,0.0,0.0,0.0,0.0,0.0,0.0,0.0,0.0,0.0,0.0,0.0,0.0,0.0,0.0,0.0,0.0,0.0,0.0,0.0,0.0,0.0,0.0,0.0,0.0,0.0,0.0,0.0,0.0,0.0,0.0,0.0,0.0,0.0,0.0,0.0,0.0,0.0,0.0,0.0,0.0,0.0,0.0,0.0,0.0,0.0,0.0,0.0,0.0,0.0,0.0,0.0,0.0,0.0,0.0,0.0,0.0,0.9907,0.8533,0.0,0.0,0.0,0.0,0.0,0.0,0.0,0.0,0.0,0.0,0.0,0.0,0.0,0.0,0.0,0.0,0.0,0.0,0.0,0.0,0.0,0.0,0.0,0.0,0.0,0.0,0.0,0.0,0.0,0.0,0.0,0.0,0.0,0.0,0.0,0.0,0.0,0.0,0.0,0.0,0.0156,0.0944,0.1164,0.0107,0.0,0.0,0.0,0.0,0.0,0.0,0.0,0.0,0.0,0.0,0.0,0.0,0.0,0.0,0.0,0.0,0.0,0.0,0.0,0.0,0.0,0.0,0.0,0.0,0.0,0.0,0.0,0.0,0.0,0.0,0.0,0.0,0.0,0.0,0.0,0.0,0.0,0.0,0.0,0.0,0.0,0.0,0.0,0.0,0.0,0.0,0.0,0.0,0.0,0.0,0.0,0.0,0.0,0.0,0.0,0.0,0.0,0.0,0.0,0.0,0.0,0.0,0.0,0.0,0.0,0.0,1.0625,0.9482,0.0,0.0,0.0,0.0,0.0,0.0,0.0,0.0,0.0,0.0,0.0,0.0,0.0,0.0,0.0,0.0,0.0,0.0,0.0,0.0,0.0,0.0,0.0,0.0,0.0,0.0,0.0,0.0,0.0,0.0,0.0,0.0,0.0,0.0,0.0,0.0,0.0,0.0,0.0,0.0,0.107,0.2144,0.2458,0.1088,0.0986,0.0724,0.0051,0.0,0.0,0.0,0.0,0.0,0.0,0.0,0.0,0.0,0.0,0.0,0.0,0.0,0.0,0.0,0.0,0.0,0.0,0.0,0.0,0.0,0.0,0.0,0.0,0.0,0.0,0.0,0.0,0.0,0.0,0.0,0.0,0.0,0.0,0.0,0.0,0.0,0.0,0.0,0.0,0.0,0.0,0.0,0.0,0.0,0.0,0.0,0.0,0.0,0.0,0.0,0.0,0.0,0.0,0.0,0.0,0.0,1.3853,1.3939,1.3891,1.374,1.3762,1.3768,1.1978,1.112,1.0973,0.9482,0.0,0.0,0.0,0.0,0.0,0.0,0.0,0.0,0.0,0.0,0.0,0.0,0.0,0.0,0.0,0.0,0.0,0.0,0.0,0.0,0.0,0.0,0.8197,0.8019,0.7988,0.7924,0.7729,0.0,0.0,0.0,0.0,0.0,0.0,0.0,0.0,0.0,0.0,0.0,0.2359,0.3516,0.3817,0.2514,0.2163,0.1561,0.0454,0.0151,0.01,0.0345,0.0344,0.0435,0.0,0.0,0.0,0.0,0.0,0.0,0.0,0.0,0.0,0.0,0.0,0.0,0.0,0.0,0.0,0.0,0.0,0.0,0.0,0.0,0.0,0.0,0.0,0.0,0.0,0.0,0.0,0.0,0.0,0.0,0.0,0.0,1.5992,1.658,0.0,0.0,0.0,0.0,0.0,0.0,0.0,0.0,0.0,0.0,0.0,0.0,0.0,1.3308,1.3219,1.4486,1.4987,1.4769,1.6089,1.6542,1.6252,1.6213,1.6219,1.6195,1.4829,0.0,1.2389,1.098,0.0,0.0,0.0,0.0,0.0,0.0,0.0,0.0,0.0,0.0,0.0,0.0,0.0,0.0,0.0,0.0,0.0,0.0,0.0,0.0,0.0,0.0,0.8015,0.7995,0.7988,0.7978,0.7941,0.7944,0.7914,0.7814,0.7652,0.7169,0.0,0.0,0.0,0.0,0.0,0.0,0.3864,0.492,0.5222,0.3865,0.2715,0.1913,0.1762,0.0656,0.0504,0.1655,0.1728,0.2245,0.3447,0.3371,0.0,0.0,0.0,0.0,0.0,0.0,0.0,0.0,0.0,0.0,0.0,0.0,0.0,0.0,0.0,0.0,0.0,0.0,0.0,0.0,0.0,0.0,0.0,0.0,0.0,0.0,0.0,0.0,0.0,1.6279,1.6667,1.6978,1.6891,1.6864,0.0,0.0,0.0,0.0,0.0,0.0,0.0,0.0,0.0,1.551,1.563,1.5743,1.5743,1.6333,1.6601,1.648,1.7121,1.7321,1.7201,1.7201,1.7201,1.7143,1.6613,1.596,1.5018,1.1959,1.0544,1.0168,0.0,0.0,0.0,0.0,0.8286,0.8153,0.8241,0.8214,0.8102,0.7882,0.0,0.0,0.0,0.0,0.0,0.0,0.0,0.837,0.8344,0.8221,0.8147,0.8012,0.7988,0.7988,0.7988,0.7988,0.7971,0.7901,0.8011,0.7839,0.7159,0.6399,0.0,0.0,0.0,0.5777,0.5222,0.6276,0.6631,0.5272,0.4622,0.3919,0.3165,0.2564,0.2514,0.3065,0.3141,0.3409,0.3962,0.3943,0.3631,0.0,0.0,0.0,0.0,0.0,0.0,0.0,0.0,0.0,0.0,0.0,0.0,0.0,0.0,0.0,0.0,0.0,0.0,0.0,0.0,0.0,0.0,0.0,0.0,0.0,0.0,0.0,0.0,1.6811,1.7112,1.7192,1.7266,1.7286,0.0,0.0,0.0,0.0,0.0,0.0,1.7569,1.7582,1.7615,1.7689,1.7769,1.7776,1.7702,1.7702,1.7662,1.7582,1.7582,1.7582,1.7582,1.7582,1.7582,1.7582,1.7582,1.7375,1.6752,1.2869,1.1133,1.0724,0.905,0.8508,0.8733,0.8529,0.8487,0.8557,0.8381,0.8197,0.8072,0.7919,0.7868,0.7848,0.7743,0.0,0.0,0.0,0.0,0.8404,0.835,0.8241,0.818,0.8015,0.7988,0.7988,0.7988,0.8022,0.8039,0.7995,0.8133,0.8174,0.8008,0.7182,0.0,0.6531,0.6531,0.6531,0.6531,0.7385,0.7637,0.6631,0.6229,0.5575,0.4618,0.4216,0.4166,0.4468,0.4518,0.464,0.5023,0.4997,0.476,0.4318,0.0,0.0,0.0,0.0,0.0,0.0,0.0,0.0,0.0,0.0,0.0,0.0,0.0,0.0,0.0,0.0,0.0,0.0,0.0,0.0,0.0,0.0,0.0,0.0,0.0,0.0,0.0,0.0,0.0,1.7166,1.744,0.0,0.0,0.0,0.0,1.7582,1.7353,1.7326,1.7569,1.7582,1.7709,1.7983,1.8283,1.831,1.7969,1.7969,1.7876,1.7582,1.7582,1.7582,1.7582,1.7582,1.7582,1.7582,1.7582,1.7255,1.652,1.3789,1.2537,1.2024,0.9157,0.8794,0.9789,0.8726,0.9071,0.9902,0.8718,0.8316,0.8235,0.8079,0.7978,0.7978,0.7971,0.813,0.0,0.0,0.8333,0.833,0.8323,0.8163,0.7998,0.7992,0.7988,0.7988,0.7988,0.8153,0.8214,0.8019,0.7995,0.7998,0.7992,0.0,0.7889,0.7889,0.7889,0.7889,0.7889,0.7939,0.7988,0.7889,0.6781,0.5979,0.5927,0.4718,0.4518,0.5827,0.5879,0.6478,0.7726,0.769,0.7011,0.573,0.5423,0.0,0.0,0.0,0.0,0.0,0.0,0.0,0.0,0.0,0.0,0.0,0.0,0.0,0.0,0.0,0.0,0.0,0.0,0.0,0.0,0.0,0.0,0.0,0.0,0.0,0.0,0.0,0.0,1.7415,1.7522,0.0,1.7494,1.7448,1.7582,1.7862,1.7602,1.7642,1.8143,1.817,1.8303,1.8591,1.8531,1.8531,1.8555,1.8182,1.7935,1.7883,1.7675,1.7582,1.7582,1.7582,1.7582,1.7582,1.7582,1.7355,1.6872,1.4922,1.3796,1.3078,1.0364,0.9558,0.9862,0.8596,0.8417,0.8711,0.8267,0.8123,0.8113,0.8008,0.7988,0.8008,0.816,0.8225,0.8323,0.8323,0.8323,0.8248,0.8147,0.8029,0.7988,0.7988,0.7988,0.7988,0.7988,0.8032,0.8106,0.8002,0.8119,0.8157,0.8008,0.7988,0.7988,0.7988,0.7988,0.7988,0.7988,0.7988,0.7988,0.7988,0.7587,0.7285,0.7285,0.6828,0.6743,0.7156,0.715,0.731,0.7712,0.7702,0.7412,0.6845,0.661,0.5522,0.0,0.0,0.0,0.0,0.0,0.0,0.0,0.0,0.0,0.0,0.0,0.0,0.0,0.0,0.0,0.0,0.0,0.0,0.0,0.0,0.0,0.0,0.0,0.0,0.0,1.7911,1.7943,1.7487,1.7615,1.7662,1.7455,1.7588,1.7729,1.7969,1.7949,1.811,1.8611,1.8637,1.8771,1.9065,1.8891,1.8831,1.8925,1.8382,1.8089,1.7989,1.7736,1.7582,1.7582,1.7582,1.7582,1.7582,1.7582,1.7361,1.693,1.5904,1.5097,1.4268,1.1648,1.0921,1.1161,0.9801,0.9604,0.994,0.946,0.9019,0.8676,0.8676,0.8382,0.8008,0.8163,0.8194,0.8194,0.8194,0.8194,0.817,0.8015,0.7988,0.7988,0.7988,0.7988,0.7988,0.7988,0.7988,0.7988,0.7988,0.8123,0.816,0.8008,0.7988,0.8008,0.8109,0.8022,0.8008,0.8109,0.8022,0.7988,0.7988,0.7988,0.7988,0.7988,0.7988,0.7944,0.7896,0.7838,0.777,0.7675,0.7672,0.76,0.7451,0.7295,0.6228,0.4198,0.0,0.0,0.0,0.0,0.0,0.0,0.0,0.0,0.0,0.0,0.0,0.0,0.0,0.0,0.0,0.0,0.0,0.0,0.0,0.0,0.0,0.0,0.0,1.8523,1.8755,1.852,1.7367,1.7675,1.7802,1.7273,1.7963,1.8364,1.8029,1.8337,1.8631,1.8918,1.8938,1.9065,1.9417,1.9424,1.9232,1.8945,1.8637,1.8343,1.8002,1.7736,1.7582,1.7582,1.7582,1.7582,1.7582,1.7582,1.7248,1.6707,1.6707,1.6359,1.5534,1.2963,1.2764,1.3734,1.2382,1.2716,1.3632,1.2334,1.1068,1.0047,1.0047,0.9167,0.8038,0.8038,0.8038,0.7988,0.7988,0.7988,0.7988,0.7988,0.7988,0.7988,0.7988,0.7988,0.7988,0.7988,0.7988,0.7988,0.7988,0.7988,0.7988,0.7988,0.7988,0.8092,0.8241,0.8136,0.0,0.8245,0.8133,0.7992,0.7995,0.7995,0.7995,0.7995,0.7995,0.7992,0.7978,0.7885,0.7801,0.7797,0.7797,0.7733,0.7594,0.7441,0.6678,0.5411,0.0,0.0,0.0,0.0,0.0,0.0,0.0,0.0,0.0,0.0,0.0,0.0,0.0,0.0,0.0,0.0,0.0,0.0,0.0,0.0,0.0,2.1333,2.0774,1.9077,1.8336,1.7873,1.7514,1.7609,1.7649,1.7475,1.7889,1.8223,1.8357,1.8644,1.8931,1.9232,1.9245,1.9279,1.9424,1.9424,1.9383,1.9245,1.8744,1.845,1.8364,1.7836,1.7582,1.7582,1.7582,1.7582,1.7582,1.7582,1.7248,1.6707,1.6707,1.6359,1.5635,1.3974,1.359,1.3734,1.2382,1.2139,1.2382,1.2042,1.1653,1.1365,1.1365,1.0485,0.946,0.946,0.8775,0.7988,0.7988,0.7988,0.7988,0.7988,0.7988,0.7988,0.7988,0.7988,0.7988,0.7988,0.7988,0.7988,0.7988,0.7988,0.7988,0.7988,0.7988,0.8005,0.8096,0.8015,0.8005,0.8099,0.8015,0.8032,0.8197,0.8208,0.8208,0.8208,0.8208,0.8069,0.774,0.7682,0.7607,0.7495,0.7492,0.7475,0.7434,0.6463,0.5777,0.0,0.0,0.0,0.0,0.0,0.0,0.0,0.0,0.0,0.0,0.0,0.0,0.0,0.0,0.0,0.0,0.0,0.0,0.0,0.0,0.0,0.0,2.2537,2.2202,2.0843,1.9697,1.8654,1.772,1.7582,1.7582,1.7582,1.7976,1.8303,1.8477,1.8878,1.9185,1.9417,1.9424,1.9424,1.9424,1.9424,1.9424,1.9424,1.8784,1.849,1.8484,1.7876,1.7582,1.7582,1.7582,1.7582,1.7582,1.7582,1.7248,1.6707,1.6707,1.6359,0.0,0.0,0.0,0.0,0.0,1.3547,1.3547,1.3547,1.3156,1.2721,1.2721,1.1843,1.0779,1.0779,0.9899,0.8825,0.8825,0.8432,0.7988,0.7988,0.7988,0.7988,0.7988,0.7988,0.7988,0.7988,0.7988,0.7988,0.7988,0.7988,0.0,0.7988,0.7988,0.8012,0.8126,0.8029,0.8012,0.813,0.8029,0.8022,0.8163,0.8174,0.8174,0.8174,0.8174,0.0,0.0,0.0,0.7621,0.7472,0.7465,0.0,0.0,0.0,0.0,0.0,0.0,0.0,0.0,0.519,0.4986,0.0,0.0,0.0,0.0,0.0,0.0,0.0,0.0,0.0,0.0,0.0,0.0,0.0,0.0,0.0,0.0,2.2862,2.3202,2.3102,2.1912,2.0287,1.806,1.7687,1.7595,1.7629,1.815,1.8504,1.8537,1.9052,1.9424,1.9424,1.9424,0.0,0.0,0.0,1.9424,1.9424,1.8784,1.849,1.8484,1.7876,1.7582,1.7582,1.7582,1.7582,1.7582,1.7582,1.7248,1.6707,1.6707,1.6359,1.5784,1.5784,1.5784,1.5784,1.5784,1.5784,1.5784,1.5784,0.0,0.0,1.4118,1.3199,1.2139,1.2139,1.1214,1.0194,1.0194,0.9361,0.8432,0.8432,0.8432,0.8382,0.8283,0.8233,0.8187,0.8038,0.7988,0.7988,0.7988,0.7988,0.7988,0.7988,0.7988,0.8085,0.8225,0.813,0.8039,0.8225,0.8126,0.7995,0.8015,0.0,0.0,0.8015,0.8015,0.8002,0.7968,0.7885,0.7753,0.7628,0.7624,0.7682,0.7811,0.7794,0.7787,0.7787,0.7891,0.7879,0.7577,0.5441,0.5056,0.0,0.0,0.0,0.0,0.0,0.0,0.0,0.0,0.0,0.0,0.0,0.0,0.0,0.0,0.0,2.4862,2.4794,2.444,2.3677,2.2405,2.0961,1.9413,1.8244,1.7682,1.7876,1.8283,1.8591,1.8824,1.9165,1.9424,1.9424,1.9424,1.9424,1.9424,1.9424,1.9424,1.9424,1.8784,1.849,1.8484,1.7876,0.0,1.7582,1.7582,1.7582,1.7582,1.7582,1.7248,1.6707,1.6707,1.6359,1.5784,1.5784,1.5784,1.5784,1.5784,1.5784,1.5784,1.5784,1.5635,1.5439,1.5439,1.4561,1.3488,1.3488,1.2571,0.0,1.1512,1.1361,1.1165,1.1165,1.1165,1.0877,0.985,0.9608,0.9312,0.8233,0.7988,0.7988,0.7988,0.7988,0.7988,0.7988,0.7988,0.8002,0.8029,0.8008,0.8002,0.8029,0.8008,0.8039,0.8211,0.8225,0.8225,0.8225,0.8225,0.8119,0.7872,0.7828,0.7797,0.777,0.777,0.7784,0.7811,0.7699,0.7641,0.7641,0.7784,0.7824,0.7773,0.74,0.7309,0.0,0.0,0.0,0.0,0.0,0.0,0.0,0.0,0.0,0.0,0.0,2.4238,2.4658,0.0,2.5146,2.5371,2.54,2.5228,2.4786,2.3534,2.1904,1.9826,1.8401,1.7702,1.7962,1.8317,1.8611,1.8905,1.9199,1.9424,1.9424,1.9424,1.9424,1.9424,1.9424,1.9299,1.9145,1.8711,1.8417,1.8263,1.7802,1.7582,1.7582,1.7582,1.7582,1.7582,1.7582,1.7248,1.6687,1.6386,1.6044,1.5784,1.5784,1.5784,1.5784,1.5784,1.5784,1.5784,1.5784,1.5784,1.5784,1.5784,1.5384,1.4854,1.4854,1.3932,1.2909,1.2909,1.2431,1.1896,1.1896,1.1896,1.175,1.1121,1.0974,1.0779,1.0092,0.946,0.9019,0.9019,0.8482,0.7988,0.7988,0.7988,0.7988,0.7988,0.7988,0.7988,0.7988,0.7988,0.8019,0.8147,0.8153,0.8153,0.8153,0.8153,0.8089,0.7887,0.7877,0.7889,0.7814,0.7811,0.7811,0.7811,0.7743,0.7743,0.7821,0.7889,0.7877,0.7877,0.7955,0.7948,0.0,0.0,0.0,0.0,0.0,0.0,0.0,2.3344,2.3539,2.4277,2.4482,2.4648,2.5047,2.5498,2.5713,2.5273,2.5576,2.5781,2.5703,2.4559,2.2876,2.0641,1.8961,1.8041,1.8096,1.835,1.8637,1.8985,1.9232,1.9424,1.9424,1.9424,1.9424,1.9424,1.9424,1.9225,1.8925,1.8637,1.8343,1.7989,1.7736,1.7582,1.7582,1.7582,1.7582,1.7575,1.7462,1.7141,1.666,1.6072,1.5784,1.5784,1.5784,1.5784,1.5784,1.5784,1.5784,1.5784,1.5784,1.5784,1.5784,1.5784,1.5784,1.5784,1.5784,1.5092,1.4262,1.4262,1.3494,1.2673,1.2673,1.2673,1.2576,1.2334,1.2285,1.2237,1.1945,1.1068,1.0386,1.0386,0.9509,0.8775,0.8775,0.8775,0.8577,0.8088,0.7988,0.7988,0.7988,0.7988,0.7988,0.7988,0.7988,0.7988,0.7988,0.7988,0.7988,0.7988,0.7988,0.7934,0.7862,0.7855,0.7855,0.7855,0.7855,0.7916,0.7988,0.7988,0.7988,0.7988,0.7988,0.7988,2.5712,2.6019,2.6179,2.5443,2.5253,2.5033,0.0,2.4268,2.4297,2.4394,2.4727,2.5057,2.5106,2.5752,2.6172,2.5684,2.6025,2.6182,2.5742,2.4559,2.3583,2.3285,2.0947,1.9153,1.8494,1.847,1.8718,1.9279,1.941,1.9424,1.9424,1.9424,1.9424,1.9424,1.9424,1.9225,1.8925,1.8637,1.8343,1.7989,1.7736,1.7582,1.7582,1.7582,1.7582,1.7555,1.7027,1.6767,1.666,1.6072,1.5784,1.5784,1.5784,1.5784,1.5784,1.5784,1.5784,1.5784,1.5784,1.5784,1.5784,1.5784,1.5784,1.5784,1.5784,1.5683,1.5588,1.5588,1.5486,1.5343,1.5343,1.5343,1.5099,1.3926,1.3686,1.3343,1.2139,1.1799,1.1707,1.1707,1.156,1.1458,1.1458,1.1458,1.0681,0.8333,0.7988,0.7988,0.7988,0.7988,0.7988,0.7988,0.7988,0.7988,0.7988,0.7988,0.7988,0.7988,0.7988,0.7982,0.7965,0.7965,0.7965,0.7965,0.7965,0.7971,0.7988,0.7988,0.7988,0.7988,0.7988,0.7988,2.7953,2.8007,2.7706,2.7118,2.6681,2.6066,2.4916,2.4642,2.4583,2.4444,2.456,2.4844,2.5361,2.5967,2.6328,2.6143,2.6475,2.6602,2.6172,2.5599,2.488,2.3818,2.2676,2.1382,1.9808,1.9545,1.9402,1.9421,1.9205,1.9185,1.9417,1.9424,1.9424,1.9424,1.9199,1.8971,1.8677,1.8377,1.8076,1.7776,1.7642,1.7582,1.7582,1.7582,1.7488,1.736,1.6887,1.6607,1.642,1.5999,1.5784,1.5784,1.5784,1.5784,1.5784,1.5784,1.5784,1.5784,1.5784,1.5784,1.5784,1.5784,1.5784,1.5784,1.5784,1.5784,1.5784,1.5784,1.5784,1.5784,1.5784,1.5784,1.5683,1.5146,1.4997,1.4854,1.4274,1.359,1.3054,1.3054,1.2431,1.1896,1.1896,1.1896,1.1512,1.0435,0.9653,0.9167,0.9167,0.8482,0.7988,0.7988,0.7988,0.7988,0.7988,0.7988,0.7988,0.7988,0.7988,0.7988,0.7988,0.7988,0.7988,0.7988,0.7988,0.7988,0.7988,0.7988,0.7988,0.7988,0.7988,0.7988,2.9528,2.933,2.8727,2.8235,2.7708,2.7012,2.558,2.5105,2.4927,2.4726,2.451,2.4648,2.541,2.6006,2.6387,2.6387,2.6846,2.7002,2.6465,2.6387,2.5902,2.4607,2.4421,2.3755,2.2011,2.11,2.0647,2.0644,1.9912,1.9601,1.9961,1.9649,1.939,1.9252,1.9038,1.8744,1.837,1.8102,1.7889,1.7582,1.7582,1.7582,1.7582,1.7502,1.74,1.7179,1.6747,1.6466,1.6253,1.5952,1.5784,1.5784,1.5784,1.5784,1.5784,1.5784,1.5784,1.5784,1.5784,1.5784,1.5784,1.5784,1.5784,1.5784,1.5784,1.5784,1.5784,1.5784,1.5784,1.5784,1.5784,1.5784,1.5784,1.5784,1.5784,1.5784,1.5784,1.5092,1.4411,1.4411,1.3638,1.2969,1.2969,1.2969,1.2969,1.2969,1.1891,1.0921,1.0583,0.9653,0.9065,0.9065,0.9065,0.892,0.8577,0.8528,0.8382,0.8038,0.7988,0.7988,0.7988,0.7988,0.7988,0.7988,0.7988,0.7988,0.7988,0.7988,0.7988,0.7988,0.7988,0.7988,2.9628,2.9352,2.8785,2.8215,2.8068,2.7787,2.6689,2.5925,2.5359,2.539,2.4871,2.4551,2.501,2.5801,2.6387,2.6387,2.71,2.7405,2.6504,2.6387,2.6387,2.6317,2.6317,2.6063,2.5298,2.3311,2.2507,2.3572,2.1886,2.1011,2.1506,2.0206,1.9232,1.8945,1.8925,1.8644,1.8009,1.7995,1.7889,1.7582,1.7582,1.7582,1.7569,1.734,1.7206,1.7166,1.6583,1.6328,1.6253,1.5952,1.5784,1.5784,1.5784,1.5784,1.5784,1.5784,1.5784,1.5784,1.5784,1.5784,1.5784,1.5784,1.5784,1.5784,1.5784,1.5784,1.5784,1.5784,1.5784,1.5784,1.5784,1.5784,1.5784,1.5784,1.5784,1.5784,1.5784,1.5784,1.573,1.573,1.573,1.5683,1.5683,1.5683,1.5683,1.5683,1.4609,1.3295,1.1994,1.1799,1.1799,1.1799,1.1799,1.1263,1.0047,0.9953,0.9361,0.8088,0.7988,0.7988,0.7988,0.7988,0.7988,0.7988,0.7988,0.7988,0.7988,0.7988,0.7988,0.7988,0.7988,0.7988,2.9277,2.9365,2.9464,2.9277,2.9236,2.8949,2.7815,2.7365,2.6827,2.5645,2.5478,2.5452,2.5169,2.5791,2.6484,2.6758,2.7295,2.762,2.7275,2.7236,2.7129,2.6836,2.6807,2.6817,2.6941,2.4902,2.3608,2.3795,2.2715,2.237,2.3007,2.2337,2.1888,2.1773,2.0423,1.9614,1.9398,1.8302,1.7689,1.7582,1.7582,1.7534,1.734,1.7246,1.6991,1.661,1.6409,1.6159,1.5972,1.5872,1.5784,1.5784,1.5784,1.5784,1.5784,1.5784,1.5784,1.5784,1.5784,1.5784,1.5784,1.5784,1.5784,1.5784,1.5784,1.5784,1.5784,1.5784,1.5784,1.5784,1.5784,1.5784,1.5784,1.5784,1.5784,1.5784,1.5784,1.5784,1.5784,1.5784,1.5784,1.5784,1.5784,1.5784,1.5784,1.5784,1.4704,1.3445,1.2091,1.1896,1.1896,1.1896,1.1896,1.1755,1.1317,1.1268,1.1072,1.0632,0.9801,0.9316,0.9316,0.8482,0.7988,0.7988,0.7988,0.7988,0.7988,0.7988,0.7988,0.7988,0.7988,0.7988,2.8938,2.9202,2.9528,2.9741,2.9792,2.9624,2.8858,2.8386,2.7777,2.6612,2.6086,2.5785,2.5526,2.5964,2.6523,2.6943,2.751,2.7832,2.7738,2.7718,2.7611,2.7285,2.7246,2.7412,2.7851,2.6484,2.5509,2.5428,2.4306,2.3951,2.4565,2.3703,2.3127,2.305,2.1573,2.0746,2.0666,1.9576,1.8805,1.8297,1.7838,1.7481,1.7199,1.7092,1.6777,1.6315,1.6159,1.6005,1.5784,1.5784,1.5784,1.5784,1.5784,1.5784,1.5784,1.5784,1.5784,1.5784,1.5784,1.5784,1.5784,1.5784,1.5784,1.5784,1.5784,1.5784,1.5784,1.5784,1.5784,1.5784,1.5784,1.5784,1.5784,1.5784,1.5784,1.5784,1.5784,1.5784,1.5784,1.5784,1.5784,1.5784,1.5784,1.5784,1.5784,1.5784,1.5092,1.4268,1.3397,1.3307,1.3307,1.3307,1.3307,1.3108,1.2673,1.2624,1.2431,1.1945,1.1116,1.0681,1.0681,0.941,0.8726,0.8726,0.8237,0.7988,0.7988,0.7988,0.7988,0.7988,0.7988,0.7988,2.8787,2.8913,2.9063,2.9654,2.9792,2.9792,2.9792,2.8976,2.8176,2.8124,2.6738,2.5625,2.5999,2.6215,2.6494,2.6914,2.7685,2.8105,2.7796,2.7748,2.7748,2.7748,2.7748,2.7851,2.8252,2.793,2.7861,2.8262,2.6561,2.572,2.6164,2.4387,2.3257,2.2892,2.243,2.2066,2.1803,2.1744,2.1041,1.9679,1.8387,1.761,1.7364,1.6965,1.6626,1.633,1.5952,1.5784,1.5784,1.5784,1.5784,1.5784,1.5784,1.5784,1.5784,1.5784,1.5784,1.5784,1.5784,1.5784,1.5784,1.5784,1.5784,1.5784,1.5784,1.5784,1.5784,1.5784,1.5784,1.5784,1.5784,1.5784,1.5784,1.5784,1.5784,1.5784,1.5784,1.5784,1.5784,1.5784,1.5784,1.5784,1.5784,1.5784,1.5784,1.5784,1.5784,1.5784,1.5784,1.5784,1.5784,1.5784,1.5784,1.5289,1.4118,1.4022,1.3445,1.2188,1.2042,1.1994,1.1994,1.0779,1.0096,1.0096,0.8775,0.8088,0.8088,0.8038,0.7988,0.7988,0.7988,0.7988,2.9025,2.9239,2.9616,2.9754,2.9792,2.9792,2.9792,2.9585,2.9118,2.8267,2.7554,2.6791,2.5765,2.5742,2.6045,2.6475,2.6992,2.7529,2.8057,2.8135,2.8135,2.8135,2.8135,2.8174,2.8281,2.8193,2.8174,2.8281,2.7564,2.7161,2.7266,2.6489,2.5858,2.5455,2.4052,2.3282,2.3176,2.2206,2.1499,2.1143,2.0466,1.9967,1.9679,1.8342,1.7599,1.7294,1.6238,1.5784,1.5784,1.5784,1.5784,1.5784,1.5784,1.5784,1.5784,1.5784,1.5784,1.5784,1.5784,1.5784,1.5784,1.5784,1.5784,1.5784,1.5784,1.5784,1.5784,1.5784,1.5784,1.5784,1.5784,1.5784,1.5784,1.5784,1.5784,1.5784,1.5784,1.5784,1.5784,1.5784,1.5784,1.5784,1.5784,1.5784,1.5784,1.5784,1.5784,1.5784,1.5784,1.5784,1.5784,1.5784,1.5784,1.5683,1.5337,1.5343,1.5146,1.4806,1.3926,1.3392,1.3392,1.2134,1.1414,1.1414,1.0145,0.9509,0.9509,0.8482,0.7988,0.7988,0.7988,0.7988,2.9138,2.9352,2.9792,2.9792,2.9792,2.9854,3.0093,3.0156,3.0049,2.9613,2.9206,2.8402,2.678,2.7066,2.7303,2.6537,2.7331,2.8121,2.83,2.8291,2.8291,2.8291,2.8291,2.8291,2.8291,2.8291,2.8291,2.8291,2.8076,2.7914,2.7728,2.7246,2.6826,2.6396,2.5189,2.4559,2.4559,2.3226,2.2481,2.2259,2.1403,2.0736,2.0274,1.9328,1.873,1.8457,1.7708,1.7436,1.7436,1.7436,1.7436,1.7436,1.7436,1.7117,1.6622,1.6622,1.6292,1.5784,1.5784,1.5784,1.5784,1.5784,1.5784,1.5784,1.5784,1.5784,1.5784,1.5784,1.5784,1.5784,1.5784,1.5784,1.5784,1.5784,1.5784,1.5784,1.5784,1.5784,1.5784,1.5784,1.5784,1.5784,1.5784,1.5784,1.5784,1.5784,1.5784,1.5784,1.5784,1.5784,1.5731,1.5651,1.5638,1.5638,1.5638,1.5638,1.5691,1.5771,1.5146,1.4752,1.4752,1.3494,1.277,1.277,1.1507,1.0583,0.9998,0.9266,0.8581,0.7988,0.7988,0.7988,2.9438,2.9517,2.9792,2.9792,2.9792,2.9942,3.0495,3.062,3.0758,3.1286,3.087,2.9859,2.8157,2.8936,2.9121,2.6951,2.8125,2.9157,2.8618,2.8388,2.8291,2.8291,2.8291,2.8291,2.8291,2.8291,2.8291,2.8291,2.8242,2.8027,2.765,2.7168,2.6738,2.6318,2.5937,2.5693,2.5693,2.4503,2.3684,2.3232,2.1993,2.1021,2.0399,2.0209,1.997,1.9716,1.9588,1.9497,1.9497,1.9497,1.9497,1.9497,1.9497,1.8864,1.7917,1.7777,1.699,1.6015,1.5879,1.5784,1.5784,1.5784,1.5784,1.5784,1.5784,1.5784,1.5784,1.5784,1.5784,1.5784,1.5784,1.5784,1.5784,1.5784,1.5784,1.5784,1.5784,1.5784,1.5784,1.5784,1.5784,1.5784,1.5784,1.5784,1.5784,1.5784,1.5784,1.5784,1.5784,1.5784,1.5732,1.5478,1.5418,1.5411,1.5451,1.5418,1.5518,1.5764,1.5784,1.5784,1.5784,1.4752,1.4166,1.4166,1.2861,1.1604,1.0534,1.0342,0.9558,0.8283,0.8283,0.8187,3.0903,3.0304,2.9792,2.9792,2.9792,2.9942,3.0495,3.062,3.0758,3.1286,3.087,2.9797,2.7759,2.8208,2.8549,2.76,2.7942,2.8674,2.9787,2.9006,2.8291,2.8291,2.8291,2.8291,2.8291,2.8291,2.8291,2.8291,2.7969,2.7588,2.7148,2.6728,2.6299,2.5859,2.5732,2.5693,2.5693,2.516,2.4842,2.4707,2.3773,2.3271,2.3074,2.169,2.1042,2.0935,1.9943,1.9497,1.9497,1.9497,1.9497,1.9497,1.9497,1.936,1.9093,1.8048,1.7552,1.7225,1.6157,1.5784,1.5784,1.5784,1.5784,1.5784,1.5784,1.5784,1.5784,1.5784,1.5784,1.5784,1.5784,1.5784,1.5784,1.5784,1.5784,1.5784,1.5784,1.5784,1.5784,1.5784,1.5784,1.5784,1.5784,1.5784,1.5784,1.5784,1.5784,1.5784,1.5784,1.5784,1.5764,1.5758,1.5538,1.5491,1.5684,1.5531,1.5518,1.5764,1.5784,1.5784,1.5784,1.5588,1.5486,1.5486,1.422,1.344,1.3199,1.2086,1.0925,0.9657,0.9657,0.9069,3.1359,3.052,2.9792,2.9792,2.9792,3.0005,3.0834,3.1022,3.126,3.2102,3.2029,3.1246,2.9375,3.0083,3.0299,2.8305,2.9121,2.9833,2.9319,2.9058,2.8745,2.8368,2.8291,2.8291,2.8291,2.8291,2.8203,2.7988,2.7568,2.7236,2.7021,2.6406,2.5908,2.5693,2.5693,2.5577,2.5391,2.5223,2.4891,2.4404,2.3984,2.3672,2.3393,2.2587,2.2262,2.2217,2.1632,2.1364,2.1364,2.1364,2.1364,2.1364,2.1364,2.0989,2.035,1.9807,1.9177,1.8449,1.7217,1.6803,1.6669,1.6015,1.5784,1.5784,1.5784,1.5784,1.5784,1.5784,1.5784,1.5784,1.5784,1.5784,1.5784,1.5784,1.5784,1.5784,1.5784,1.5784,1.5784,1.5784,1.5784,1.5784,1.5784,1.5784,1.5784,1.5784,1.5784,1.5784,1.5784,1.5784,1.5772,1.5618,1.5478,1.5451,1.5591,1.5478,1.5518,1.5764,1.5784,1.5784,1.5784,1.5784,1.5784,1.5784,1.5194,1.4561,1.3926,1.3247,1.228,1.0974,1.0293,0.9657,3.1489,3.052,2.9792,2.9792,2.9792,3.0068,3.1148,3.1386,3.1712,3.2885,3.3124,3.2592,3.0915,3.1872,3.2008,2.9338,3.0348,3.0997,2.9591,2.9539,2.9467,2.8807,2.8751,2.8601,2.8344,2.8213,2.8018,2.7738,2.7178,2.6846,2.6748,2.6054,2.5693,2.5693,2.5644,2.543,2.5116,2.493,2.4463,2.3789,2.3691,2.3467,2.3091,2.3091,2.3091,2.3091,2.3091,2.3091,2.3091,2.3091,2.3091,2.3091,2.3091,2.2536,2.1658,2.1391,2.0711,1.9716,1.8503,1.8095,1.7909,1.6936,1.6244,1.5784,1.5784,1.5784,1.5784,1.5784,1.5784,1.5784,1.5784,1.5784,1.5784,1.5784,1.5784,1.5784,1.5784,1.5784,1.5784,1.5784,1.5784,1.5784,1.5784,1.5784,1.5784,1.5784,1.5784,1.5784,1.5784,1.5784,1.5745,1.5511,1.5431,1.5424,1.5484,1.5431,1.5518,1.5764,1.5784,1.5784,1.5784,1.5784,1.5784,1.5784,1.5784,1.5289,1.4316,1.4316,1.3638,1.2285,1.1312,1.0681,3.1609,3.052,2.9792,2.9792,2.9792,3.0068,3.1148,3.1386,3.1712,3.2885,3.3124,3.2592,3.0915,3.1509,3.2029,3.1223,3.0537,3.0778,3.2752,3.1416,3.0224,3.011,3.012,2.966,2.8398,2.7949,2.7757,2.7718,2.6914,2.6269,2.583,2.5732,2.5693,2.5693,2.5342,2.5155,2.5116,2.4297,2.3867,2.3779,2.3389,2.314,2.3091,2.3091,2.3091,2.3091,2.3091,2.3091,2.3091,2.3091,2.3091,2.3091,2.3091,2.3047,2.2818,2.1702,2.1248,2.098,1.9761,1.9314,1.9314,1.9222,1.7623,1.5784,1.5784,1.5784,1.5784,1.5784,1.5784,1.5784,1.5784,1.5784,1.5784,1.5784,1.5784,1.5784,1.5784,1.5784,1.5784,1.5784,1.5784,1.5784,1.5784,1.5784,1.5784,1.5784,1.5784,1.5784,1.5784,1.5784,1.5771,1.5792,1.5558,1.5504,1.5718,1.5545,1.5518,1.5764,1.5784,1.5784,1.5784,1.5784,1.5784,1.5784,1.5784,1.573,1.5635,1.5635,1.4949,1.3734,1.3584,1.2909,3.2376,3.1365,3.052,2.9934,2.9792,3.0068,3.1148,3.1386,3.1712,3.2885,3.3124,3.292,3.2241,3.2461,3.2506,3.1807,3.2024,3.1935,3.0811,3.0647,3.0489,2.9979,2.9219,2.8813,2.9115,2.8267,2.7503,2.6934,2.6338,2.5918,2.5703,2.5693,2.5693,2.5693,2.5303,2.4941,2.4678,2.4092,2.3662,2.3398,2.3179,2.3091,2.3091,2.3091,2.3091,2.3091,2.3091,2.3091,2.3091,2.3091,2.3091,2.3091,2.3091,2.3091,2.3047,2.2536,2.2403,2.2217,2.098,2.0576,2.044,1.9716,1.881,1.7894,1.7171,1.6943,1.6763,1.6015,1.5784,1.5784,1.5784,1.5784,1.5967,1.6763,1.6943,1.7124,1.7848,1.8033,1.8033,1.8033,1.7444,1.6943,1.6943,1.6298,1.5784,1.5784,1.5784,1.5784,1.5784,1.5784,1.5784,1.5784,1.5678,1.5705,1.5771,1.5678,1.5705,1.5771,1.5784,1.5784,1.5784,1.5784,1.5784,1.5784,1.5784,1.5784,1.5784,1.5784,1.5534,1.5045,1.4268,1.359,3.2577,3.1706,3.097,3.0037,2.9917,3.0281,3.1185,3.1512,3.1901,3.2923,3.3124,3.3124,3.3124,3.3124,3.2922,3.2329,3.2849,3.2666,3.0796,3.1191,3.1521,3.1135,3.0075,2.9493,2.9697,2.8268,2.6982,2.625,2.5908,2.5693,2.5693,2.5605,2.5537,2.5537,2.5107,2.4668,2.4238,2.3809,2.3437,2.3091,2.3091,2.3091,2.3091,2.3091,2.3091,2.3091,2.3091,2.3091,2.3091,2.3091,2.3091,2.3091,2.3091,2.3091,2.3091,2.3091,2.3091,2.3003,2.212,2.1845,2.1712,2.0854,2.0539,2.0359,1.9131,1.8503,1.8048,1.7163,1.6882,1.6882,1.6882,1.6882,1.7117,1.7994,1.8226,1.8457,1.9314,1.9497,1.9497,1.9497,1.8818,1.8226,1.8226,1.7171,1.6339,1.6339,1.6062,1.5784,1.5784,1.5784,1.5784,1.5784,1.5784,1.5784,1.5784,1.5784,1.5784,1.5784,1.5784,1.5784,1.5784,1.5784,1.5784,1.5784,1.5784,1.5784,1.5784,1.5784,1.5784,1.5784,1.4902,1.4268,3.1904,3.1217,3.097,3.0037,3.0206,3.0746,3.1273,3.1813,3.2365,3.2955,3.3124,3.3124,3.3124,3.3124,3.3081,3.3081,3.2414,3.2575,3.44,3.3973,3.3671,3.4265,3.3801,3.2434,2.9939,2.7723,2.6221,2.5732,2.5693,2.5693,2.5693,2.5322,2.5125,2.5125,2.4648,2.4219,2.3799,2.3315,2.3101,2.3091,2.3091,2.3091,2.3091,2.3091,2.3091,2.3091,2.3091,2.3091,2.3091,2.3091,2.3091,2.3091,2.3091,2.3091,2.3091,2.3091,2.3091,2.3091,2.3101,2.3091,2.3091,2.3057,2.3047,2.2818,2.1623,2.044,1.9497,1.9451,1.9451,1.9451,1.9451,1.9451,1.9451,1.9497,1.9497,1.9497,1.9497,1.9497,1.9497,1.9497,1.9497,1.9497,1.9497,1.8503,1.7692,1.7692,1.6622,1.5784,1.5784,1.5784,1.5784,1.5784,1.5784,1.5784,1.5784,1.5784,1.5784,1.5784,1.5784,1.5784,1.5784,1.5784,1.5784,1.5784,1.5784,1.5784,1.5784,1.5784,1.5784,1.5784,1.5778,1.5092,3.4775,3.3947,3.3165,3.2201,3.1557,3.1286,3.1825,3.2089,3.2378,3.2998,3.3124,3.3124,3.3124,3.3124,3.3124,3.3124,3.3202,3.3211,3.2965,3.3323,3.3815,3.4376,3.397,3.2638,3.0134,2.9033,2.8057,2.7088,2.6982,2.662,2.5732,2.5312,2.5116,2.5116,2.4365,2.3926,2.3789,2.3315,2.3091,2.3091,2.3091,2.3091,2.3091,2.3091,2.3091,2.3091,2.3091,2.3091,2.3091,2.3091,2.3091,2.3091,2.3091,2.3091,2.3091,2.3091,2.3091,2.3091,2.3091,2.3091,2.3091,2.3091,2.3091,2.3047,2.2633,2.1667,2.0576,1.9716,1.9497,1.9497,1.9497,1.9497,1.9724,2.0522,2.0747,2.098,2.1765,2.1952,2.1952,2.1952,2.1302,2.0747,2.0747,1.9716,1.8948,1.8948,1.7909,1.7084,1.7084,1.6339,1.5784,1.5784,1.5784,1.5784,1.5784,1.5784,1.5784,1.5784,1.5784,1.5784,1.5784,1.5784,1.5784,1.5784,1.5784,1.5784,1.5784,1.5784,1.5784,1.5784,1.5784,1.5588,3.5604,3.4627,3.358,3.262,3.2054,3.1788,3.2127,3.239,3.2641,3.3006,3.3124,3.3124,3.3124,3.3124,3.3124,3.3124,3.337,3.3457,3.3113,3.3825,3.4494,3.4857,3.3982,3.2618,3.064,2.9805,2.9096,2.8319,2.8272,2.7823,2.6878,2.6367,2.5865,2.5207,2.428,2.3711,2.3545,2.3227,2.3091,2.3091,2.3091,2.3091,2.3091,2.3091,2.3091,2.3091,2.3091,2.3091,0.0,2.3091,2.3091,2.3091,2.3091,2.3091,2.3091,2.3091,2.3091,2.3091,2.3091,2.3091,2.3091,2.3091,2.3091,2.3091,2.3091,2.2589,2.181,2.1078,2.0863,2.0863,2.0863,2.0863,2.1033,2.18,2.1987,2.2173,2.295,2.3091,2.3091,2.3091,2.2492,2.1987,2.1987,2.0998,2.0178,2.0169,1.9131,1.8365,1.8365,1.7669,1.7023,1.6574,1.6527,1.6339,1.5825,1.5784,1.5784,1.5784,1.5784,1.5784,1.5784,1.5784,1.5784,1.5784,1.5784,1.5784,1.5784,1.5784,1.5784,1.5784,1.5784,1.5784,0.0,3.3702,3.2725,3.1853,3.1971,3.2277,3.2277,3.2692,0.0,3.3124,3.3124,3.3124,3.3174,3.3149,3.3106,3.3181,3.3174,3.347,3.4625,3.5207,3.552,3.5445,3.4025,3.2584,3.1463,3.0316,2.9636,2.9544,2.951,2.9195,2.8656,2.812,2.7151,2.5555,2.4533,2.3723,2.3101,2.3091,2.3091,2.3091,2.3091,2.3091,2.3091,2.3091,2.3091,2.3091,2.3091,2.3091,2.3091,2.3091,2.3091,2.3091,2.3091,2.3091,2.3091,2.3091,2.3091,2.3091,2.3091,2.3091,2.3091,2.3091,2.3091,2.3091,2.3091,2.3091,2.3091,2.3091,2.3091,2.3091,2.3091,2.3091,2.3091,2.3091,2.3091,2.3091,2.3091,2.3091,2.3091,2.3091,2.3091,2.3091,2.3091,2.2192,2.1418,2.1436,2.0395,1.9633,1.9633,1.9534,1.9085,1.7963,1.7824,1.7318,1.6062,1.5825,1.5784,1.5784,1.5784,1.5784,1.5784,1.5784,1.5784,1.5784,1.5784,1.5784,1.5784,1.5784,1.5784,1.5784,1.5784,1.5784,3.4714,0.0,3.4214,3.3981,3.3405,3.2867,0.0,3.298,3.3124,3.3124,3.3124,3.3206,3.3633,3.337,3.3357,3.4198,3.3633,3.3608,3.5094,3.583,3.5855,3.4969,3.4516,3.3859,3.2767,3.2382,3.1833,3.0855,3.0402,2.9725,2.8679,2.7752,2.7099,2.6732,2.6168,2.4966,2.3135,2.3091,2.3091,2.3091,2.3091,2.3091,2.3091,2.3091,2.3091,2.3091,2.3091,2.3091,2.3091,2.3091,2.3091,2.3091,2.3091,2.3091,2.3091,2.3091,2.3091,2.3091,2.3091,2.3091,2.3091,2.3091,2.3091,2.3091,2.3091,2.3091,2.3091,2.3091,2.3091,2.3091,2.3091,2.3091,2.3091,2.3091,2.3091,2.3091,2.3091,2.3091,2.3091,2.3091,2.3091,2.3091,2.3091,2.2872,2.2687,2.2677,2.1667,2.089,2.089,2.0079,1.9405,1.9093,1.9085,1.8588,1.7365,1.6339,1.5784,1.5784,1.5784,1.5784,1.5784,1.5784,1.5784,1.5784,1.5784,1.5784,1.5784,1.5784,1.5784,1.5784,1.5784,1.5784,3.4938,3.4541,3.434,3.434,3.3895,3.3458,3.3458,3.3257,3.3124,3.3124,3.3124,3.3212,3.347,3.3483,3.3658,3.4248,3.406,3.4236,3.5332,3.5805,3.568,3.4781,3.45,3.401,3.3156,3.3124,3.2685,3.173,3.1406,3.0719,2.9603,2.8993,2.8363,2.7559,2.7347,2.6419,2.4681,2.4135,2.3877,2.3877,2.3343,2.3091,2.3091,2.3091,2.3091,2.3091,2.3091,2.3091,2.3091,2.3091,2.3091,2.3091,2.3091,2.3091,2.3091,2.3091,2.3091,2.3091,2.3091,2.3091,2.3091,2.3091,2.3091,2.3091,2.3091,2.3091,2.3091,2.3091,2.3091,2.3091,2.3091,2.3091,2.3091,2.3091,2.3091,2.3091,2.3091,2.3091,2.3091,2.3091,2.3091,2.3091,2.3091,2.3091,2.3091,2.3091,2.2536,2.212,2.212,2.1543,2.0944,2.0395,2.035,1.9852,1.8642,1.7894,1.7023,1.5872,1.5784,1.5784,1.5784,1.5784,1.5784,1.5784,1.5784,1.5784,1.5784,1.5784,1.5784,1.5784,1.5784,1.5784,3.5413,3.4744,3.4474,3.4103,3.4085,3.4079,3.3828,3.3525,3.3313,3.3111,3.3124,3.3217,3.3541,3.3764,3.3991,3.4376,3.4596,3.4781,3.5082,3.5194,3.5044,3.4537,3.406,3.3583,3.3119,3.3006,3.2742,3.2252,3.2064,3.1574,3.067,3.0532,2.9836,2.8398,2.8347,2.7896,2.7017,2.5714,2.5041,2.5041,2.3887,2.3343,2.3343,2.3178,2.3091,2.3091,2.3091,0.0,2.3091,2.3091,2.3091,2.3091,2.3091,2.3091,2.3091,2.3091,2.3091,2.3091,2.3091,2.3091,2.3091,2.3091,2.3091,2.3091,2.3091,2.3091,2.3091,2.3091,2.3091,2.3091,2.3091,2.3091,2.3091,2.3091,2.3091,2.3091,2.3091,2.3091,2.3091,2.3091,2.3091,2.3091,2.3091,2.3091,2.3091,2.3091,2.3091,2.3091,2.3091,2.3091,2.2721,2.1658,2.1569,2.1078,1.9898,1.9761,1.8802,1.6513,1.6197,1.6015,1.5832,1.5784,1.5784,1.5784,1.5784,1.5784,1.5784,1.5784,1.5784,1.5784,1.5784,1.5784,3.6053,3.6675,3.7012,3.5046,3.4926,3.492,3.351,3.3849,3.4191,3.3283,3.3124,3.3677,3.5613,3.4858,3.454,3.6444,3.5603,3.4424,3.3571,3.3859,3.3947,3.3395,3.3257,3.3212,3.3124,3.2641,3.2303,3.2227,3.1373,3.0783,3.062,3.0168,2.9789,2.9546,2.9534,2.9456,2.93,2.7261,2.6224,2.6224,2.5083,2.4542,2.45,2.3551,2.3091,2.3091,0.0,2.3091,2.3091,2.3091,2.3091,2.3091,2.3091,2.3091,2.3091,2.3091,2.3091,2.3091,2.3091,2.3091,2.3091,2.3091,2.3091,2.3091,2.3091,2.3091,2.3091,2.3091,2.3091,2.3091,2.3091,2.3091,2.3091,2.3091,2.3091,2.3091,2.3091,2.3091,2.3091,2.3091,2.3091,2.3091,2.3091,2.3091,2.3091,2.3091,2.3091,2.3091,2.3091,2.3091,2.3047,2.2862,2.2818,2.235,2.1114,2.1025,2.044,1.9039,1.7948,1.6897,1.5825,1.5784,1.5784,1.5784,1.5784,1.5784,1.5784,1.5784,1.5784,1.5784,1.5784,1.5784,3.7214,3.7724,3.8084,3.6712,3.6866,3.7223,3.6458,3.6191,3.5899,3.5417,3.5027,3.5232,3.663,3.62,3.5883,3.6643,3.5602,3.4449,3.3633,3.3746,3.3696,3.3144,3.3124,3.2955,3.2641,3.2365,3.1976,3.1399,3.0896,3.0482,3.0181,2.993,2.9792,2.9792,2.9792,2.9792,2.9792,2.8791,2.7959,2.736,2.6254,2.5724,2.5672,2.4553,2.4006,2.3963,0.0,2.3091,2.3091,2.3091,2.3091,2.3091,2.3091,2.3091,2.3091,2.3091,2.3091,2.3091,2.3091,2.3091,2.3091,2.3091,2.3091,2.3091,2.3091,2.3091,2.3091,2.3091,2.3091,2.3091,2.3091,2.3091,2.3091,2.3091,2.3091,2.3091,2.3091,2.3091,2.3091,2.3091,2.3091,2.3091,2.3091,2.3091,2.3091,2.3091,2.3091,2.3091,2.3091,2.3091,2.3091,2.3091,2.3091,2.2862,2.2306,2.2262,2.1489,1.9625,1.9001,1.8133,1.6897,1.681,1.648,1.5825,1.5784,1.5784,1.5784,1.5784,1.5784,1.5784,1.5784,1.5784,3.8383,3.8609,3.8942,3.8341,3.8439,3.8644,3.8394,3.7686,3.7069,3.6982,3.6583,3.647,3.7388,3.7514,3.7099,3.5913,3.5172,3.4483,3.3803,3.3709,3.3508,3.2943,3.288,3.2654,3.2077,3.1913,3.1499,3.067,3.0495,3.0231,2.9817,2.9792,2.9792,2.9792,2.9792,2.9792,2.9792,2.9792,2.9365,2.8478,2.7412,2.6883,2.6842,2.5714,2.521,2.5168,2.4264,2.3887,2.3887,2.3887,2.3724,2.3507,2.3507,2.3343,2.3091,2.3091,2.3091,2.3091,2.3091,2.3091,2.3091,2.3091,2.3091,2.3091,2.3091,2.3091,2.3091,2.3091,2.3091,2.3091,2.3091,2.3091,2.3091,2.3091,2.3091,2.3091,2.3091,2.3091,2.3091,2.3091,2.3091,2.3091,2.3091,2.3091,2.3091,2.3091,2.3091,2.3091,2.3091,2.3091,2.3091,2.3091,2.3091,2.3091,2.3091,2.3091,2.2315,2.0449,1.9807,1.9093,1.8141,1.8141,1.7544,1.6244,1.6244,1.6109,1.5784,1.5784,1.5784,1.5784,1.5784,1.5784,3.9301,3.9778,4.0122,3.9465,3.8522,3.7542,3.6603,3.6644,3.6712,3.6353,3.6225,3.6707,3.8364,3.8687,3.7648,3.4566,3.4418,3.4337,3.3303,3.3174,3.2918,3.234,3.2277,3.2051,3.1499,3.1022,3.0696,3.062,3.0143,2.9829,2.9792,2.9792,2.9792,2.9792,2.9792,2.9792,2.9792,2.9792,2.9753,2.9663,2.8518,2.7964,2.7964,2.6871,2.6389,2.6348,2.6307,2.6276,2.6276,2.6276,2.5641,2.467,2.467,2.4049,2.3091,2.3091,2.3091,2.3091,2.3091,2.3091,2.3091,2.3091,2.3091,2.3091,2.3091,2.3091,2.3091,2.3091,2.3091,2.3091,2.3091,2.3091,2.3091,2.3091,2.3091,2.3091,2.3091,2.3091,2.3091,2.3091,2.3091,2.3091,2.3091,2.3091,2.3091,2.3091,2.3091,2.3091,2.3091,2.3091,2.3091,2.3091,2.3091,2.3091,2.3091,2.3091,2.3047,2.2862,2.0719,1.9451,1.936,1.936,1.8818,1.7598,1.7552,1.699,1.5784,1.5784,1.5784,1.5784,1.5784,1.5784,3.8661,3.896,3.9095,3.8841,3.8154,3.7745,3.86,3.8619,3.8502,3.876,3.8481,3.8404,3.9054,3.8955,3.8246,3.6573,3.5412,3.4553,3.415,3.3208,3.2453,3.224,3.1913,3.1486,3.0959,3.0733,3.047,3.0131,2.9905,2.9792,2.9792,2.9792,2.9792,2.9792,2.9792,2.9792,2.9792,2.9792,2.9792,2.9792,2.9365,2.9157,2.9106,2.7988,2.7481,2.7441,2.6801,2.6524,2.6524,2.6524,2.6265,2.5797,2.5083,2.4082,2.3091,2.3091,2.3091,2.3091,2.3091,2.3091,2.3091,2.3091,2.3091,2.3091,2.3091,2.3091,2.3091,2.3091,2.3091,2.3091,2.3091,2.3091,2.3091,2.3091,2.3091,2.3091,2.3091,2.3091,2.3091,2.3091,2.3091,2.3091,2.3091,2.3091,2.3091,2.3091,2.3091,2.3091,2.3091,2.3091,2.3091,2.3091,2.3091,2.3091,2.3091,2.3091,2.3091,2.3091,2.2227,2.14,2.0666,2.0621,2.0034,1.8818,1.8818,1.8588,1.8118,1.7358,1.699,1.6943,1.615,1.5784,3.8272,3.8542,3.8661,3.8437,3.8048,3.8078,3.9454,3.926,3.9035,3.9903,3.9559,3.9047,3.8914,3.8774,3.8368,3.7462,3.6191,3.513,3.4496,3.3247,3.2234,3.1766,3.1373,3.0934,3.0407,3.0357,3.0193,2.9817,2.9792,2.9792,2.9792,2.9792,2.9792,2.9792,2.9792,2.9792,2.9792,2.9792,2.9792,2.9792,2.9792,2.9792,2.9753,2.8976,2.8636,2.8597,2.7867,2.7545,2.7545,2.7545,2.7342,2.6883,2.5755,2.484,2.4178,2.4178,2.393,2.3637,2.3637,2.3387,2.3091,2.3091,2.3091,2.3091,2.3091,2.3091,2.3091,2.3091,2.3091,2.3091,2.3091,2.3091,2.3091,2.3091,2.3091,2.3091,2.3091,2.3091,2.3091,2.3091,2.3091,2.3091,2.3091,2.3091,2.3091,2.3091,2.3091,2.3091,2.3091,2.3091,2.3091,2.3091,2.3091,2.3091,2.3091,2.3091,2.3091,2.3091,2.3091,2.2721,2.1889,2.1845,2.1302,2.0079,2.0079,1.9898,1.9497,1.868,1.828,1.8234,1.699,1.6386,3.8377,3.8871,3.923,3.8542,3.8377,3.8377,3.8377,3.7883,3.7793,3.9104,3.8871,3.8288,3.7901,3.8149,3.792,3.644,3.6547,3.6099,3.41,3.3212,3.228,3.079,3.0608,3.0394,2.9842,2.9792,2.9792,2.9792,2.9792,2.9792,2.9792,2.9792,2.9792,2.9792,2.9792,2.9792,2.9792,2.9792,2.9792,2.9792,2.9792,2.9792,2.9792,2.9792,2.9792,2.9792,2.9792,2.9792,2.9792,2.9792,2.9145,2.8004,2.6924,2.6513,2.6524,2.6524,2.5797,2.483,2.483,2.4092,2.3135,2.3135,2.3091,2.3091,2.3091,2.3091,2.3091,2.3091,2.3091,2.3091,2.3091,2.3091,2.3091,2.3091,2.3091,2.3091,2.3091,2.3091,2.3091,2.3091,2.3091,2.3091,2.3091,2.3091,2.3091,2.3091,2.3091,2.3091,2.3091,2.3091,2.3091,2.3091,2.3091,2.3091,2.3091,2.3091,2.3091,2.3091,2.3091,2.3091,2.3091,2.3091,2.2536,2.1337,2.1337,2.0711,1.9534,1.9542,1.9542,1.9497,1.828,1.7738,3.7584,3.7524,3.7404,3.7644,3.7704,3.7704,3.7704,3.7913,3.8347,3.923,3.8871,3.8366,3.8225,3.7912,3.754,3.711,3.6548,3.5961,3.5344,3.4079,3.2818,3.1707,3.1252,3.07,2.9882,2.9792,2.9792,2.9792,2.9792,2.9792,2.9792,2.9792,2.9792,2.9792,2.9792,2.9792,2.9792,2.9792,2.9792,2.9792,2.9792,2.9792,2.9792,2.9792,2.9792,2.9792,2.9792,2.9792,2.9792,2.9792,2.9145,2.8084,2.7763,2.7157,2.6524,2.6524,2.6307,2.6016,2.6016,2.5252,2.4296,2.4296,2.3757,2.3091,2.3091,2.3091,2.3091,2.3091,2.3091,2.3091,2.3091,2.3091,2.3091,2.3091,2.3091,2.3091,2.3091,2.3091,2.3091,2.3091,2.3091,2.3091,2.3091,2.3091,2.3091,2.3091,2.3091,2.3091,2.3091,2.3091,2.3091,2.3091,2.3091,2.3091,2.3091,2.3091,2.3091,2.3091,2.3091,2.3091,2.3091,2.3091,2.295,2.258,2.2589,2.2403,2.2041,2.1168,2.0755,2.0755,1.9542,1.8956,3.724,3.7135,3.7,3.7644,3.7808,3.7868,3.8138,3.8512,3.8841,3.8975,3.8467,3.8003,3.8003,3.7479,3.712,3.7375,3.6699,3.5985,3.5603,3.4448,3.329,3.2354,3.1957,3.1402,3.0457,3.0343,3.0216,2.983,2.9792,2.9792,2.9792,2.9792,2.9792,2.9792,2.9792,2.9792,2.9792,2.9792,2.9792,2.9792,2.9792,2.9792,2.9792,2.9792,2.9792,2.9792,2.9792,2.9792,2.9792,2.9792,2.9404,2.8767,2.8767,2.8371,2.7799,2.7799,2.7504,2.7128,2.7128,2.6419,2.5462,2.5462,2.4713,2.38,2.38,2.3474,2.3091,2.3091,2.3091,2.3091,2.3091,2.3091,2.3091,2.3091,2.3091,2.3091,2.3091,2.3091,2.3091,2.3091,2.3091,2.3091,2.3091,2.3091,2.3091,2.3091,2.3091,2.3091,2.3091,2.3091,2.3091,2.3091,2.3091,2.3091,2.3091,2.3091,2.3091,2.3091,2.3091,2.3091,2.3091,2.3091,2.3091,2.3091,2.3091,2.3091,2.3091,2.235,2.2031,2.1987,2.08,2.0215,3.724,3.733,3.7404,3.8123,3.8347,3.8556,3.9185,3.9334,3.9155,3.8527,3.7823,3.733,3.733,3.6821,3.6582,3.715,3.6761,3.6089,3.5183,3.4539,3.3774,3.2855,3.2749,3.2357,3.1426,3.1254,3.0833,2.9998,2.9869,2.9792,2.9792,2.9792,2.9792,2.9792,2.9792,2.9792,2.9792,2.9792,2.9792,2.9792,2.9792,2.9792,2.9792,2.9792,2.9792,2.9792,2.9792,2.9792,2.9792,2.9792,2.9792,2.9792,2.9792,2.9792,2.9792,2.9792,2.9145,2.8255,2.8255,2.7574,2.6637,2.6637,2.588,2.4957,2.4957,2.4211,2.343,2.343,2.343,2.3387,2.3256,2.3256,2.3222,2.3135,2.3091,2.3091,2.3091,2.3091,2.3091,2.3091,2.3091,2.3091,2.3091,2.3091,2.3091,2.3091,2.3091,2.3091,2.3091,2.3091,2.3091,2.3091,2.3091,2.3091,2.3091,2.3091,2.3091,2.3091,2.3091,2.3091,2.3091,2.3091,2.3091,2.3091,2.3091,2.3091,2.3091,2.3091,2.3091,2.3047,2.1987,2.148,3.724,3.6686,3.6193,3.733,3.8003,3.8422,3.8571,3.8616,3.8571,3.8422,3.7479,3.6686,3.6686,3.6148,3.5759,3.5893,3.5804,3.5633,3.5421,3.5255,3.4806,3.3808,3.3705,3.3345,3.2393,3.1646,3.1106,3.0895,3.0203,2.9792,2.9792,2.9792,2.9792,2.9792,2.9792,2.9792,2.9792,2.9792,2.9792,2.9792,2.9792,2.9792,2.9792,2.9792,2.9792,2.9792,2.9792,2.9792,2.9792,2.9792,2.9792,2.9792,2.9792,2.9792,2.9792,2.9792,2.9624,2.9443,2.9443,2.8688,2.7775,2.7775,2.7035,2.6141,2.6141,2.5975,2.5766,2.5766,2.5766,2.5557,2.467,2.4414,2.4211,2.3299,2.3091,2.3091,2.3091,2.3091,2.3091,2.3091,2.3091,2.3091,2.3091,2.3091,2.3091,2.3091,2.3091,2.3091,2.3091,2.3091,2.3091,2.3091,2.3091,2.3091,2.3091,2.3091,2.3091,2.3091,2.3091,2.3091,2.3091,2.3091,2.3091,2.3091,2.3091,2.3091,2.3091,2.3091,2.3091,2.3091,2.2818,2.2721,3.6881,3.6477,3.6133,3.6806,3.7449,3.7913,3.7913,3.7689,3.7479,3.7479,3.6956,3.6387,3.6073,3.5744,3.5504,3.5504,3.5504,3.5504,3.5504,3.5504,3.5326,3.4758,3.4725,3.4327,3.3345,3.282,3.2177,3.1278,3.0771,3.0279,2.983,2.9792,2.9792,2.9792,2.9792,2.9792,2.9792,2.9792,2.9792,2.9792,2.9792,2.9792,2.9792,2.9792,2.9792,2.9792,2.9792,2.9792,2.9792,2.9792,2.9792,2.9792,2.9792,2.9792,2.9792,2.9792,2.9792,2.9792,2.9792,2.9404,2.8897,2.8897,2.8159,2.729,2.729,2.6924,2.6524,2.6524,2.6524,2.6348,2.5755,2.563,2.5347,2.4168,2.3507,2.3091,2.3091,2.3091,2.3091,2.3091,2.3091,2.3091,2.3091,2.3091,2.3091,2.3091,2.3091,2.3091,2.3091,2.3091,2.3091,2.3091,2.3091,2.3091,2.3091,2.3091,2.3091,2.3091,2.3091,2.3091,2.3091,2.3091,2.3091,2.3091,2.3091,2.3091,2.3091,2.3091,2.3091,2.3091,2.3091,2.3091,3.6312,3.6312,3.6342,3.6462,3.6941,3.7375,3.727,3.6851,3.6447,3.6342,3.6312,3.6148,3.5609,3.5504,3.5504,3.5504,3.5504,3.5504,3.5504,3.5504,3.5504,3.5504,3.5504,3.5166,3.4361,3.4095,3.3345,3.1815,3.1389,3.0871,3.0075,2.9908,2.9792,2.9792,2.9792,2.9792,2.9792,2.9792,2.9792,2.9792,2.9792,2.9792,2.9792,2.9792,2.9792,2.9792,2.9792,2.9792,2.9792,2.9792,2.9792,2.9792,2.9792,2.9792,2.9792,2.9792,2.9792,2.9792,2.9792,2.9792,2.9792,2.9792,2.9145,2.8386,2.8386,2.7787,2.7058,2.7058,2.7058,2.7017,2.6842,2.676,2.6502,2.5378,2.4382,2.3604,2.3178,2.3091,2.3091,2.3091,2.3091,2.3091,2.3091,2.3091,2.3091,2.3091,2.3091,2.3091,2.3091,2.3091,2.3091,2.3091,2.3091,2.3091,2.3091,2.3091,2.3091,2.3091,2.3091,2.3091,2.3091,2.3091,2.3091,2.3091,2.3091,2.3091,2.3091,2.3091,2.3091,2.3091,2.3091,2.3091,3.5639,3.5639,3.5774,3.6342,3.6941,3.727,3.6731,3.6552,3.6327,3.5744,3.5639,3.5609,3.5519,3.5504,3.5504,3.5504,3.5504,3.5504,3.5504,3.5504,3.5504,3.5504,3.5504,3.5439,3.5311,3.4509,3.391,3.3636,3.2141,3.1143,3.1007,3.0241,2.9792,2.9792,2.9792,2.9792,2.9792,2.9792,2.9792,2.9792,2.9792,2.9792,2.9792,2.9792,2.9792,2.9792,2.9792,2.9792,2.9792,2.9792,2.9792,2.9792,2.9792,2.9792,2.9792,2.9792,2.9792,2.9792,2.9792,2.9792,2.9792,2.9792,2.9714,2.9573,2.9573,2.9456,2.9378,2.9378,2.9378,2.9118,2.8136,2.7896,2.7602,2.6513,2.6141,2.5515,2.3517,2.3091,2.3091,2.3091,2.3091,2.3091,2.3091,2.3091,2.3091,2.3091,2.3091,2.3091,2.3091,2.3091,2.3091,2.3091,2.3091,2.3091,2.3091,2.3091,2.3091,2.3091,2.3091,2.3091,2.3091,2.3091,2.3091,2.3091,2.3091,2.3091,2.3091,2.3091,2.3091,2.3091,2.3091,2.3091,3.6058,3.5504,3.5085,3.5774,3.6148,3.6267,3.5998,3.5938,3.5848,3.5564,3.5504,3.5504,3.5504,3.5504,3.5504,3.5504,3.5504,3.5504,3.5504,3.5504,3.5504,3.5504,3.5504,3.5504,3.5504,3.51,3.461,3.4027,3.3241,3.2522,3.1997,3.1082,3.0595,3.0595,3.0075,2.9792,2.9792,2.9792,2.9792,2.9792,2.9792,2.9792,2.9792,2.9792,2.9792,2.9792,2.9792,2.9792,2.9792,2.9792,2.9792,2.9792,2.9792,2.9792,2.9792,2.9792,2.9792,2.9792,2.9792,2.9792,2.9792,2.9792,2.9792,2.9792,2.9792,2.9792,2.9792,2.9792,2.9792,2.9663,2.9197,2.9067,2.8779,2.7654,2.7412,2.6953,2.5347,2.502,2.4808,2.4178,2.3551,2.3091,2.3091,2.3091,2.3091,2.3091,2.3091,2.3091,2.3091,2.3091,2.3091,2.3091,2.3091,2.3091,2.3091,2.3091,2.3091,2.3091,2.3091,2.3091,2.3091,2.3091,2.3091,2.3091,2.3091,2.3091,2.3091,2.3091,2.3091,2.3091,2.3091,2.3091,3.6193,3.5504,3.4906,3.5594,3.5744,3.5744,3.5744,3.5624,3.5504,3.5504,3.5504,3.5504,3.5504,3.5504,3.5504,3.5504,3.5504,3.5504,3.5504,3.5504,3.5504,3.5504,3.5504,3.5504,3.5504,3.5504,3.518,3.4428,3.4129,3.3705,3.2996,3.2069,3.1573,3.1573,3.0671,3.0139,3.0139,2.9934,2.9792,2.9792,2.9792,2.9792,2.9792,2.9792,2.9792,2.9792,2.9792,2.9792,2.9792,2.9792,2.9792,2.9792,2.9792,2.9792,2.9792,2.9792,2.9792,2.9792,2.9792,2.9792,2.9792,2.9792,2.9792,2.9792,2.9792,2.9792,2.9792,2.9792,2.9792,2.9792,2.9792,2.9792,2.9585,2.8727,2.8518,2.8148,2.6801,2.6524,2.6265,2.542,2.4553,2.3887,2.3594,2.3507,2.342,2.3135,2.3091,2.3091,2.3091,2.3091,2.3091,2.3091,2.3091,2.3091,2.3091,2.3091,2.3091,2.3091,2.3091,2.3091,2.3091,2.3091,2.3091,2.3091,2.3091,2.3091,2.3091,2.3091,2.3091,2.3091,2.3091,2.3091,3.5385,3.5504,3.5609,3.6267,3.6432,3.6432,3.6432,3.5953,3.5504,3.5504,3.5504,3.5504,3.5504,3.5504,3.5504,3.5504,3.5504,3.5504,3.5504,3.5504,3.5504,3.5504,3.5504,3.5504,3.5504,3.5504,3.5472,3.5439,3.4543,3.3993,3.391,3.3031,3.2522,3.2522,3.1609,3.1143,3.1143,3.0241,2.9792,2.9792,2.9792,2.9792,2.9792,2.9792,2.9792,2.9792,2.9792,2.9792,2.9792,2.9792,2.9792,2.9792,2.9792,2.9792,2.9792,2.9792,2.9792,2.9792,2.9792,2.9792,2.9792,2.9792,2.9792,2.9792,2.9792,2.9792,2.9792,2.9792,2.9792,2.9792,2.9792,2.9792,2.9792,2.9714,2.9702,2.9131,2.6976,2.6524,2.6472,2.6431,2.6348,2.5975,2.4914,2.4702,2.4329,2.3266,2.3091,2.3091,2.3091,2.3091,2.3091,2.3091,2.3091,2.3091,2.3091,2.3091,2.3091,2.3091,2.3091,2.3091,2.3091,2.3091,2.3091,2.3091,2.3091,2.3091,2.3091,2.3091,2.3091,2.3091,2.3091,2.3091,3.5205,3.519,3.5011,3.5684,3.6576,3.7163,3.6687,3.7142,3.7558,3.7075,3.6981,3.6829,3.6306,3.5814,3.5504,3.5504,3.5504,3.5504,3.5504,3.5504,3.5504,3.5504,3.5504,3.5504,3.5504,3.5504,3.5504,3.5504,3.5166,3.4953,3.4953,3.4027,3.3206,3.2629,3.1669,3.0895,3.0317,2.9972,2.9792,2.9792,2.9792,2.9792,2.9792,2.9792,2.9792,2.9792,2.9792,2.9792,2.9792,2.9792,2.9792,2.9792,2.9792,2.9792,2.9792,2.9792,2.9792,2.9792,2.9792,2.9792,2.9792,2.9792,2.9792,2.9792,2.9792,2.9792,2.9792,2.9792,2.9792,2.9792,2.9792,2.9792,2.9792,2.9792,2.9792,2.9585,2.8791,2.8039,2.7522,2.7522,2.6964,2.6348,2.5975,2.588,2.5864,2.5797,2.5498,2.5126,2.473,2.4385,2.392,2.3178,2.3091,2.3091,2.3091,2.3091,2.3091,2.3091,2.3091,2.3091,2.3091,2.3091,2.3091,2.3091,2.3091,2.3091,2.3091,2.3091,2.3091,2.3091,2.3091,2.3091,3.4842,3.516,3.5342,3.5983,3.6728,3.7241,3.6932,3.7328,3.7635,3.7135,3.7041,3.686,3.6337,3.5831,3.5504,3.5504,3.5504,3.5504,3.5504,3.5504,3.5504,3.5504,3.5504,3.5504,3.5504,3.5504,3.5504,3.5504,3.5504,3.5504,3.5504,3.4872,3.3925,3.2629,3.1997,3.1082,2.9792,2.9792,2.9792,2.9792,2.9792,2.9792,2.9792,2.9792,2.9792,2.9792,2.9792,2.9792,2.9792,2.9792,2.9792,2.9792,2.9792,2.9792,2.9792,2.9792,2.9792,2.9792,2.9792,2.9792,2.9792,2.9792,2.9792,2.9792,2.9792,2.9792,2.9792,2.9792,2.9792,2.9792,2.9792,2.9792,2.9792,2.9792,2.9792,2.9792,2.9792,2.9197,2.8688,2.8688,2.8119,2.7476,2.7087,2.7046,2.7037,2.7046,2.6737,2.6346,2.5925,2.5572,2.5094,2.4307,2.4221,2.4102,2.3714,2.3681,2.3507,2.3135,2.3091,2.3091,2.3091,2.3091,2.3091,2.3091,2.3091,2.3091,2.3091,2.3091,2.3091,2.3091,2.3091,2.3091,0.0,0.0,0.0,3.721,3.6944,3.666,3.7244,3.6454,3.5569,3.5569,3.5539,3.5539,3.5522,3.5537,3.5537,3.5504,3.5504,3.5504,3.5504,3.5504,3.5504,3.5504,3.5504,3.5504,3.5504,3.5504,3.5504,3.5504,3.5504,3.5504,3.5504,3.5472,3.4591,3.2713,3.2593,3.1696,2.9869,2.9792,2.9792,2.9792,2.9792,2.9792,2.9792,2.9792,2.9792,2.9792,2.9792,2.9792,2.9792,2.9792,2.9792,2.9792,2.9792,2.9792,2.9792,2.9792,2.9792,2.9792,2.9792,2.9792,2.9792,2.9792,2.9792,2.9792,2.9792,2.9792,2.9792,2.9792,2.9792,2.9792,2.9792,2.9792,2.9792,2.9792,2.9792,2.9792,2.9792,2.9792,2.9792,2.9792,2.9792,2.9456,2.8347,2.8136,2.7815,2.6782,2.6618,2.6629,2.6588,2.6577,2.6535,2.6524,2.6524,2.6058,2.4957,2.483,2.4372,2.3222,2.3135,2.3144,2.3091,2.3091,2.3091,2.3091,2.3091,2.3091,2.3091,2.3091,2.3091,2.3091,2.3091,2.3091,3.3467,0.0,0.0,0.0,0.0,0.0,3.6888,3.7048,3.7219,3.7175,3.6766,3.6415,3.6307,3.6306,3.6117,3.5587,3.5504,3.5504,3.5504,3.5504,3.5504,3.5504,3.5504,3.5504,3.5504,3.5504,3.5504,3.5504,3.5504,3.5504,3.5504,3.4806,3.4177,3.3636,3.2321,3.1328,3.0833,3.0139,2.9792,2.9792,2.9792,2.9792,2.9792,2.9792,2.9792,2.9792,2.9792,2.9792,2.9792,2.9792,2.9792,2.9792,2.9792,2.9792,2.9792,2.9792,2.9792,2.9792,2.9792,2.9792,2.9792,2.9792,2.9792,2.9792,2.9792,2.9792,2.9792,2.9792,2.9792,2.9792,2.9792,2.9792,2.9792,2.9792,2.9792,2.9792,2.9792,2.9792,2.9792,2.9792,2.9792,2.9702,2.9365,2.9326,2.9372,2.9434,2.9455,2.9149,2.8328,2.8245,2.7777,2.664,2.6524,2.6348,2.6058,2.6016,2.5557,2.4414,2.4339,2.3963,2.3135,2.3091,2.3091,2.3091,2.3091,2.3091,2.3091,2.3091,2.3091,2.3091,2.3091,2.3091,3.2939,3.3995,3.5045,3.5735,0.0,0.0,3.6576,3.6523,3.6468,3.6423,3.6314,3.6163,3.5799,3.6164,3.6326,3.5614,3.5504,3.5504,3.5504,3.5504,3.5609,3.5878,3.5908,3.5908,3.5908,3.5908,3.5804,3.5534,3.5504,3.5504,3.5504,3.4953,3.4428,3.4027,3.2558,3.1609,3.1217,3.0279,2.9792,2.9792,2.9792,2.9792,2.9792,2.9792,2.9792,2.9792,2.9792,2.9792,2.9792,2.9792,2.9792,2.9792,2.9792,2.9792,2.9792,2.9792,2.9792,2.9792,2.9792,2.9792,2.9792,2.9792,2.9792,2.9792,2.9792,2.9792,2.9792,2.9792,2.9792,2.9792,2.9792,2.9792,2.9792,2.9792,2.9792,2.9792,2.9792,2.9792,2.9792,2.9792,2.9792,2.9792,2.9792,2.9792,2.9905,3.0218,3.0269,3.0019,2.9361,2.9281,2.8907,2.7995,2.7879,2.7678,2.7209,2.7168,2.6707,2.5588,2.5504,2.5221,2.4563,2.452,2.452,2.452,2.4049,2.3594,2.3091,2.3091,2.3091,2.3091,2.3091,2.3091,3.2396,3.3316,3.4239,3.5811,3.5791,0.0,3.6237,3.54,3.4533,3.4608,3.5026,3.5235,3.4728,3.5672,3.6267,3.5609,3.5564,3.5594,3.5519,3.5504,3.5744,3.6417,3.6492,3.6507,3.6582,3.6522,3.6237,3.5654,3.5549,3.5504,3.5504,3.5504,3.51,3.4211,3.3241,3.2357,3.1536,3.0558,3.0075,2.9972,2.9972,2.9895,2.9792,2.9792,2.9792,2.9792,2.9792,2.9792,2.9792,2.9792,2.9792,2.9792,2.9792,2.9792,2.9792,2.9792,2.9792,2.9792,2.9792,2.9792,2.9792,2.9792,2.9792,2.9792,2.9792,2.9792,2.9792,2.9792,2.9792,2.9792,2.9792,2.9792,2.9792,2.9792,2.9792,2.9792,2.9792,2.9792,2.9792,2.9792,2.9792,2.9792,2.9792,2.9792,2.9792,2.9792,2.9842,2.9867,2.9804,2.9842,2.9867,2.9804,2.9792,2.9404,2.8386,2.8307,2.7815,2.676,2.6678,2.6637,2.6524,2.6524,2.6524,2.6524,2.5504,2.4425,2.3309,2.3178,2.3091,2.3091,2.3091,2.3091,3.0936,3.1883,3.3129,3.422,3.438,0.0,3.5475,3.507,3.4668,3.519,3.4966,3.4801,3.5235,3.5953,3.6267,3.5609,3.5953,3.6118,3.5579,3.5504,3.5744,3.6417,3.6492,3.6686,3.718,3.6776,3.6432,3.6297,3.5804,3.5504,3.5504,3.5504,3.5392,3.5213,3.4245,3.3636,3.3449,3.2536,3.1683,3.0932,3.0932,3.052,2.9792,2.9792,2.9792,2.9792,2.9792,2.9792,2.9792,2.9792,2.9792,2.9792,2.9792,2.9792,2.9792,2.9792,2.9792,2.9792,2.9792,2.9792,2.9792,2.9792,2.9792,2.9792,2.9792,2.9792,2.9792,2.9792,2.9792,2.9792,2.9792,2.9792,2.9792,2.9792,2.9792,2.9792,2.9792,2.9792,2.9792,2.9792,2.9792,2.9792,2.9792,2.9792,2.9792,2.9792,3.0168,3.0294,2.9854,3.0181,3.0281,2.9842,2.9792,2.9702,2.9495,2.9495,2.8988,2.7855,2.7804,2.74,2.6565,2.6524,2.6524,2.6524,2.6265,2.5588,2.4457,2.3551,2.3091,2.3091,2.3091,2.3091,3.0819,3.1322,3.2141,3.3066,3.331,0.0,0.0,3.4273,3.4036,3.4857,3.4996,3.4996,3.4996,3.5818,3.6372,3.6043,3.5998,3.5878,3.5549,3.5504,3.5744,3.6417,3.6492,3.6731,3.7345,3.6851,3.6357,3.6028,3.5684,3.5504,3.5504,3.5504,3.5504,3.5504,3.4509,3.3993,3.3993,3.3066,3.2357,3.1888,3.1426,3.118,3.1169,3.0696,3.0482,3.0482,3.0482,3.0241,2.9792,2.9792,2.9792,2.9792,2.9792,2.9792,2.9792,2.9792,2.9792,2.9792,2.9792,2.9792,2.9792,2.9792,2.9792,2.9792,2.9792,2.9792,2.9792,2.9792,2.9792,2.9792,2.9792,2.9792,2.9792,2.9792,2.9792,2.9792,2.9792,2.9792,2.9792,2.9792,2.9792,2.9792,2.9792,2.9792,2.9792,2.9792,3.003,3.0105,2.9829,3.003,3.0093,2.9829,2.9792,2.9792,2.9792,2.9792,2.9585,2.8976,2.8937,2.87,2.8171,2.8131,2.7879,2.7319,2.7279,2.6748,2.563,2.5052,2.4221,2.3091,2.3091,2.3091,3.0889,3.0932,3.1156,3.2105,3.2321,3.2558,0.0,0.0,0.0,3.4253,3.4971,3.5325,3.4771,3.5669,3.6447,3.6312,3.5953,3.5684,3.5684,3.5684,3.5848,3.6252,3.6417,3.6731,3.7345,3.6851,3.6207,3.5549,3.5504,3.5504,3.5504,3.5504,3.5504,3.5504,3.4725,3.4279,3.4279,3.3533,3.3066,3.2855,3.2105,3.2033,3.2558,3.1815,3.1396,3.1303,3.1409,3.0992,3.0177,3.0279,3.0216,3.0037,2.9856,2.9792,2.9792,2.9792,2.9792,2.9792,2.9792,2.9792,2.9792,2.9792,2.9792,2.9792,2.9792,2.9792,2.9792,2.9792,2.9792,2.9792,2.9792,2.9792,2.9792,2.9792,2.9792,2.9792,2.9792,2.9792,2.9792,2.9792,2.9792,2.9792,2.9792,2.9792,2.9792,2.9792,2.9792,2.9792,2.9792,2.9792,2.9792,2.9792,2.9792,2.9792,2.9792,2.9792,2.9792,2.9792,2.9792,2.9792,2.9792,2.9792,2.9365,2.8438,2.8426,2.7896,2.6801,2.6801,2.5766,2.3767,2.3507,2.343,3.0085,2.9972,3.0177,3.1106,3.1352,3.1609,3.2558,0.0,3.3926,3.4028,0.0,3.5489,3.54,0.0,0.0,3.5714,3.6043,3.6372,3.6372,3.6372,3.6193,3.5684,3.6133,3.6731,3.7345,3.6851,3.6207,3.5549,3.5504,3.5504,3.5504,3.5504,3.5504,3.5504,3.5392,3.5326,3.5326,3.5213,3.4739,3.3842,3.3739,3.331,3.2593,3.25,3.214,3.159,3.2195,3.2042,3.1428,3.2031,3.1792,3.097,3.0101,2.9792,2.9792,2.9792,2.9792,2.9792,2.9792,2.9792,2.9792,2.9792,2.9792,2.9792,2.9792,2.9792,2.9792,2.9792,2.9792,2.9792,2.9792,2.9792,2.9792,2.9792,2.9792,2.9792,2.9792,2.9792,2.9792,2.9792,2.9792,2.9792,2.9792,2.9792,2.9792,2.9792,2.9792,2.9792,2.9792,2.9792,2.9792,2.9792,2.9792,2.9792,2.9792,2.9792,2.9792,2.9792,2.9792,2.9792,2.9792,2.9792,2.9753,2.9624,2.9624,2.9067,2.7936,2.7936,2.7279,2.6099,2.5083,2.4628,2.9942,2.9792,2.9895,3.0279,3.0381,3.062,3.1573,3.2105,3.2664,3.3774,0.0,0.0,0.0,0.0,0.0,0.0,3.5983,3.5923,3.5923,3.6237,3.6522,3.6596,3.6851,3.712,3.7389,3.718,3.6761,3.6118,3.5729,3.5504,3.5504,3.5504,3.5504,3.5504,3.5504,3.5504,3.5504,3.5504,3.5279,3.4872,3.4279,3.4109,3.4259,3.3671,3.3055,3.2503,3.2772,3.2178,3.1055,3.175,3.1801,3.1379,3.0815,3.0279,2.9792,2.9792,2.9792,2.9792,2.9792,2.9792,2.9792,2.9792,2.9792,2.9792,2.9792,2.9792,2.9792,2.9792,2.9792,2.9792,2.9792,2.9792,2.9792,2.9792,2.9792,2.9792,2.9792,2.9792,2.9792,2.9792,2.9792,2.9792,2.9792,2.9792,2.9792,2.9792,2.9792,2.9792,2.9792,2.9792,2.9792,2.9792,2.9792,2.9792,2.9792,2.9792,2.9792,2.9792,2.9792,2.9792,2.9792,2.9792,2.9792,2.9792,2.9792,2.9573,2.9106,2.9106,2.887,2.8383,2.6595,2.5797,2.9478,2.944,2.9553,2.9553,2.9679,2.9972,3.0658,3.1007,3.1613,3.3135,3.3669,0.0,0.0,0.0,3.5818,3.6399,0.0,3.5774,3.5774,3.6327,3.6776,3.6881,3.7195,3.7404,3.7404,3.7404,3.715,3.6537,3.6043,3.5699,3.5519,3.5504,3.5504,3.5504,3.5504,3.5504,3.5504,3.5504,3.5504,3.5504,3.4758,3.4703,3.5188,3.4479,3.3696,3.2954,3.3129,3.2522,3.1453,3.2139,3.2356,3.2229,3.2036,3.1402,3.0495,3.0011,2.9792,2.9792,2.9792,2.9792,2.9792,2.9792,2.9792,2.9792,2.9792,2.9792,2.9792,2.9792,2.9792,2.9792,2.9792,2.9792,2.9792,2.9792,2.9792,2.9792,2.9792,2.9792,2.9792,2.9792,2.9792,2.9792,2.9792,2.9792,2.9792,2.9792,2.9792,2.9792,2.9792,2.9792,2.9792,2.9792,2.9792,2.9792,2.9792,2.9792,2.9792,2.9792,2.9792,2.9792,2.9792,2.9792,2.9792,2.9792,2.9792,2.9792,2.9792,2.9792,2.9792,2.9753,2.7839,2.6924,2.831,2.8512,2.8913,2.8913,2.9377,2.9792,2.983,3.0558,3.1376,3.193,3.2776,3.3913,3.559,3.5899,3.6031,3.6432,3.6477,0.0,0.0,3.6985,3.6926,3.5714,3.6656,3.7404,3.7404,3.7404,3.715,3.6537,3.6462,3.6178,3.5534,3.5504,3.5504,3.5504,3.5504,3.5504,3.5504,3.5504,3.5504,3.5504,3.5472,3.5113,3.4533,3.4502,3.3768,3.2557,3.3215,3.3453,3.3468,3.4125,3.4221,3.3916,3.391,3.3345,3.2285,3.047,2.9792,2.9792,2.9792,2.9792,2.9792,2.9792,2.9792,2.9792,2.9792,2.9792,2.9792,2.9792,2.9792,2.9792,2.9792,2.9792,2.9792,2.9792,2.9792,2.9792,2.9792,2.9792,2.9792,2.9792,2.9792,2.9792,2.9792,2.9792,2.9792,2.9792,2.9792,2.9792,2.9792,2.9792,2.9792,2.9792,2.9792,2.9792,2.9792,2.9792,2.9792,2.9792,2.9792,2.9792,2.9792,2.9792,2.9792,2.9792,2.9792,2.9792,2.9792,2.9792,2.9792,2.9753,2.8597,2.8056,0.0,2.8511,2.8988,2.9402,2.9641,2.9892,3.0256,3.0303,3.0508,3.1331,3.1987,3.3057,3.4953,3.5619,3.617,3.6984,3.7105,3.6956,0.0,3.6671,3.712,3.7988,3.8467,3.8701,3.8701,3.8317,3.7973,3.7764,3.7345,3.6821,3.6193,3.6148,3.5953,3.5519,3.5504,3.5504,3.5504,3.5504,3.5504,3.5504,3.504,3.4728,3.4488,3.4054,3.335,3.2497,3.2751,3.2841,3.2901,3.3559,3.4046,3.4319,3.4071,3.3808,3.338,3.2119,3.1659,3.1549,3.0945,3.0733,3.062,2.9998,2.9792,2.9792,2.9792,2.9792,2.9792,2.9792,2.9792,2.9792,2.9792,2.9792,2.9792,2.9792,2.9792,2.9792,2.9792,2.9792,2.9792,2.9792,2.9792,2.9792,2.9792,2.9792,2.9792,2.9792,2.9792,2.9792,2.9792,2.9792,2.9792,2.9792,2.9792,2.9792,2.9792,2.9792,2.9792,2.9792,2.9792,2.9792,2.9792,2.9792,2.9792,2.9792,2.9792,2.9792,2.9792,2.9792,2.9792,2.9792,2.9404,2.9236,2.7519,2.7921,0.0,2.8812,2.9051,2.934,2.9853,2.9741,2.977,3.0764,3.1397,3.2418,3.4407,3.5455,3.63,3.7258,3.7599,3.7539,0.0,3.7015,3.7629,3.8901,3.905,3.9155,3.9394,3.902,3.8661,3.8407,3.8003,3.7479,3.6851,3.6611,3.6297,3.5863,3.5624,3.5504,3.5504,3.5504,3.5385,3.513,3.4728,3.4264,3.3769,3.3335,3.2781,3.2138,3.2138,3.2392,3.2901,3.332,3.4023,3.4844,3.4629,3.4543,3.4361,3.3066,3.2593,3.25,3.1924,3.1706,3.1609,3.0983,3.0558,3.0317,3.0317,3.0075,2.9792,2.9792,2.9792,2.9792,2.9792,2.9792,2.9792,2.9792,2.9792,2.9792,2.9792,2.9792,2.9792,2.9792,2.9792,2.9792,2.9792,2.9792,2.9792,2.9792,2.9792,2.9792,2.9792,2.9792,2.9792,2.9792,2.9792,2.9792,2.9792,2.9792,2.9792,2.9792,2.9792,2.9792,2.9792,2.9792,2.9792,2.9792,2.9792,2.9792,2.9792,2.9792,2.9792,2.9792,2.9792,2.9792]}]]